     2.11           OBSERVATION DATA    G (GPS)             RINEX VERSION / TYPE
teqc 2010Oct21 OPUS Account 20111025 13:15:40UTC            PGM / RUN BY / DATE
N2277258                                                    MARKER NAME
1114                                                        MARKER NUMBER
CSMIDDLETON NGS                                             OBSERVER / AGENCY
4619K01307 TRIMBLE NETR5 4.41                               REC # / TYPE / VERS
12668873 TRM41249.00 NONE                                   ANT # / TYPE
  -741503.7067 -5462707.8500  3197295.8662                  APPROX POSITION XYZ
        1.9990        0.0000        0.0000                  ANTENNA: DELTA H/E/N
     1     1                                                WAVELENGTH FACT L1/2
     5    L1    L2    C1    P1    P2                        # / TYPES OF OBSERV
    15                                                      LEAP SECONDS
  2011     7    23     0     0    0.0000000     GPS         TIME OF FIRST OBS
                                                            END OF HEADER
 11  7 23  0  0  0.0000000  0  8G10G09G04G20G28G27G02G17
 127884710.69146  99650511.09543  24335658.7344                   24335670.0704
 118190815.51547  92096796.11744  22490963.9614                   22490973.4384
 105833355.55348  82467624.78746  20139404.6724                   20139413.5984
 126170906.03545  98315067.13543  24009530.5234                   24009541.1414
 112906206.55948  87978894.12445  21485337.5554                   21485345.9024
 118637371.06247  92444770.43245  22575942.7894                   22575951.6134
 120960222.81947  94254809.69744  23017965.5394                   23017973.7194
 111096316.952 7                  21140920.539
 11  7 23  0  0 30.0000000  0  8G10G09G04G20G28G27G02G17
 127791577.37346  99577939.89443  24317935.2424                   24317947.6884
 118137919.31747  92055578.32044  22480898.5314                   22480907.7114
 105794168.25248  82437089.24046  20131947.3914                   20131956.2114
 126183908.00946  98325198.58843  24012004.7274                   24012015.3524
 112942085.91448  88006852.04345  21492165.3594                   21492173.4024
 118606850.07047  92420987.85545  22570135.1414                   22570144.0594
 120869431.08347  94184062.95444  23000688.3054                   23000696.2034
 111123264.601 8                  21146048.797
 11  7 23  0  1  0.0000000  0  8G10G09G04G20G28G27G02G17
 127698360.89445  99505303.87543  24300196.9144                   24300208.7304
 118085607.41947  92014815.81144  22470943.6174                   22470953.0124
 105755543.27548  82406991.87546  20124597.4694                   20124606.1334
 126197412.38446  98335721.47843  24014574.6254                   24014585.0354
 112978322.53347  88035088.33645  21499060.8054                   21499069.0164
 118576805.75547  92397576.69345  22564417.4844                   22564426.8444
 120778864.47647  94113491.63345  22983453.9694                   22983461.9264
 111150330.871 7                  21151199.133
 11  7 23  0  1 30.0000000  0  8G10G09G04G20G28G27G02G17
 127605063.90146  99432605.12743  24282443.0704                   24282454.8054
 118033881.89247  91974510.22144  22461100.7584                   22461109.7274
 105717481.54448  82377333.39746  20117354.6804                   20117363.2704
 126211419.62846  98346636.17443  24017240.0474                   24017249.6884
 113014917.20648  88063603.65046  21506024.8594                   21506033.0704
 118547238.89247  92374537.57345  22558791.0164                   22558800.7584
 120688524.87647  94043097.20544  22966263.1414                   22966271.5864
 111177515.473 8                  21156372.531
 11  7 23  0  2  0.0000000  0  8G10G09G04G20G28G27G02G17
 127511689.36946  99359845.89042  24264673.0474                   24264685.5474
 117982744.49247  91934662.90044  22451369.0944                   22451378.4804
 105679983.57648  82348114.22046  20110218.7424                   20110227.9384
 126225929.67946  98357942.68043  24020000.8754                   24020011.0904
 113051870.61048  88092398.49345  21513056.8364                   21513064.3914
 118518150.19647  92351871.06245  22553255.6334                   22553264.9414
 120598413.57347  93972880.65645  22949115.7814                   22949123.5634
 111204817.422 8                  21161567.633
 11  7 23  0  2 30.0000000  0  8G10G09G04G20G28G27G02G17
 127418240.04146  99287028.36542  24246890.3054                   24246902.9024
 117932196.83047  91895275.10144  22441750.2584                   22441759.7304
 105643050.39048  82319335.13046  20103190.4924                   20103199.2464
 126240942.95146  98369641.31643  24022858.0164                   24022868.5784
 113089183.47348  88121473.43545  21520157.2894                   21520165.3404
 118489540.76347  92329577.98745  22547811.8984                   22547820.7074
 120508532.50547  93902843.50545  22932011.8444                   22932020.3444
 111232236.195 7                  21166785.086
 11  7 23  0  3  0.0000000  0  8G10G09G04G20G28G27G02G17
 127324718.81646  99214154.84243  24229094.5944                   24229106.5984
 117882240.48647  91856348.09744  22432244.1174                   22432253.3674
 105606682.60648  82290996.60646  20096269.8134                   20096278.6214
 126256459.71246  98381732.33143  24025811.2664                   24025821.5704
 113126855.82548  88150828.48845  21527326.6564                   21527334.2704
 118461411.16347  92307658.81345  22542458.9774                   22542467.6414
 120418883.39247  93832987.10445  22914951.5704                   22914959.5784
 111259771.167 8                  21172024.922
 11  7 23  0  3 30.0000000  0  8G10G09G04G20G28G27G02G17
 127231128.58446  99141227.52843  24211284.6414                   24211296.3014
 117832877.19547  91817883.22744  22422850.3364                   22422860.3014
 105570880.84248  82263099.14946  20089457.2734                   20089465.9804
 126272480.18846  98394215.85243  24028859.7114                   24028869.3794
 113164888.06848  88180463.98045  21534563.4144                   21534571.7464
 118433762.03847  92286114.02745  22537197.3524                   22537205.9264
 120329467.86047  93763312.71445  22897936.4614                   22897944.2464
 111287421.950 8                  21177286.555
 11  7 23  0  4  0.0000000  0  8G10G09G04G20G28G27G02G17
 127137471.76346  99068248.28743  24193462.2274                   24193473.5354
 117784108.38047  91779881.57944  22413569.9614                   22413579.5164
 105535645.38148  82235642.95446  20082752.2114                   20082760.9734
 126289004.61146  98407091.94643  24032004.9224                   24032014.4614
 113203280.97748  88210380.52346  21541869.3834                   21541877.4184
 118406593.93547  92264944.06345  22532027.1414                   22532036.4694
 120240287.29247  93693821.41445  22880966.4844                   22880974.3714
 111315187.150 8                  21182570.180
 11  7 23  0  4 30.0000000  0  8G10G09G04G20G28G27G02G17
 127043751.43446  98995219.56743  24175628.0084                   24175639.6454
 117735935.87447  91742344.60544  22404402.8524                   22404412.8524
 105500977.30648  82208628.88846  20076155.0864                   20076164.0274
 126306033.30446  98420361.06643  24035243.9924                   24035254.9574
 113242035.36848  88240578.74845  21549244.2974                   21549252.3014
 118379907.88547  92244149.71845  22526949.4454                   22526958.5704
 120151343.73147  93624514.79145  22864040.8134                   22864048.6214
 111343066.339 7                  21187875.789
 11  7 23  0  5  0.0000000  0  8G10G09G04G20G28G27G02G17
 126949970.37846  98922143.50543  24157781.4304                   24157792.8984
 117688361.43747  91705273.63544  22395350.2584                   22395359.2464
 105466877.12548  82182057.33446  20069666.0084                   20069674.7384
 126323566.22046  98434023.09643  24038580.9614                   24038591.2734
 113281151.60548  88271058.92345  21556687.7974                   21556695.7854
 118353704.33447  92223731.35945  22521962.7734                   22521972.0744
 120062638.94447  93555394.22745  22847161.1484                   22847168.5204
 111371059.458 7                  21193202.352
 11  7 23  0  5 30.0000000  0  8G10G09G04G20G28G27G02G17
 126856131.35646  98849022.26343  24139925.2274                   24139935.8094
 117641386.53847  91668669.83344  22386411.5704                   22386420.4184
 105433345.36948  82155928.69746  20063284.8984                   20063293.5394
 126341603.77546  98448078.32043  24042013.1724                   24042023.9024
 113320630.45348  88301821.64246  21564200.5944                   21564208.0004
 118327984.09047  92203689.59645  22517068.6564                   22517078.0004
 119974174.51447  93486460.96645  22830326.1484                   22830334.2194
 111399165.651 8                  21198550.797
 11  7 23  0  6  0.0000000  0  8G10G09G04G20G28G27G02G17
 126762237.42346  98775858.30543  24122056.8984                   24122068.9494
 117595012.33847  91632534.11944  22377586.2664                   22377596.1644
 105400382.55348  82130243.40046  20057012.4224                   20057021.0634
 126360146.04146  98462526.80843  24045542.0554                   24045552.4144
 113360471.90448  88332866.91045  21571782.0004                   21571790.0274
 118302747.63447  92184024.80845  22512266.0234                   22512275.4064
 119885952.09547  93417716.26245  22813538.3594                   22813546.3404
 111427384.087 8                  21203920.586
 11  7 23  0  6 30.0000000  0  8G10G09G04G20G28G27G02G17
 126668291.68545  98702653.97743  24104178.4694                   24104192.2814
 117549240.86347  91596868.05844  22368876.3364                   22368885.9494
 105367989.31148  82105001.92846  20050847.8834                   20050857.3954
 126379192.87045  98477368.50343  24049165.8054                   24049176.3324
 113400676.46048  88364195.10746  21579432.2194                   21579440.5704
 118277995.55147  92164737.45645  22507555.8054                   22507564.9064
 119797973.37947  93349161.49045  22796796.4224                   22796804.2934
 111455714.474 8                  21209311.844
 11  7 23  0  7  0.0000000  0  8G10G09G04G20G28G27G02G17
 126574297.20845  98629411.67743  24086293.1644                   24086305.2584
 117504073.39347  91561672.65444  22360281.0944                   22360291.0084
 105336166.10248  82080204.64546  20044792.1564                   20044801.5204
 126398744.48446  98492603.53543  24052886.3594                   24052896.4264
 113441244.98948  88395806.93145  21587152.1644                   21587160.6374
 118253728.59647  92145828.12745  22502938.2734                   22502947.5164
 119710239.80147  93280797.71145  22780100.8364                   22780109.4804
 111484156.101 8                  21214724.188
 11  7 23  0  7 30.0000000  0  8G10G09G04G20G28G27G02G17
 126480256.27545  98556133.20943  24068396.7974                   24068410.2304
 117459511.39447  91526949.03244  22351801.0554                   22351810.3014
 105304913.10748  82055851.67346  20038845.1414                   20038853.8594
 126418800.81046  98508231.80243  24056704.0314                   24056713.5864
 113482177.55548  88427702.40845  21594941.5634                   21594949.7544
 118229947.09047  92127297.08845  22498412.7814                   22498421.8714
 119622752.86747  93212626.13745  22763453.0474                   22763461.1454
 111512708.170 8                  21220157.367
 11  7 23  0  8  0.0000000  0  8G10G09G04G20G28G27G02G17
 126386172.16546  98482821.03543  24050492.8284                   24050505.9144
 117415556.42147  91492698.42744  22343436.8984                   22343445.7894
 105274231.11448  82031943.64246  20033006.8284                   20033015.5944
 126439361.98146  98524253.50643  24060616.8134                   24060626.1914
 113523474.69748  88459881.97645  21602800.1254                   21602808.2584
 118206651.80847  92109144.90445  22493979.8594                   22493989.0704
 119535514.43047  93144648.17745  22746852.1174                   22746859.7974
 111541370.345 8                  21225611.523
 11  7 23  0  8 30.0000000  0  8G10G09G04G20G28G27G02G17
 126292047.60546  98409477.39143  24032582.4694                   24032594.5634
 117372209.45547  91458921.59844  22335188.1334                   22335197.8134
 105244120.24548  82008480.64346  20027276.7814                   20027285.5944
 126460427.95746  98540668.57143  24064625.3284                   24064634.2034
 113565136.81348  88492345.93545  21610728.3984                   21610736.6024
 118183843.14947  92091371.91845  22489639.0704                   22489648.9064
 119448526.24447  93076865.23245  22730298.7894                   22730305.9774
 111570142.082 8                  21231086.609
 11  7 23  0  9  0.0000000  0  8G10G09G04G20G28G27G02G17
 126197885.32446  98336104.30343  24014664.4454                   24014675.5984
 117329472.26747  91425619.91045  22327055.2664                   22327064.8284
 105214581.01348  81985463.06946  20021655.2194                   20021664.4144
 126481998.66646  98557476.92843  24068730.2194                   24068739.4734
 113607164.16948  88525094.49645  21618726.0634                   21618734.3834
 118161521.77247  92073978.63045  22485391.6884                   22485400.6174
 119361789.65247  93009278.32745  22713793.2734                   22713801.2464
 111599022.438 7                  21236582.297
 11  7 23  0  9 30.0000000  0  8G10G09G04G20G28G27G02G17
 126103688.56746  98262704.34243  23996739.2344                   23996750.9574
 117287346.39147  91392794.55745  22319039.6644                   22319048.6994
 105185614.00848  81962891.39746  20016143.1804                   20016152.1954
 126504074.08646  98574678.52343  24072930.9064                   24072940.2814
 113649557.48148  88558128.21945  21626793.1724                   21626801.3134
 118139688.02247  92056965.31545  22481237.1094                   22481246.3834
 119275306.30647  92941888.76445  22697335.6564                   22697343.9494
 111628011.089 7                  21242098.664
 11  7 23  0 10  0.0000000  0  8G10G09G04G20G28G27G02G17
 126009460.15446  98189279.74943  23978807.4224                   23978818.7304
 117245832.85247  91360446.34045  22311139.6804                   22311149.0904
 105157219.10048  81940765.50646  20010739.6724                   20010748.6954
 126526654.12546  98592273.31043  24077228.3054                   24077237.1254
 113692316.71848  88591447.08345  21634930.1804                   21634938.0594
 118118342.12647  92040332.14645  22477175.0474                   22477184.1804
 119189077.57747  92874697.59745  22680927.4144                   22680934.9454
 111657107.496 7                  21247635.563
 11  7 23  0 10 30.0000000  0  8G10G09G04G20G28G27G02G17
 125915203.13046  98115832.80943  23960871.5634                   23960882.1564
 117204933.27147  91328576.52845  22303357.2734                   22303366.2464
 105129397.25648  81919086.15746  20005445.2114                   20005454.4614
 126549738.86246  98610261.45543  24081620.6644                   24081629.3674
 113735442.65748  88625051.68045  21643136.5164                   21643144.9064
 118097485.02347  92024079.86145  22473205.8524                   22473215.3324
 119103105.39147  92807706.34145  22664566.9304                   22664575.2384
 111686311.392 7                  21253192.680
 11  7 23  0 11  0.0000000  0  8G10G09G04G20G28G27G02G17
 125820920.28746  98042365.73943  23942929.4534                   23942940.9844
 117164648.52947  91297185.81245  22295690.7664                   22295699.8754
 105102148.30748  81897853.22246  20000260.3984                   20000268.7704
 126573328.01546  98628642.62643  24086109.7894                   24086119.3244
 113778935.15648  88658941.90945  21651413.0004                   21651420.8754
 118077116.86347  92008208.58245  22469330.2194                   22469339.2154
 119017391.18347  92740916.09445  22648256.4924                   22648263.9344
 111715621.683 7                  21258770.227
 11  7 23  0 11 30.0000000  0  8G10G09G04G20G28G27G02G17
 125726614.57546  97968880.86043  23924983.8594                   23924994.7974
 117124979.93747  91266275.22545  22288142.2974                   22288151.9924
 105075472.51848  81877066.89646  19995184.0864                   19995192.5204
 126597421.64946  98647416.86643  24090694.1414                   24090702.6174
 113822794.97848  88693118.36445  21659759.6484                   21659767.3054
 118057238.11247  91992718.64645  22465547.4384                   22465556.4574
 118931936.65647  92674328.21645  22631994.8054                   22632002.6644
 111745038.337 8                  21264368.617
 11  7 23  0 12  0.0000000  0  8G10G09G04G20G28G27G02G17
 125632289.09846  97895380.59243  23907034.4694                   23907045.5594
 117085928.52347  91235845.54945  22280710.9144                   22280720.0594
 105049370.12148  81856727.37046  19990216.6564                   19990225.3834
 126622019.37846  98666583.91843  24095375.8284                   24095383.6884
 113867022.09848  88727581.02845  21668175.2274                   21668183.6954
 118037848.95347  91977610.21145  22461857.4844                   22461866.8634
 118846743.14347  92607943.71645  22615782.7584                   22615790.7424
 111774560.421 7                  21269986.633
 11  7 23  0 12 30.0000000  0  8G10G09G04G20G28G27G02G17
 125537946.97946  97821867.30943  23889081.9614                   23889092.8134
 117047495.99547  91205898.13345  22273396.9924                   22273406.7664
 105023841.46248  81836834.91746  19985358.8444                   19985367.8094
 126647121.04546  98686143.60943  24100151.8134                   24100161.8444
 113911617.23348  88762330.46145  21676661.5234                   21676669.5124
 118018949.72347  91962883.53145  22458261.1954                   22458270.8134
 118761812.23647  92541763.83745  22599621.3444                   22599628.9654
 111804187.490 8                  21275624.195
 11  7 23  0 13  0.0000000  0  8G10G09G04G20G28G27G02G17
 125443590.90446  97748343.20343  23871126.0004                   23871137.0124
 117009683.16947  91176433.58045  22266201.8524                   22266211.2304
 104998886.51748  81817389.51146  19980610.1724                   19980619.1334
 126672726.47046  98706095.91843  24105024.6724                   24105033.2114
 113956580.10248  88797366.43845  21685217.7424                   21685225.9384
 118000540.78847  91948538.90945  22454758.4304                   22454767.7304
 118677145.47147  92475789.78245  22583509.6024                   22583517.2504
 111833919.081 8                  21281281.828
 11  7 23  0 13 30.0000000  0  8G10G09G04G20G28G27G02G17
 125349224.23546  97674810.87243  23853168.2734                   23853180.0944
 116972491.36547  91147452.94645  22259124.9064                   22259133.7074
 104974505.89348  81798391.62646  19975970.8754                   19975979.3794
 126698835.60446  98726440.73243  24109992.5944                   24110002.8634
 114001911.61848  88832689.66845  21693844.0554                   21693852.1764
 117982622.92547  91934576.92045  22451348.5784                   22451357.6054
 118592744.50048  92410022.84545  22567448.6254                   22567455.8244
 111863754.950 8                  21286959.336
 11  7 23  0 14  0.0000000  0  8G10G09G04G20G28G27G02G17
 125254849.71446  97601272.42043  23835209.3204                   23835220.9494
 116935921.77847  91118957.16245  22252165.6804                   22252175.0124
 104950699.63948  81779841.30546  19971440.4144                   19971449.0274
 126725448.14946  98747177.76243  24115057.5234                   24115065.9884
 114047611.83848  88868300.19045  21702540.8754                   21702548.5274
 117965196.12447  91920997.59245  22448031.6334                   22448041.7734
 118508610.71847  92344464.08945  22551438.3834                   22551446.3324
 111893694.395 8                  21292656.508
 11  7 23  0 14 30.0000000  0  8G10G09G04G20G28G27G02G17
 125160470.40546  97527730.26143  23817249.2734                   23817260.8594
 116899975.45547  91090947.04845  22245325.0394                   22245334.7664
 104927467.79748  81761738.57946  19967019.6414                   19967028.3594
 126752563.91646  98768306.87443  24120217.2974                   24120225.8794
 114093680.92248  88904198.14945  21711307.4144                   21711315.5664
 117948260.70047  91907801.15045  22444809.3914                   22444818.6954
 118424745.75847  92279114.83445  22535479.4144                   22535487.0004
 111923736.985 8                  21298373.617
 11  7 23  0 15  0.0000000  0  8G10G09G04G20G28G27G02G17
 125066089.40546  97454186.70343  23799288.9384                   23799300.1094
 116864653.52547  91063423.45544  22238603.3284                   22238613.1914
 104904810.64948  81744083.66946  19962708.1564                   19962716.9774
 126780182.26646  98789827.64143  24125472.4064                   24125482.3754
 114140119.08748  88940383.70045  21720144.0704                   21720152.1914
 117931816.90047  91894987.78845  22441680.1644                   22441689.9104
 118341151.26947  92213976.30245  22519571.4614                   22519579.4734
 111953882.301 8                  21304110.273
 11  7 23  0 15 30.0000000  0  8G10G09G04G20G28G27G02G17
 124971709.56847  97380644.06043  23781330.1644                   23781339.7704
 116829956.64247  91036386.93345  22232000.9844                   22232010.7504
 104882727.49848  81726876.02846  19958505.8204                   19958514.4654
 126808303.07046  98811739.99143  24130824.2664                   24130833.0124
 114186926.42448  88976856.93645  21729051.2344                   21729059.3094
 117915864.54247  91882557.35545  22438644.7114                   22438653.7074
 118257828.13647  92149049.23945  22503715.8284                   22503723.6564
 111984129.574 8                  21309865.984
 11  7 23  0 16  0.0000000  0  8G10G09G04G20G28G27G02G17
 124877334.15246  97307104.87543  23763370.0784                   23763381.3134
 116795885.99747  91009838.37045  22225517.9224                   22225526.6724
 104861219.24348  81710116.35346  19954412.8524                   19954422.0044
 126836926.13846  98834043.72743  24136270.1954                   24136280.5664
 114234103.40948  89013618.17945  21738028.4534                   21738036.9804
 117900404.34447  91870510.43045  22435702.6954                   22435712.0784
 118174778.25447  92084335.07845  22487911.8594                   22487919.6374
 112014478.756 7                  21315641.156
 11  7 23  0 16 30.0000000  0  8G10G09G04G20G28G27G02G17
 124782966.00546  97233571.35644  23745412.8134                   23745423.8554
 116762442.56047  90983778.57144  22219153.7734                   22219163.0204
 104840285.54348  81693804.39646  19950429.5474                   19950438.0314
 126866050.95546  98856738.34542  24141813.1174                   24141822.4144
 114281650.12347  89050667.53645  21747076.6804                   21747084.8164
 117885436.44247  91858847.11045  22432854.3914                   22432863.7854
 118092003.00047  92019834.92545  22472160.6334                   22472168.2034
 112044929.303 7                  21321435.750
 11  7 23  0 17  0.0000000  0  8G10G09G04G20G28G27G02G17
 124688608.46646  97160046.11244  23727457.0164                   23727468.5434
 116729627.42547  90958208.33844  22212909.1024                   22212918.1684
 104819926.43548  81677940.16446  19946555.0704                   19946564.1254
 126895676.97346  98879823.54543  24147451.3834                   24147459.6724
 114329566.95448  89088005.29145  21756194.8834                   21756202.7074
 117870960.98947  91847567.50345  22430100.2274                   22430109.2304
 118009503.86447  91955549.92645  22456461.1954                   22456468.9534
 112075480.724 7                  21327249.766
 11  7 23  0 17 30.0000000  0  8G10G09G04G20G28G27G02G17
 124594264.29646  97086531.26343  23709504.2274                   23709514.8634
 116697441.14947  90933128.13244  22206783.6724                   22206793.2344
 104800141.62148  81662523.44046  19942790.2734                   19942798.7624
 126925804.03346  98903299.16943  24153184.0784                   24153192.8014
 114377853.38248  89125631.05345  21765383.6884                   21765391.5664
 117856977.75447  91836671.45945  22427438.9774                   22427448.2154
 117927282.13947  91891481.09145  22440814.9304                   22440822.3524
 112106132.091 7                  21333082.086
 11  7 23  0 18  0.0000000  0  8G10G09G04G20G28G27G02G17
 124499936.70846  97013029.37543  23691554.1174                   23691564.2304
 116665884.87947  90908538.83244  22200779.3674                   22200788.2194
 104780931.36548  81647554.41546  19939134.5164                   19939142.8204
 126956431.61846  98927164.84543  24159010.9534                   24159021.8164
 114426510.14548  89163545.39745  21774642.3674                   21774650.5204
 117843487.19047  91826159.31745  22424872.0634                   22424881.5824
 117845339.37347  91827629.61545  22425221.8594                   22425230.0704
 112136883.258 7                  21338933.813
 11  7 23  0 18 30.0000000  0  8G10G09G04G20G28G27G02G17
 124405628.76446  96939542.74343  23673607.2114                   23673619.3714
 116634959.83947  90884441.41244  22194894.3204                   22194903.6094
 104762295.88148  81633033.26446  19935588.2344                   19935596.7814
 126987559.32146  98951420.18043  24164935.6024                   24164944.7734
 114475537.32748  89201748.37545  21783972.1094                   21783980.4224
 117830489.52747  91816031.24445  22422398.3984                   22422407.9264
 117763677.32847  91763996.90145  22409681.9304                   22409689.1214
 112167734.148 8                  21344804.523
 11  7 23  0 19  0.0000000  0  8G10G09G04G20G28G27G02G17
 124311343.51947  96866073.81443  23655665.0474                   23655676.1804
 116604666.31247  90860836.07044  22189129.8594                   22189139.2894
 104744234.84048  81618959.73346  19932151.5864                   19932160.1564
 127019186.90746  98976065.00043  24170953.5314                   24170962.3634
 114524934.90348  89240239.94345  21793372.4534                   21793380.7384
 117817984.84047  91806287.31645  22420018.8674                   22420028.6564
 117682297.34647  91700583.95945  22394195.7814                   22394203.5204
 112198684.447 8                  21350694.406
 11  7 23  0 19 30.0000000  0  8G10G09G04G20G28G27G02G17
 124217084.14646  96792625.06243  23637727.7114                   23637739.7584
 116575005.16647  90837723.49944  22183485.3204                   22183494.3014
 104726747.82748  81605333.49146  19928823.8594                   19928832.2304
 127051313.55646  99001098.71743  24177067.1094                   24177076.3714
 114574702.91148  89279020.17345  21802843.0864                   21802851.1334
 117805972.97347  91796927.40545  22417732.9454                   22417742.7814
 117601200.80147  91637391.89245  22378763.6174                   22378771.0704
 112229733.687 8                  21356603.172
 11  7 23  0 20  0.0000000  0  8G10G09G04G20G28G27G02G17
 124122853.74446  96719198.85443  23619796.0704                   23619808.3874
 116545977.24947  90815104.34844  22177961.3134                   22177970.6374
 104709834.98448  81592154.66046  19925605.5634                   19925614.1724
 127083938.81546  99026520.99343  24183275.3984                   24183285.5744
 114624841.72748  89318089.35045  21812383.8524                   21812391.7894
 117794454.15547  91787951.68545  22415541.4144                   22415550.9804
 117520388.93747  91574421.64245  22363385.5004                   22363393.0044
 112260880.789 8                  21362530.148
 11  7 23  0 20 30.0000000  0  8G10G09G04G20G28G27G02G17
 124028655.45346  96645797.68543  23601870.4924                   23601882.5314
 116517583.50147  90792979.36244  22172558.3444                   22172567.4064
 104693496.32948  81579423.24046  19922496.1884                   19922505.0594
 127117062.49046  99052331.63543  24189578.8204                   24189587.8634
 114675351.38548  89357447.49545  21821995.6884                   21822003.3204
 117783428.56847  91779360.30245  22413442.7814                   22413452.5704
 117439863.26847  91511674.41745  22348061.6414                   22348069.5864
 112292126.072 8                  21368475.711
 11  7 23  0 21  0.0000000  0  8G10G09G04G20G28G27G02G17
 123934492.06646  96572423.79643  23583951.4924                   23583963.9844
 116489824.54347  90771349.02344  22167276.1334                   22167284.9964
 104677731.32448  81567138.81946  19919496.2114                   19919505.0044
 127150683.78046  99078530.05043  24195976.3054                   24195986.4774
 114726231.91248  89397094.62945  21831678.3204                   21831686.3244
 117772896.02547  91771153.11145  22411438.5634                   22411448.6024
 117359625.13847  91449151.24645  22332793.0704                   22332800.6954
 112323468.963 8                  21374440.188
 11  7 23  0 21 30.0000000  0  8G10G09G04G20G28G27G02G17
 123840366.91147  96499079.59443  23566040.7274                   23566052.1214
 116462701.14947  90750213.90444  22162114.3594                   22162123.6414
 104662539.99448  81555301.42446  19916605.2034                   19916614.3444
 127184802.17845  99105115.77143  24202468.9844                   24202478.9304
 114777483.42248  89437030.83245  21841430.9144                   21841439.4534
 117762856.45647  91763330.04745  22409528.4224                   22409537.8594
 117279676.00547  91386853.26745  22317578.9844                   22317587.2234
 112354909.505 8                  21380423.000
 11  7 23  0 22  0.0000000  0  8G10G09G04G20G28G27G02G17
 123746283.27747  96425767.77844  23548138.9774                   23548148.8134
 116436213.69147  90729574.34844  22157074.1724                   22157083.3244
 104647921.95648  81543910.74946  19913823.6024                   19913832.6804
 127219416.97946  99132088.31443  24209056.0004                   24209065.4144
 114829105.72548  89477255.96145  21851254.4454                   21851263.0824
 117753309.72947  91755891.03545  22407712.1094                   22407721.7734
 117200017.07947  91324781.41945  22302421.0084                   22302428.3914
 112386446.785 8                  21386424.094
 11  7 23  0 22 30.0000000  0  8G10G09G04G20G28G27G02G17
 123652244.18247  96352490.69244  23530242.4144                   23530252.7854
 116410362.79647  90709430.79944  22152155.2734                   22152163.9924
 104633876.89648  81532966.53846  19911151.1414                   19911159.7384
 127254527.41446  99159447.07143  24215737.6484                   24215747.2424
 114881098.85148  89517770.04745  21861148.1884                   21861156.4844
 117744255.95647  91748836.12945  22405988.8834                   22405997.8284
 117120649.73147  91262936.78845  22287317.6174                   22287325.0984
 112418080.102 8                  21392443.891
 11  7 23  0 23  0.0000000  0  8G10G09G04G20G28G27G02G17
 123558252.70047  96279250.61844  23512356.6644                   23512366.9844
 116385149.25547  90689783.88444  22147356.8914                   22147366.3164
 104620404.49248  81522468.56446  19908587.4384                   19908596.3754
 127290132.89646  99187191.55842  24222513.8444                   24222523.4104
 114933462.69647  89558573.00745  21871112.8364                   21871121.3284
 117735695.17147  91742165.36945  22404359.8364                   22404369.6054
 117041575.33348  91201320.41845  22272269.8984                   22272277.7814
 112449809.861 8                  21398482.148
 11  7 23  0 23 30.0000000  0  8G10G09G04G20G28G27G02G17
 123464311.90146  96206050.09743  23494479.7274                   23494490.7034
 116360573.56547  90670634.01144  22142680.3914                   22142689.3834
 104607504.49848  81512416.62846  19906132.5554                   19906141.2664
 127326232.95946  99215321.43142  24229382.7894                   24229392.5164
 114986197.47148  89599664.99945  21881147.9144                   21881156.0514
 117727627.09047  91735878.53545  22402824.7504                   22402834.3714
 116962795.30447  91139933.43545  22257278.9614                   22257286.4384
 112481635.337 8                  21404538.172
 11  7 23  0 24  0.0000000  0  8G10G09G04G20G28G27G02G17
 123370425.01646  96132891.60643  23476613.7504                   23476624.4804
 116336636.16847  90651981.50144  22138125.5634                   22138134.4614
 104595176.45148  81502810.36146  19903786.4144                   19903795.3524
 127362826.73346  99243836.01042  24236345.9224                   24236355.7894
 115039303.11348  89641045.98945  21891253.8984                   21891262.2154
 117720051.66648  91729975.59545  22401383.1254                   22401392.5864
 116884310.74848  91078776.69445  22242343.5084                   22242351.2934
 112513556.116 8                  21410612.641
 11  7 23  0 24 30.0000000  0  8G10G09G04G20G28G27G02G17
 123276595.26147  96059777.57944  23458759.2974                   23458769.4104
 116313337.78647  90633826.91844  22133691.7664                   22133700.8094
 104583420.29648  81493649.73146  19901549.3914                   19901558.3554
 127399913.57345  99272734.89643  24243403.7274                   24243413.2344
 115092779.54448  89682715.89845  21901429.8674                   21901438.4104
 117712968.76147  91724456.43345  22400034.7814                   22400044.5944
 116806123.32648  91017851.48245  22227464.9534                   22227472.8094
 112545571.840 7                  21416705.086
 11  7 23  0 25  0.0000000  0  8G10G09G04G20G28G27G02G17
 123182826.03746  95986710.75344  23440915.0704                   23440926.1524
 116290678.54947  90616170.36645  22129379.4924                   22129389.0204
 104572235.55348  81484934.35646  19899420.9614                   19899429.7504
 127437493.01246  99302017.53743  24250554.4614                   24250565.0434
 115146626.89248  89724674.82245  21911676.3594                   21911685.1214
 117706378.13547  91719320.86745  22398781.1094                   22398790.6024
 116728234.22148  90957158.72045  22212642.9694                   22212650.7154
 112577682.443 8                  21422814.984
 11  7 23  0 25 30.0000000  0  8G10G09G04G20G28G27G02G17
 123089120.21647  95913693.31844  23423083.2194                   23423093.4804
 116268659.14547  90599012.40045  22125189.7424                   22125198.6884
 104561621.76948  81476663.88246  19897401.3134                   19897410.1094
 127475564.22846  99331683.33243  24257800.2664                   24257809.5234
 115200845.05048  89766922.70045  21921994.5164                   21922002.6764
 117700279.61947  91714568.77045  22397620.6024                   22397629.9924
 116650644.89448  90896699.56145  22197878.5704                   22197885.9264
 112609888.137 8                  21428943.891
 11  7 23  0 26  0.0000000  0  8G10G09G04G20G28G27G02G17
 122995480.99246  95840727.78344  23405263.9774                   23405274.5984
 116247279.85747  90582353.21645  22121121.5474                   22121130.8054
 104551578.32648  81468837.82546  19895489.8984                   19895499.1094
 127514126.17946  99361731.55743  24265137.5164                   24265148.2854
 115255433.64947  89809459.22545  21932381.9454                   21932389.9774
 117694672.95147  91710199.91145  22396553.7894                   22396562.7854
 116573356.28348  90836474.71445  22183170.7274                   22183178.2704
 112642187.686 8                  21435090.250
 11  7 23  0 26 30.0000000  0  8G10G09G04G20G28G27G02G17
 122901911.72946  95767816.79443  23387458.1024                   23387470.1524
 116226541.15647  90566193.19045  22117174.7034                   22117184.0234
 104542105.09548  81461456.09546  19893687.3134                   19893696.3244
 127553178.29146  99392161.77143  24272569.1334                   24272578.4264
 115310392.86147  89852284.56945  21942840.2274                   21942848.8794
 117689558.12947  91706214.32345  22395580.6094                   22395590.1524
 116496369.89747  90776485.36745  22168520.7814                   22168528.2154
 112674581.256 8                  21441254.289
 11  7 23  0 27  0.0000000  0  8G10G09G04G20G28G27G02G17
 122808415.73446  95694962.87443  23369666.1094                   23369677.5084
 116206443.32447  90550532.53945  22113350.4144                   22113359.3444
 104533201.64248  81454518.34846  19891993.0004                   19892001.8364
 127592719.72046  99422973.24343  24280093.7584                   24280103.4534
 115365722.69647  89895398.68445  21953369.2194                   21953377.9694
 117684934.83947  91702611.74645  22394700.4144                   22394710.0234
 116419687.13847  90716732.60345  22153928.2424                   22153935.6334
 112707068.538 8                  21447436.680
 11  7 23  0 27 30.0000000  0  8G10G09G04G20G28G27G02G17
 122714995.72546  95622168.07743  23351887.8134                   23351898.3404
 116186986.73847  90535371.55745  22109647.8984                   22109656.9064
 104524866.77948  81448023.65046  19890407.3134                   19890415.7464
 127632749.42246  99454165.20543  24287710.9224                   24287721.1684
 115421422.39647  89938801.01245  21963968.7114                   21963977.5514
 117680802.51647  91699391.74945  22393913.8674                   22393923.5354
 116343308.66447  90657216.95645  22139394.0864                   22139401.7544
 112739648.875 8                  21453636.188
 11  7 23  0 28  0.0000000  0  8G10G09G04G20G28G27G02G17
 122621654.98946  95549435.16443  23334125.7894                   23334137.4304
 116168171.56647  90520710.38545  22106067.2584                   22106076.5434
 104517100.28248  81441971.85546  19888928.8984                   19888937.8524
 127673266.77446  99485737.11243  24295421.8834                   24295431.4384
 115477492.11347  89982491.65745  21974638.5554                   21974646.5204
 117677160.76147  91696553.99345  22393221.1254                   22393230.4264
 116267235.94747  90597939.56045  22124917.8984                   22124924.9184
 112772321.933 8                  21459854.258
 11  7 23  0 28 30.0000000  0  8G10G09G04G20G28G27G02G17
 122528396.77046  95476766.46444  23316380.2894                   23316392.6054
 116149998.19647  90506549.31045  22102608.8984                   22102618.4924
 104509901.91348  81436362.73146  19887559.2274                   19887568.1024
 127714270.94746  99517688.34943  24303224.3134                   24303234.2424
 115533931.93247  90026470.71445  21985378.9304                   21985386.8714
 117674009.54747  91694098.49245  22392621.8364                   22392630.8364
 116191470.63647  90538901.69845  22110500.1174                   22110507.6764
 112805087.988 8                  21466089.203
 11  7 23  0 29  0.0000000  0  8G10G09G04G20G28G27G02G17
 122435224.20146  95404164.50444  23298650.7424                   23298660.9774
 116132466.82947  90492888.48945  22099273.2734                   22099282.4264
 104503270.91148  81431195.73346  19886297.4454                   19886306.1884
 127755761.11446  99550018.39443  24311119.7424                   24311129.2304
 115590741.36847  90070737.79045  21996189.2344                   21996197.0944
 117671348.52547  91692024.94945  22392115.4224                   22392124.7074
 116116013.53747  90480104.01045  22096141.2504                   22096148.1254
 112837946.520 8                  21472342.008
 11  7 23  0 29 30.0000000  0  8G10G09G04G20G28G27G02G17
 122342141.04147  95331632.27644  23280937.0004                   23280947.5944
 116115577.64247  90479728.06945  22096059.2274                   22096068.6294
 104497206.85348  81426470.50446  19885143.2424                   19885152.3524
 127797736.17546  99582726.19743  24319107.3204                   24319117.6294
 115647920.53247  90115292.94745  22007070.0084                   22007078.0164
 117669177.40147  91690333.17145  22391702.2194                   22391711.6374
 116040866.11447  90421547.60645  22081840.7974                   22081848.1214
 112870897.936 8                  21478612.234
 11  7 23  0 30  0.0000000  0  8G10G09G04G20G28G27G02G17
 122249150.16446  95259171.94344  23263241.6174                   23263252.3554
 116099330.70247  90467068.09045  22092967.8444                   22092977.1294
 104491708.76448  81422186.28146  19884097.2034                   19884106.2934
 127840195.20346  99615811.16843  24327187.0864                   24327195.5784
 115705468.98547  90160135.85245  22018021.3134                   22018029.5824
 117667495.72247  91689022.75445  22391382.2424                   22391391.6054
 115966029.36547  90363233.29845  22067599.9694                   22067607.0204
 112903940.788 8                  21484899.930
 11  7 23  0 30 30.0000000  0  8G10G09G04G20G28G27G02G17
 122156254.64446  95186785.89344  23245564.3834                   23245575.3244
 116083726.21047  90454908.73245  22089998.0314                   22090007.8674
 104486776.14348  81418342.68846  19883158.8054                   19883167.8244
 127883137.29446  99649272.49643  24335358.8984                   24335368.4454
 115763386.59247  90205266.42845  22029042.9614                   22029050.9344
 117666303.09147  91688093.41945  22391155.2814                   22391164.9144
 115891504.52347  90305162.02945  22053418.0864                   22053425.5124
 112937075.258 8                  21491205.727
 11  7 23  0 31  0.0000000  0  8G10G09G04G20G28G27G02G17
 122063458.10847  95114476.92844  23227905.8594                   23227915.7424
 116068764.44547  90443250.19745  22087150.8754                   22087160.4494
 104482408.56248  81414939.39046  19882327.6024                   19882336.1954
 127926561.36446  99683109.43443  24343621.5864                   24343632.2624
 115821673.41347  90250684.69045  22040134.2974                   22040142.0514
 117665599.32247  91687545.01245  22391021.3284                   22391030.8444
 115817292.90147  90247334.84445  22039296.2504                   22039303.2504
 112970301.537 8                  21497528.352
 11  7 23  0 31 30.0000000  0  8G10G09G04G20G28G27G02G17
 121970763.33247  95042247.26844  23210266.8364                   23210275.9384
 116054445.31947  90432092.42145  22084426.3834                   22084435.4884
 104478604.89848  81411975.49746  19881603.7584                   19881612.6564
 127970466.51946  99717321.18043  24351977.6024                   24351987.0314
 115880328.69647  90296390.06945  22051296.0084                   22051304.4384
 117665383.68947  91687376.97645  22390980.3984                   22390989.5354
 115743395.70947  90189752.64645  22025234.3204                   22025241.4734
 113003619.270 8                  21503868.422
 11  7 23  0 32  0.0000000  0  8G10G09G04G20G28G27G02G17
 121878173.89847  94970099.76744  23192646.9614                   23192657.9964
 116040769.06347  90421435.57945  22081823.7194                   22081833.5514
 104475364.84248  81409450.78346  19880986.9384                   19880996.2304
 128014851.73747  99751907.06943  24360423.2814                   24360432.8204
 115939352.56847  90342382.66145  22062527.8284                   22062535.9184
 117665655.87947  91687589.05845  22391032.1174                   22391041.6214
 115669814.10247  90132416.36545  22011231.9064                   22011239.0704
 113037028.363 7                  21510226.016
 11  7 23  0 32 30.0000000  0  8G10G09G04G20G28G27G02G17
 121785693.19846  94898036.93944  23175047.7274                   23175059.7464
 116027735.68147  90411279.66245  22079343.3284                   22079352.6174
 104472687.66648  81407364.67346  19880477.6094                   19880486.5824
 128059716.07946  99786866.26243  24368960.4614                   24368969.9264
 115998744.48147  90388662.03145  22073829.5394                   22073838.4454
 117666415.41347  91688180.88445  22391176.6414                   22391186.0594
 115596549.05347  90075326.74545  21997289.9694                   21997296.9924
 113070528.188 7                  21516600.727
 11  7 23  0 33  0.0000000  0  9G10G12G09G04G20G28G27G02G17
 121693324.64547  94826061.54144  23157470.9384                   23157481.7194
 129460539.80916                  24635532.367
 116015345.51947  90401624.96245  22076985.8134                   22076995.2274
 104470572.97648  81405716.86946  19880075.3364                   19880084.2814
 128105059.00046  99822198.39843  24377589.4694                   24377598.8094
 116058504.78247  90435228.45645  22085201.4224                   22085210.8834
 117667662.41147  91689152.55245  22391414.4304                   22391423.6024
 115523602.35047  90018485.18445  21983408.8284                   21983416.2384
 113104119.437 7                  21522992.969
 11  7 23  0 33 30.0000000  0  9G10G12G09G04G20G28G27G02G17
 121601071.47447  94754176.03244  23139916.1094                   23139925.9104
 129363676.999 6                  24617099.469
 116003598.42647  90392471.36245  22074750.2274                   22074759.3554
 104469020.01548  81404506.77346  19879779.4694                   19879788.9614
 128150879.21446  99857902.41443  24386308.9224                   24386317.9454
 116118633.12847  90482081.66145  22096643.3754                   22096652.6094
 117669396.12547  91690503.46845  22391744.3134                   22391753.6134
 115450975.19648  89961892.63045  21969588.3134                   21969595.4884
 113137801.597 7                  21529402.703
 11  7 23  0 34  0.0000000  0  9G10G12G09G04G20G28G27G02G17
 121508936.53347  94682382.63844  23122383.9614                   23122393.9184
 129266793.894 6                  24598663.141
 115992494.19947  90383818.69745  22072637.3524                   22072646.8634
 104468027.38548  81403733.30746  19879590.8594                   19879599.4184
 128197175.26346  99893977.30643  24395117.7974                   24395126.8524
 116179128.64547  90529220.97345  22108155.5864                   22108164.4384
 117671615.53947  91692232.86545  22392165.9774                   22392176.0434
 115378668.13047  89905549.48845  21955828.8444                   21955835.8914
 113171574.911 7                  21535829.281
 11  7 23  0 34 30.0000000  0  9G10G12G09G04G20G28G27G02G17
 121416923.12747  94610683.93544  23104873.7974                   23104884.2504
 129169892.053 6                  24580223.805
 115982032.34547  90375666.57845  22070646.5944                   22070655.4104
 104467594.29248  81403395.83046  19879508.4064                   19879517.1294
 128243946.05546  99930422.04543  24404019.7424                   24404028.4964
 116239990.85747  90576646.03445  22119737.3134                   22119745.7384
 117674319.83647  91694340.07145  22392680.9924                   22392690.6334
 115306681.94947  89849456.40645  21942130.5704                   21942137.7774
 113205437.877 7                  21542273.688
 11  7 23  0 35  0.0000000  0  9G10G12G09G04G20G28G27G02G17
 121325034.15046  94539082.19744  23087387.7424                   23087398.3674
 129072973.160 6                  24561780.195
 115972212.55047  90368014.76845  22068777.8984                   22068787.4304
 104467719.42848  81403493.34446  19879532.4384                   19879540.8954
 128291190.26246  99967235.68142  24413009.0394                   24413018.8094
 116301219.29647  90624356.48045  22131388.8054                   22131397.5514
 117677508.13847  91696824.42245  22393287.7194                   22393297.0124
 115235017.79947  89793614.23345  21928492.7114                   21928500.3484
 113239390.413 7                  21548734.539
 11  7 23  0 35 30.0000000  0  9G10G12G09G04G20G28G27G02G17
 121233273.46446  94467580.40844  23069926.1564                   23069936.5314
 128976038.660 6                  24543334.008
 115963034.88447  90360863.33945  22067031.4774                   22067041.1294
 104468402.46648  81404025.58046  19879662.3054                   19879671.2974
 128338906.66945 100004417.28142  24422088.5314                   24422098.4614
 116362814.17547  90672352.43745  22143109.4534                   22143118.7504
 117681180.38847  91699685.88445  22393986.1954                   22393996.0314
 115163676.99647  89738024.04445  21914917.2664                   21914924.5004
 113273432.629 8                  21555212.625
 11  7 23  0 36  0.0000000  0  9G10G12G09G04G20G28G27G02G17
 121141644.20146  94396181.05144  23052489.7274                   23052499.7304
 128879090.678 6                  24524885.797
 115954499.17747  90354212.13345  22065407.1254                   22065416.6524
 104469642.42048  81404991.77946  19879898.0944                   19879906.9344
 128387094.50646 100041966.22842  24431257.8054                   24431269.0904
 116424774.35347  90720633.04145  22154900.9064                   22154908.9384
 117685335.80247  91702923.83645  22394777.4064                   22394786.5434
 115092660.40347  89682686.46945  21901403.0944                   21901410.7114
 113307564.843 7                  21561707.750
 11  7 23  0 36 30.0000000  0  9G10G12G09G04G20G28G27G02G17
 121050149.42847  94324886.51644  23035078.7344                   23035089.1134
 128782130.501 6                  24506435.055
 115946605.13947  90348060.92745  22063905.1954                   22063914.3594
 104471438.12248  81406391.03246  19880239.5704                   19880248.6254
 128435752.38146 100079881.45142  24440517.8834                   24440528.1024
 116487099.81447  90769198.29145  22166761.1724                   22166769.3204
 117689973.76747  91706537.79545  22395659.7034                   22395669.6604
 115021969.17248  89627602.42945  21887950.9844                   21887958.0634
 113341786.671 7                  21568219.547
 11  7 23  0 37  0.0000000  0  9G10G12G09G04G20G28G27G02G17
 120958792.60947  94253699.44244  23017694.2504                   23017704.5744
 128685160.294 6                  24487982.648
 115939352.64347  90342409.63645  22062524.7894                   22062534.2584
 104473789.03048  81408222.90546  19880687.3754                   19880696.0904
 128484879.19045 100118162.10452  24449866.2424                   24449876.9884
 116549790.44147  90818048.09445  22178690.6094                   22178698.5554
 117695093.59247  91710527.22945  22396633.9224                   22396643.4184
 114951604.52248  89572772.85746  21874561.1484                   21874568.3364
 113376098.210 7                  21574749.305
 11  7 23  0 37 30.0000000  0  9G10G12G09G04G20G28G27G02G17
 120867577.24847  94182622.59044  23000335.7974                   23000346.6604
 128588181.615 6                  24469527.469
 115932741.88347  90337258.40045  22061266.7274                   22061276.4734
 104476694.50248  81410486.90446  19881240.1414                   19881249.3244
 128534473.92455 100156807.17052  24459303.8834                   24459314.6414
 116612845.74747  90867182.07645  22190690.0864                   22190698.3954
 117700694.99247  91714891.91545  22397699.9924                   22397709.2774
 114881567.89148  89518198.90646  21861233.1724                   21861241.1644
 113410499.234 7                  21581295.555
 11  7 23  0 38  0.0000000  0  9G10G12G09G04G20G28G27G02G17
 120776506.19146  94111658.18244  22983006.0554                   22983015.9414
 128491195.915 6                  24451071.859
 115926771.60347  90332606.25045  22060131.1804                   22060140.4654
 104480152.98748  81413181.83146  19881898.2344                   19881906.8284
 128584535.10155 100195815.89352  24468830.3754                   24468840.7974
 116676265.11647  90916599.71945  22202757.8914                   22202766.2624
 117706776.61347  91719630.80345  22398857.5864                   22398866.2704
 114811859.40648  89463880.63945  21847968.4144                   21847975.5124
 113444989.127 7                  21587858.836
 11  7 23  0 38 30.0000000  0  9G10G12G09G04G20G28G27G02G17
 120685582.80146  94040808.86544  22965704.3364                   22965713.7934
 128394204.882 6                  24432615.352
 115921442.04147  90328453.35745  22059116.6564                   22059126.1804
 104484163.43348  81416306.84746  19882661.6484                   19882670.2344
 128635061.29645 100235186.97242  24478445.0394                   24478456.0004
 116740047.87447  90966300.52544  22214894.8674                   22214903.9304
 117713338.10647  91724743.61845  22400105.5704                   22400115.4574
 114742480.43448  89409819.13445  21834766.2114                   21834773.2344
 113479568.035 7                  21594438.859
 11  7 23  0 39  0.0000000  0  9G10G12G09G04G20G28G27G02G17
 120594810.44646  93970077.22244  22948430.3524                   22948441.3014
 128297210.354 6                  24414157.461
 115916752.65947  90324799.31445  22058224.0394                   22058233.0664
 104488725.18248  81419861.46146  19883529.7664                   19883538.3134
 128686051.32856 100274919.34952  24488148.1024                   24488158.3834
 116804193.74247  91016284.26745  22227102.3204                   22227110.3404
 117720378.79447  91730229.82045  22401445.6724                   22401455.1564
 114673432.07347  89356015.24645  21821626.5004                   21821633.3634
 113514236.221 7                  21601035.922
 11  7 23  0 39 30.0000000  0  9G10G12G09G04G20G28G27G02G17
 120504192.41847  93899465.82244  22931185.9614                   22931196.9694
 128200213.868 6                  24395699.547
 115912702.58947  90321643.42945  22057453.8674                   22057462.5634
 104493836.77448  81423844.51246  19884502.3134                   19884510.7464
 128737503.68446 100315012.05842  24497939.3754                   24497948.7664
 116868702.40147  91066550.71045  22239377.9064                   22239385.8554
 117727897.42147  91736088.44845  22402876.6094                   22402885.8324
 114604715.05148  89302469.55345  21808549.7114                   21808556.9574
 113548992.792 8                  21607650.180
 11  7 23  0 40  0.0000000  0  9G10G12G09G04G20G28G27G02G17
 120413732.32046  93828977.50244  22913972.2034                   22913982.5904
 128103217.358 6                  24377242.086
 115909291.79347  90318985.67745  22056804.6334                   22056813.8794
 104499497.44348  81428255.42346  19885579.0164                   19885588.2304
 128789417.28246 100355464.20343  24507818.8834                   24507827.4104
 116933572.92047  91117099.13145  22251722.5164                   22251730.5434
 117735893.43347  91742319.08845  22404398.0944                   22404408.0594
 114536330.63648  89249183.02746  21795536.6564                   21795543.8364
 113583838.477 7                  21614280.703
 11  7 23  0 40 30.0000000  0  9G10G12G09G04G20G28G27G02G17
 120323433.29647  93758614.72744  22896788.4144                   22896798.8444
 128006222.704 6                  24358783.836
 115906519.80347  90316825.70145  22056276.9694                   22056286.1994
 104505706.09848  81433093.33646  19886760.6174                   19886769.4104
 128841791.10846 100396274.95043  24517785.7974                   24517794.7304
 116998805.17047  91167929.41445  22264135.7114                   22264144.1524
 117744366.15847  91748921.18245  22406010.4384                   22406020.3984
 114468279.66248  89196156.33446  21782587.5474                   21782594.3914
 113618773.311 7                  21620928.695
 11  7 23  0 41  0.0000000  0  9G10G12G09G04G20G28G27G02G17
 120233298.57746  93688379.93444  22879636.5634                   22879647.1024
 127909231.610 6                  24340327.805
 115904385.75047  90315162.80645  22055871.0004                   22055879.7234
 104512461.54748  81438357.31646  19888046.2814                   19888054.8554
 128894623.65947 100437443.18543  24527839.2974                   24527848.0394
 117064398.23247  91219040.84145  22276617.7424                   22276626.7384
 117753314.49947  91755893.88845  22407713.5864                   22407722.7734
 114400563.02948  89143390.15946  21769701.3914                   21769708.2584
 113653796.394 8                  21627593.328
 11  7 23  0 41 30.0000000  0  9G10G12G09G04G20G28G27G02G17
 120143331.49346  93618275.75344  22862515.8984                   22862526.3444
 127812246.249 7                  24321871.961
 115902889.29747  90313996.74345  22055586.5314                   22055595.4104
 104519762.64848  81444046.48546  19889435.8594                   19889444.5634
 128947913.12346 100478967.40643  24537979.2194                   24537988.1134
 117130352.07047  91270433.40445  22289168.1724                   22289177.3204
 117762737.75447  91763236.66145  22409506.9224                   22409516.4144
 114333181.79448  89090885.34046  21756878.8524                   21756886.1804
 113688907.897 8                  21634275.250
 11  7 23  0 42  0.0000000  0  9G10G12G09G04G20G28G27G02G17
 120053535.57247  93548304.95244  22845429.0004                   22845438.4774
 127715268.063 7                  24303417.242
 115902030.30847  90313327.40045  22055422.5084                   22055431.8404
 104527608.57148  81450160.18946  19890929.0084                   19890937.8094
 129001658.51346 100520846.92244  24548207.0234                   24548216.7624
 117196665.86147  91322106.43545  22301786.8914                   22301796.2424
 117772635.28347  91770949.01345  22411389.8204                   22411399.4184
 114266137.06348  89038642.73146  21744120.6644                   21744127.9614
 113724108.127 7                  21640973.367
 11  7 23  0 42 30.0000000  0  9G10G12G09G04G20G28G27G02G17
 119963913.91747  93478469.95144  22828374.0474                   22828384.2424
 127618298.621 7                  24284964.750
 115901808.10447  90313154.24645  22055380.4924                   22055389.4614
 104535997.86848  81456697.29846  19892525.5704                   19892534.0514
 129055858.47646 100563080.62643  24558520.5634                   24558530.9654
 117263339.09747  91374059.57745  22314474.8834                   22314483.4104
 117783006.08247  91779030.12845  22413363.4774                   22413373.0824
 114199429.75048  88986663.03446  21731426.3674                   21731433.8634
 113759397.305 8                  21647688.789
 11  7 23  0 43  0.0000000  0  9G10G12G09G04G20G28G27G02G17
 119874469.93947  93408773.40544  22811353.4534                   22811363.8914
 127521340.033 7                  24266514.125
 115902221.77747  90313476.57045  22055459.0474                   22055468.0084
 104544929.62348  81463657.10946  19894224.9304                   19894233.7154
 129110511.53446 100605667.38243  24568920.5634                   24568931.1094
 117330371.20047  91426292.34645  22327231.0554                   22327239.5164
 117793849.24747  91787479.33545  22415426.9694                   22415436.5634
 114133060.65648  88934946.89046  21718797.2504                   21718804.4734
 113794774.928 8                  21654420.930
 11  7 23  0 43 30.0000000  0  9G10G12G09G04G20G28G27G02G17
 119785207.58647  93339218.37544  22794367.1644                   22794377.9104
 127424394.488 7                  24248066.477
 115903271.36347  90314294.41345  22055659.0164                   22055668.0474
 104554402.83648  81471038.82846  19896027.6414                   19896036.5124
 129165616.74647 100648606.51543  24579406.6414                   24579416.3984
 117397762.04447  91478804.64745  22340054.9064                   22340063.2544
 117805164.26348  91796296.21645  22417580.1884                   22417589.4774
 114067031.15048  88883495.36546  21706231.9454                   21706239.3794
 113830241.254 8                  21661169.867
 11  7 23  0 44  0.0000000  0  8G10G12G09G04G28G27G02G17
 119696130.36047  93269807.61544  22777416.8754                   22777426.7234
 127327464.268 6                  24229620.930
 115904956.45647  90315607.44945  22055979.8444                   22055988.9964
 104564416.80448  81478841.91546  19897933.4064                   19897941.9734
 117465511.40647  91531596.31545  22352947.1644                   22352955.1174
 117816950.46847  91805480.26745  22419822.9064                   22419832.8094
 114001342.35348  88832309.31946  21693731.6724                   21693738.8674
 113865796.857 7                  21667935.961
 11  7 23  0 44 30.0000000  0  8G10G12G09G04G28G27G02G17
 119607240.64447  93200542.93644  22760501.6414                   22760510.8014
 127230549.815 6                  24211178.570
 115907275.08347  90317414.14145  22056420.6644                   22056430.2704
 104574969.04348  81487064.43046  19899941.1804                   19899949.6684
 117533617.64747  91584666.05845  22365907.1484                   22365915.5554
 117829205.74947  91815029.83145  22422155.0554                   22422164.8404
 113935994.12548  88781388.65846  21681296.2424                   21681303.7734
 113901440.536 7                  21674718.695
 11  7 23  0 45  0.0000000  0  8G10G12G09G04G28G27G02G17
 119518541.74047  93131426.93844  22743623.3594                   22743631.8794
 127133653.085 6                  24192739.750
 115910227.06047  90319714.35245  22056982.5474                   22056991.5274
 104586058.42448  81495705.51646  19902051.4454                   19902060.1414
 117602080.00747  91638013.28945  22378935.3984                   22378943.8014
 117841928.97347  91824944.02145  22424576.4924                   22424585.8444
 113870987.64948  88730734.28946  21668926.2034                   21668932.9654
 113937172.467 8                  21681518.367
 11  7 23  0 45 30.0000000  0  8G10G12G09G04G28G27G02G17
 119430037.05647  93062462.29044  22726780.6804                   22726789.7934
 127036776.202 6                  24174304.398
 115913811.17647  90322507.12745  22057664.2344                   22057673.8524
 104597683.98248  81504764.38646  19904263.5164                   19904272.6134
 117670897.93847  91691637.62244  22392030.6414                   22392039.2114
 117855119.58647  91835222.40445  22427086.4844                   22427095.7384
 113806323.61648  88680346.75846  21656620.7424                   21656627.9774
 113972993.124 8                  21688334.789
 11  7 23  0 46  0.0000000  0  8G10G12G09G04G28G27G02G17
 119341729.76747  92993651.47944  22709976.1484                   22709986.5274
 126939921.114 6                  24155872.844
 115918026.58547  90325791.82445  22058466.7424                   22058476.1134
 104609843.94748  81514239.68246  19906577.6174                   19906586.4844
 117740070.56447  91745538.32245  22405193.8914                   22405202.7114
 117868776.22447  91845863.91145  22429685.6334                   22429694.8524
 113742002.63748  88630226.54446  21644381.1484                   21644388.4964
 114008901.677 7                  21695167.836
 11  7 23  0 46 30.0000000  0  8G10G12G09G04G28G27G02G17
 119253623.50547  92924997.31844  22693209.7584                   22693220.6484
 126843089.368 6                  24137447.109
 115922872.59447  90329567.89845  22059388.5084                   22059398.4654
 104622537.22348  81524130.54746  19908993.2034                   19909001.8164
 117809597.30047  91799714.96744  22418424.2664                   22418433.4534
 117882897.93447  91856867.82045  22432372.6724                   22432382.0164
 113678025.70948  88580374.40646  21632206.8054                   21632213.7304
 114044898.449 7                  21702018.047
 11  7 23  0 47  0.0000000  0  8G10G12G09G04G28G27G02G17
 119165721.59547  92856502.36144  22676482.9454                   22676493.0164
 126746283.044 6                  24119025.125
 115928348.50447  90333834.79445  22060431.3444                   22060440.4924
 104635762.63948  81534436.07046  19911509.9534                   19911518.5984
 117879477.59647  91854167.09144  22431722.1174                   22431732.0274
 117897483.88347  91868233.47345  22435147.9144                   22435157.8484
 113614393.97248  88530791.26246  21620097.3284                   21620104.7814
 114080983.539 7                  21708884.656
 11  7 23  0 47 30.0000000  0  8G10G12G09G04G28G27G02G17
 119078027.11447  92788169.07744  22659795.4064                   22659805.6214
 126649504.334 6                  24100609.227
 115934453.13547  90338591.60845  22061592.6564                   22061601.7424
 104649518.77648  81545155.14246  19914127.5704                   19914136.0944
 117949710.55147  91908894.02844  22445087.0784                   22445096.2464
 117912532.75347  91879959.83045  22438011.8284                   22438021.2774
 113551107.92748  88481477.48046  21608054.6644                   21608061.9224
 114117156.823 7                  21715768.078
 11  7 23  0 48  0.0000000  0  8G10G12G09G04G28G27G02G17
 118990543.46247  92720000.02344  22643147.2974                   22643157.8444
 126552754.619 6                  24082198.617
 115941185.42247  90343837.50645  22062873.9064                   22062882.8284
 104663803.94348  81556286.44846  19916845.8364                   19916854.4574
 118020295.48147  91963895.20745  22458519.2034                   22458527.7234
 117928043.11748  91892045.79545  22440963.2344                   22440973.0784
 113488168.24248  88432433.59446  21596078.1884                   21596084.8834
 114153418.442 7                  21722668.836
 11  7 23  0 48 30.0000000  0  8G10G12G09G04G28G27G02G17
 118903274.16547  92651998.03444  22626540.9304                   22626551.0044
 126456035.952 6                  24063792.695
 115948544.58247  90349571.87945  22064274.2974                   22064284.0044
 104678616.82448  81567828.95646  19919664.4924                   19919673.1484
 118091231.35547  92019169.86844  22472018.2664                   22472026.2934
 117944014.02747  91904490.62345  22444002.8984                   22444012.1954
 113425575.59448  88383660.12346  21584167.0394                   21584174.0274
 114189768.226 7                  21729585.719
 11  7 23  0 49  0.0000000  0  8G10G12G09G04G28G27G02G17
 118816222.32647  92584165.49645  22609975.3364                   22609986.2074
 126359350.446 7                  24045394.844
 115956529.85647  90355794.13545  22065793.9384                   22065802.9804
 104693956.16648  81579781.69246  19922583.6334                   19922592.3594
 118162517.68147  92074717.61344  22485583.3674                   22485590.3364
 117960444.48747  91917293.52945  22447129.3754                   22447138.5434
 113363330.96048  88335157.82346  21572322.0864                   21572328.9304
 114226206.538 7                  21736519.453
 11  7 23  0 49 30.0000000  0  8G10G12G09G04G28G27G02G17
 118729391.39847  92516505.09345  22593452.2894                   22593462.6024
 126262700.050 7                  24027002.641
 115965139.96747  90362503.27545  22067432.2194                   22067441.4804
 104709820.62848  81592143.60846  19925602.5314                   19925611.3444
 118234153.72647  92130537.85145  22499215.3204                   22499223.4144
 117977333.36047  91930453.63945  22450343.0784                   22450352.6604
 113301435.33648  88286927.50046  21560543.6024                   21560550.6134
 114262733.447 7                  21743470.445
 11  7 23  0 50  0.0000000  0  8G10G12G09G04G28G27G02G17
 118642784.94147  92449019.60445  22576971.3054                   22576981.6414
 126166086.590 6                  24008617.367
 115974374.08147  90369698.65745  22069189.5004                   22069198.8444
 104726208.88248  81604913.67146  19928721.4534                   19928730.1024
 118306138.90347  92186630.14044  22512913.1414                   22512922.1054
 117994679.49647  91943970.04145  22453643.9454                   22453653.6844
 113239889.25347  88238969.53246  21548831.9454                   21548839.0704
 114299348.902 7                  21750438.227
 11  7 23  0 50 30.0000000  0  8G10G12G09G04G28G27G02G17
 118556405.96347  92381711.38044  22560533.6954                   22560544.2034
 126069512.193 7                  23990239.984
 115984230.87647  90377379.26345  22071065.4534                   22071074.6294
 104743119.00948  81618090.40146  19931939.1724                   19931947.6294
 118378472.08947  92242993.60045  22526678.8054                   22526687.4024
 118012481.40247  91957841.60245  22457031.6254                   22457041.3324
 113178693.31348  88191284.40246  21537186.4614                   21537194.0084
 114336052.629 7                  21757422.500
 11  7 23  0 51  0.0000000  0  8G10G12G09G04G28G27G02G17
 118470257.81747  92314583.01944  22544140.1724                   22544150.5044
 125972978.665 7                  23971869.953
 115994709.38947  90385544.31545  22073059.5704                   22073068.6374
 104760549.65348  81631672.72046  19935255.6724                   19935264.8444
 118451152.33347  92299627.50344  22540508.2194                   22540518.2664
 118030738.00647  91972067.46145  22460505.7344                   22460515.2194
 113117848.35448  88143872.76646  21525608.2664                   21525615.6914
 114372845.118 7                  21764423.891
 11  7 23  0 51 30.0000000  0  8G10G12G09G04G28G27G02G17
 118384344.38847  92247637.54544  22527791.4774                   22527801.8244
 125876488.076 7                  23953508.602
 116005808.59047  90394193.03144  22075171.4694                   22075180.6604
 104778499.81448  81645659.86046  19938671.7034                   19938680.3284
 118524179.27147  92356531.54344  22554405.7114                   22554414.3554
 118049448.31247  91986646.86245  22464066.3134                   22464075.7854
 113057355.19548  88096735.26246  21514096.7584                   21514104.2384
 114409726.590 8                  21771442.641
 11  7 23  0 52  0.0000000  0  8G10G12G09G04G28G27G02G17
 118298668.48547  92180877.15244  22511488.0234                   22511497.9844
 125780042.279 7                  23935156.438
 116017527.38647  90403324.54444  22077401.5234                   22077410.7664
 104796967.62548  81660050.35446  19942185.8834                   19942194.7074
 118597551.98147  92413705.02644  22568368.1644                   22568376.5744
 118068610.69847  92001578.53145  22467712.8284                   22467722.3164
 112997214.55048  88049872.44546  21502652.1644                   21502659.2854
 114446697.014 7                  21778477.758
 11  7 23  0 52 30.0000000  0  8G10G12G09G04G28G27G02G17
 118213233.58347  92114304.55144  22495230.0554                   22495240.0554
 125683643.284 7                  23916811.516
 116029864.66047  90412937.99945  22079748.9384                   22079758.5594
 104815951.55548  81674843.02646  19945798.6334                   19945807.3554
 118671269.41247  92471147.14945  22582396.2194                   22582405.1644
 118088223.85847  92016861.44445  22471445.0554                   22471454.5004
 112937426.89948  88003284.69346  21491275.0864                   21491282.0664
 114483756.357 7                  21785529.938
 11  7 23  0 53  0.0000000  0  8G10G12G09G04G28G27G02G17
 118128042.99347  92047922.32944  22479018.6954                   22479028.8284
 125587293.352 7                  23898475.773
 116042818.98447  90423032.26845  22082214.0004                   22082223.9304
 104835450.09848  81690036.69346  19949508.9224                   19949518.1024
 118745330.44147  92528856.99045  22596489.4304                   22596497.9264
 118108286.57447  92032494.68145  22475262.4144                   22475272.5784
 112877993.09148  87956972.67046  21479965.1334                   21479972.4304
 114520904.712 7                  21792599.172
 11  7 23  0 53 30.0000000  0  8G10G12G09G04G28G27G02G17
 118043100.23447  91981733.25344  22462854.8754                   22462864.6254
 125490994.149 7                  23880150.508
 116056389.05847  90433606.35645  22084796.5864                   22084805.6564
 104855461.69048  81705630.13946  19953316.9304                   19953326.0004
 118819734.46647  92586834.09144  22610647.5234                   22610656.1724
 118128797.65647  92048477.26745  22479166.5784                   22479176.2034
 112818913.81248  87910936.88546  21468722.5634                   21468729.4924
 114558142.744 7                  21799685.039
 11  7 23  0 54  0.0000000  0  8G10G12G09G04G28G27G02G17
 117958408.44047  91915739.69644  22446738.2894                   22446747.6764
 125394747.907 7                  23861835.539
 116070573.38047  90444659.05645  22087496.0554                   22087505.0354
 104875984.50448  81721621.93346  19957222.5004                   19957231.5164
 118894480.58547  92645077.75244  22624870.6414                   22624880.9614
 118149755.60147  92064808.08745  22483154.4304                   22483164.1764
 112760189.43548  87865177.65746  21457548.0554                   21457555.2194
 114595469.342 7                  21806788.281
 11  7 23  0 54 30.0000000  0  8G10G12G09G04G28G27G02G17
 117873971.13447  91849944.41344  22430670.4774                   22430679.8324
 125298556.584 6                  23843531.211
 116085371.04847  90456189.68145  22090311.7814                   22090321.0124
 104897017.45748  81738011.25046  19961224.7974                   19961233.6724
 118969568.19147  92703587.52544  22639159.8524                   22639170.2154
 118171159.27847  92081486.23745  22487227.2424                   22487236.9964
 112701820.88148  87819695.70246  21446440.4844                   21446447.6374
 114632885.374 7                  21813907.875
 11  7 23  0 55  0.0000000  0  8G10G12G09G04G28G27G02G17
 117789791.47247  91784349.90444  22414651.4064                   22414661.0314
 125202422.135 6                  23825237.781
 116100780.29247  90468196.86345  22093243.7584                   22093253.1024
 104918558.51148  81754796.48846  19965324.2584                   19965332.8524
 119044996.00747  92762362.41444  22653513.5314                   22653523.2194
 118193007.08047  92098510.46045  22491384.9534                   22491394.6024
 112643808.62548  87774491.36846  21435401.0314                   21435408.2704
 114670390.966 7                  21821045.141
 11  7 23  0 55 30.0000000  0  8G10G12G09G04G28G27G02G17
 117705872.74547  91718958.73345  22398681.9924                   22398692.3714
 125106346.676 6                  23806954.977
 116116800.12647  90480679.82745  22096291.7504                   22096302.3164
 104940605.94048  81771976.29146  19969519.4304                   19969528.5394
 119120762.88247  92821401.50144  22667931.2424                   22667940.9264
 118215297.54247  92115879.61445  22495626.8594                   22495636.4384
 112586153.30748  87729565.17646  21424429.7734                   21424436.7664
 114707986.056 7                  21828199.391
 11  7 23  0 56  0.0000000  0  8G10G12G09G04G28G27G02G17
 117622218.01047  91653773.26845  22382763.4694                   22382772.9344
 125010332.201 6                  23788684.094
 116133428.93747  90493637.30544  22099456.6724                   22099466.2774
 104963158.16948  81789549.46246  19973811.4534                   19973820.1294
 119196868.09547  92880704.22444  22682413.9924                   22682422.4804
 118238029.10547  92133592.49145  22499952.3754                   22499962.0084
 112528855.25448  87684917.37746  21413526.2114                   21413533.3324
 114745670.860 7                  21835370.703
 11  7 23  0 56 30.0000000  0  8G10G12G09G04G28G27G02G17
 117538830.87247  91588796.32345  22366895.8204                   22366905.0044
 124914380.910 7                  23770425.242
 116150665.26447  90507068.15445  22102736.9224                   22102746.4414
 104986213.64648  81807514.75846  19978198.2194                   19978207.0314
 119273310.44647  92940269.60444  22696961.1804                   22696969.1604
 118261200.33147  92151647.96345  22504362.1954                   22504371.6094
 112471914.93948  87640548.31746  21402691.0944                   21402697.9574
 114783445.765 7                  21842558.977
 11  7 23  0 57  0.0000000  0  8G10G12G09G04G28G27G02G17
 117455715.06147  91524030.79745  22351078.5004                   22351088.5314
 124818494.663 7                  23752178.273
 116168507.89147  90520971.46845  22106132.2424                   22106141.8484
 105009770.63648  81825870.85046  19982681.6094                   19982690.1914
 119350088.90047  93000096.91644  22711571.6644                   22711579.6764
 118284810.05247  92170045.11145  22508854.5394                   22508864.6374
 112415333.49148  87596458.90346  21391923.7814                   21391930.6884
 114821310.657 8                  21849764.445
 11  7 23  0 57 30.0000000  0  8G10G12G09G04G28G27G02G17
 117372873.35547  91459478.85245  22335315.0084                   22335324.6684
 124722675.564 7                  23733944.531
 116186955.10247  90535345.87145  22109642.7664                   22109651.9734
 105033827.36348  81844616.35146  19987259.1884                   19987267.9494
 119427202.77347  93060185.55544  22726245.8754                   22726255.1334
 118308856.44947  92188782.53845  22513430.4534                   22513440.4304
 112359111.10048  87552649.27846  21381224.8524                   21381232.2734
 114859265.664 7                  21856986.859
 11  7 23  0 58  0.0000000  0  8G10G12G09G04G28G27G02G17
 117290308.99147  91395143.03645  22319603.0234                   22319612.8364
 124626925.765 7                  23715724.008
 116206005.23047  90550190.06545  22113267.2504                   22113277.5274
 105058381.89648  81863749.75546  19991931.9304                   19991940.5514
 119504650.55347  93120534.46044  22740983.8284                   22740993.5904
 118333337.96847  92207859.02145  22518088.9454                   22518099.0904
 112303247.97148  87509119.59546  21370594.7114                   21370601.8794
 114897310.779 8                  21864226.523
 11  7 23  0 58 30.0000000  0  8G10G12G09G04G28G27G02G17
 117208025.65147  91331026.19645  22303945.2424                   22303954.8554
 124531247.465 7                  23697516.563
 116225657.03647  90565503.12545  22117007.4144                   22117016.7114
 105083432.93348  81883270.04246  19996698.6804                   19996707.5274
 119582431.85347  93181143.24945  22755785.6644                   22755794.4384
 118358253.28647  92227273.53745  22522830.5164                   22522840.0044
 112247745.45548  87465870.91146  21360033.0234                   21360039.6764
 114935446.351 8                  21871483.539
 11  7 23  0 59  0.0000000  0  8G10G12G09G04G28G27G02G17
 117126026.32147  91267130.67645  22288341.0234                   22288351.0864
 124435642.755 7                  23679324.336
 116245908.99147  90581283.80945  22120861.2114                   22120871.1414
 105108978.44448  81903175.63546  20001559.7504                   20001568.7704
 119660544.96147  93242010.57244  22770650.0474                   22770658.2344
 118383600.74347  92247024.76645  22527653.5004                   22527663.6604
 112192603.17748  87422902.92846  21349539.6724                   21349546.3984
 114973672.308 8                  21878757.906
 11  7 23  0 59 30.0000000  0  8G10G12G09G04G28G27G02G17
 117044314.69747  91203459.33445  22272791.6724                   22272801.3244
 124340113.638 6                  23661145.383
 116266759.70947  90597531.06945  22124828.8674                   22124838.9654
 105135017.24748  81923465.61446  20006514.7194                   20006523.5664
 119738989.47747  93303136.09044  22785577.8364                   22785585.7734
 118409379.22147  92267111.86245  22532558.8364                   22532569.6684
 112137822.12548  87380216.42246  21339114.9534                   21339121.8714
 115011989.382 7                  21886049.406
 11  7 23  1  0  0.0000000  0  8G10G12G09G04G28G27G02G17
 116962893.89047  91140014.59445  22257297.3984                   22257307.8204
 124244662.223 6                  23642981.500
 116288207.15047  90614243.30145  22128910.2274                   22128919.8484
 105161546.95148  81944138.11046  20011563.1884                   20011571.9964
 119817763.92047  93364518.68544  22800567.8984                   22800576.9304
 118435586.73147  92287533.26245  22537546.1564                   22537556.2854
 112083402.97348  87337811.91846  21328759.4224                   21328766.2274
 115050397.567 7                  21893358.180
 11  7 23  1  0 30.0000000  0  8G10G12G09G04G28G27G02G17
 116881767.20247  91076799.05444  22241859.5394                   22241869.5394
 124149290.897 6                  23624832.938
 116310249.88147  90631419.39845  22133105.4844                   22133114.9614
 105188566.06348  81965191.95546  20016704.9064                   20016713.6684
 119896867.34847  93426157.67144  22815620.1094                   22815630.3714
 118462221.77147  92308287.80045  22542615.0314                   22542624.8754
 112029346.13948  87295689.74046  21318472.8524                   21318479.4694
 115088897.009 7                  21900684.578
 11  7 23  1  1  0.0000000  0  8G10G12G09G04G28G27G02G17
 116800937.81347  91013815.16344  22226478.5164                   22226488.3134
 124054001.436 6                  23606700.102
 116332885.89447  90649057.80045  22137412.7504                   22137422.3164
 105216072.30948  81986625.39146  20021939.1484                   20021948.1294
 119976298.20747  93488051.81544  22830735.2814                   22830745.3164
 118489282.43747  92329373.98845  22547764.2194                   22547774.3834
 111975651.41948  87253849.72246  21308254.6254                   21308261.8674
 115127487.521 7                  21908027.883
 11  7 23  1  1 30.0000000  0  8G10G12G09G04G28G27G02G17
 116720409.37147  90951065.77245  22211154.4614                   22211164.0554
 123958796.233 6                  23588582.383
 116356113.98847  90667157.57045  22141832.5864                   22141842.6644
 105244064.27548  82008437.30946  20027265.6094                   20027274.8014
 120056055.79447  93550200.54444  22845912.0554                   22845921.6054
 118516767.40847  92350790.80145  22552994.6174                   22553004.5274
 111922319.89648  87212292.72346  21298106.1884                   21298113.2704
 115166169.595 7                  21915388.914
 11  7 23  1  2  0.0000000  0  8G10G12G09G04G28G27G02G17
 116640185.23247  90888553.50045  22195888.2974                   22195897.5164
 123863677.438 6                  23570482.281
 116379932.31147  90685717.26145  22146365.3594                   22146375.1094
 105272540.42048  82030626.50246  20032684.5634                   20032693.4264
 120136139.11247  93612603.07544  22861152.2034                   22861160.4884
 118544675.26747  92372537.13745  22558305.4384                   22558315.4734
 111869351.93548  87171019.02346  21288026.5554                   21288033.6684
 115204943.636 7                  21922767.484
 11  7 23  1  2 30.0000000  0  8G10G12G09G04G28G27G02G17
 116560267.98847  90826280.38045  22180680.2194                   22180689.7034
 123768647.125 6                  23552398.023
 116404338.83047  90704735.28345  22151009.4774                   22151019.3164
 105301498.17248  82053190.98146  20038195.0554                   20038204.1024
 120216546.48447  93675258.08544  22876452.8674                   22876462.2464
 118573004.02947  92394611.44945  22563696.4774                   22563706.7544
 111816747.51248  87130028.59646  21278016.6484                   21278023.4024
 115243809.509 7                  21930163.336
 11  7 23  1  3  0.0000000  0  8G10G12G09G04G28G27G02G17
 116480661.22247  90764249.18345  22165532.0234                   22165541.4654
 123673707.470 7                  23534332.172
 116429332.00347  90724210.45145  22155765.8284                   22155775.5354
 105330936.21948  82076129.71846  20043796.9774                   20043805.6174
 120297277.33447  93738165.21044  22891816.0784                   22891825.7424
 118601752.10647  92417012.50945  22569166.6724                   22569177.0784
 111764507.63548  87089322.23846  21268075.7814                   21268082.7234
 115282767.956 7                  21937576.766
 11  7 23  1  3 30.0000000  0  8G10G12G09G04G28G27G02G17
 116401368.72047  90702462.84645  22150443.4144                   22150451.6724
 123578860.783 7                  23516283.711
 116454910.02947  90744141.35245  22160633.1484                   22160642.6484
 105360852.71448  82099441.27046  20049489.9454                   20049498.8444
 120378330.21047  93801323.26944  22907239.5704                   22907248.9304
 118630917.99647  92439739.12645  22574717.1334                   22574726.7154
 111712632.56848  87048900.12646  21258203.6884                   21258210.8914
 115321818.912 7                  21945008.430
 11  7 23  1  4  0.0000000  0  8G10G12G09G04G28G27G02G17
 116322393.01947  90640923.38545  22135414.1414                   22135424.0004
 123484109.042 7                  23498252.727
 116481070.62147  90764526.21145  22165611.0864                   22165621.2384
 105391245.21248  82123123.73646  20055273.2504                   20055282.1644
 120459703.81647  93864731.22544  22922724.2664                   22922733.0004
 118660499.56447  92462789.63745  22580346.0864                   22580356.3834
 111661122.17148  87008762.17846  21248401.7814                   21248408.5744
 115360962.065 7                  21952456.859
 11  7 23  1  4 30.0000000  0  8G10G12G09G04G28G27G02G17
 116243737.34047  90579633.29045  22120446.7504                   22120456.4454
 123389454.696 7                  23480241.188
 116507812.36047  90785363.90345  22170700.5234                   22170710.1484
 105422112.13848  82147175.88146  20061147.2814                   20061156.2774
 120541397.08647  93928388.25144  22938271.2194                   22938278.3914
 118690495.28047  92486162.88245  22586053.9774                   22586064.3954
 111609977.22448  86968909.00446  21238669.2664                   21238676.0474
 115400198.065 7                  21959923.406
 11  7 23  1  5  0.0000000  0  8G10G12G09G04G28G27G02G17
 116165405.39247  90518595.46745  22105540.5634                   22105550.3054
 123294899.572 7                  23462247.758
 116535133.34347  90806652.96445  22175899.4384                   22175909.1764
 105453451.73048  82171596.34346  20067110.7504                   20067119.5704
 120623408.87947  93992293.50744  22953876.8834                   22953886.0664
 118720903.43547  92509857.48945  22591840.5164                   22591850.9384
 111559198.00548  86929340.81346  21229006.4844                   21229013.4144
 115439527.586 7                  21967407.344
 11  7 23  1  5 30.0000000  0  8G10G12G09G04G28G27G02G17
 116087400.32847  90457812.34845  22090696.3284                   22090706.5164
 123200446.215 7                  23444273.680
 116563031.60447  90828391.83745  22181207.8134                   22181217.7704
 105485261.86248  82196383.46446  20073164.2344                   20073173.0124
 120705737.78747  94056445.91444  22969543.1804                   22969552.7894
 118751722.17747  92533872.04245  22597705.5634                   22597715.3984
 111508784.84248  86890057.87246  21219413.2344                   21219419.9884
 115478950.430 8                  21974908.875
 11  7 23  1  6  0.0000000  0  8G10G12G09G04G28G27G02G17
 116009725.36847  90397286.45845  22075915.2424                   22075924.9024
 123106096.989 7                  23426319.672
 116591505.43047  90850579.22045  22186626.2504                   22186636.2624
 105517540.93748  82221535.98346  20079306.7664                   20079315.5124
 120788382.92246  94120844.68744  22985270.1254                   22985279.8524
 118782950.07047  92558205.40745  22603648.1174                   22603658.4574
 111458738.49748  86851060.77046  21209889.7664                   21209896.2194
 115518466.775 8                  21982428.813
 11  7 23  1  6 30.0000000  0  8G10G12G09G04G28G27G02G17
 115932383.54947  90337020.14745  22061197.5234                   22061207.3984
 123011853.754 7                  23408386.164
 116620552.66347  90873213.39245  22192154.1804                   22192163.9144
 105550286.51948  82247052.02046  20085538.2114                   20085546.8444
 120871342.55346  94185488.45144  23001056.4304                   23001066.3204
 118814584.91447  92582855.88045  22609667.8284                   22609677.6294
 111409058.73148  86812349.29946  21200436.1644                   21200442.7074
 115558077.047 8                  21989966.773
 11  7 23  1  7  0.0000000  0  8G10G12G09G04G28G27G02G17
 115855378.39347  90277016.17745  22046543.7344                   22046553.8794
 122917718.875 7                  23390472.266
 116650171.17647  90896292.72845  22197789.9694                   22197799.5234
 105583496.94248  82272930.27446  20091857.7894                   20091866.6484
 120954615.81846  94250376.63944  23016902.8054                   23016912.8134
 118846625.05647  92607822.18345  22615765.4844                   22615775.2344
 111359745.90948  86773923.75846  21191051.7664                   21191058.6134
 115597781.523 7                  21997521.656
 11  7 23  1  7 30.0000000  0  8G10G12G09G04G28G27G02G17
 115778713.31347  90217277.19145  22031955.1484                   22031965.0594
 122823694.691 7                  23372580.148
 116680359.17247  90919815.80145  22203534.9144                   22203544.9614
 105617170.39148  82299169.32746  20098265.4064                   20098274.2074
 121038201.27346  94315508.10944  23032808.8524                   23032818.0474
 118879068.85547  92633102.99445  22621939.1564                   22621949.0514
 111310800.38648  86735784.41546  21181737.6414                   21181744.3554
 115637580.482 7                  22005095.594
 11  7 23  1  8  0.0000000  0  8G10G12G09G04G28G27G02G17
 115702391.45447  90157805.66445  22017431.5704                   22017441.6374
 122729783.543 6                  23354708.875
 116711114.66947  90943781.09345  22209387.6884                   22209397.4694
 105651304.76248  82325767.53746  20104761.0004                   20104770.0784
 121122097.64847  94380881.82544  23048773.9144                   23048783.8444
 118911914.36247  92658696.85744  22628189.2894                   22628199.3094
 111262222.65548  86697931.66146  21172493.5944                   21172500.4224
 115677474.215 7                  22012687.133
 11  7 23  1  8 30.0000000  0  8G10G12G09G04G28G27G02G17
 115626415.58647  90098603.73945  22002973.9614                   22002983.6844
 122635987.432 6                  23336860.422
 116742435.42347  90968186.83245  22215347.8284                   22215357.3754
 105685897.82248  82352723.17146  20111343.6094                   20111352.8094
 121206303.62347  94446496.85144  23064798.1644                   23064807.6604
 118945159.64847  92684602.22945  22634515.4064                   22634525.6644
 111214012.86048  86660365.61746  21163319.3524                   21163326.3874
 115717463.145 7                  22020296.391
 11  7 23  1  9  0.0000000  0  8G10G12G09G04G28G27G02G17
 115550788.79347  90039673.81245  21988582.2814                   21988592.1024
 122542308.741 6                  23319033.750
 116774319.26547  90993031.34045  22221414.7114                   22221424.5904
 105720947.35348  82380034.48846  20118013.5394                   20118022.6564
 121290817.62846  94512351.85144  23080880.2664                   23080889.0904
 118978802.34947  92710817.27645  22640917.9774                   22640927.8014
 111166170.62848  86623085.98546  21154215.7034                   21154222.6524
 115757546.917 7                  22027924.461
 11  7 23  1  9 30.0000000  0  9G10G12G05G09G04G28G27G02G17
 115475515.05147  89981018.98745  21974258.6094                   21974268.2854
 122448749.758 7                  23301229.820
 129602574.29715                  24662556.188
 116806764.37147  91018313.19845  22227588.8284                   22227598.8594
 105756451.81648  82407700.30746  20124769.9144                   20124778.8134
 121375638.58546  94578446.03244  23097021.6884                   23097030.1914
 119012841.17847  92737340.99444  22647395.0164                   22647405.1454
 111118696.97748  86586093.58046  21145181.3524                   21145188.6374
 115797726.238 7                  22035570.414
 11  7 23  1 10  0.0000000  0  9G10G12G05G09G04G28G27G02G17
 115400597.29947  89922641.55345  21960002.1094                   21960011.5904
 122355312.913 7                  23283449.570
 129497561.848 6                  24642573.063
 116839768.78047  91044030.88045  22233869.9304                   22233879.6094
 105792409.42348  82435719.21646  20131612.4614                   20131621.5084
 121460765.41747  94644778.55344  23113220.4224                   23113230.6414
 119047274.27347  92764171.93244  22653947.5474                   22653957.4454
 111071592.32448  86549388.68246  21136217.9384                   21136224.7234
 115838001.713 7                  22043234.398
 11  7 23  1 10 30.0000000  0  9G10G12G05G09G04G28G27G02G17
 115326038.45147  89864543.77745  21945813.6884                   21945823.5234
 122262000.326 7                  23265692.859
 129392466.201 6                  24622574.234
 116873329.96347  91070182.40545  22240256.2734                   22240265.9024
 105828817.53948  82464089.17246  20138540.4774                   20138549.1884
 121546196.32647  94711348.05044  23129477.7344                   23129487.0044
 119082099.38347  92791308.35344  22660574.5634                   22660585.0234
 111024856.35948  86512971.08446  21127324.1254                   21127331.3404
 115878373.264 7                  22050916.758
 11  7 23  1 11  0.0000000  0  9G10G12G05G09G04G28G27G02G17
 115251841.34447  89806727.89245  21931694.5314                   21931704.7114
 122168814.258 7                  23247959.945
 129287289.724 6                  24602560.227
 116907445.81047  91096766.13745  22246748.1884                   22246757.8834
 105865674.30948  82492808.73746  20145554.4144                   20145563.1564
 121631930.14547  94778153.59244  23145792.1414                   23145801.5204
 119117314.64747  92818748.79044  22667275.5164                   22667286.2304
 110978489.17048  86476840.83746  21118500.5164                   21118507.6914
 115918841.077 7                  22058617.773
 11  7 23  1 11 30.0000000  0  9G10G12G05G09G04G28G27G02G17
 115178009.60547  89749196.71845  21917645.2274                   21917654.5084
 122075756.985 7                  23230251.984
 129182034.958 7                  24582531.156
 116942114.24647  91123780.46445  22253345.7194                   22253355.3204
 105902977.65648  82521876.28046  20152653.1334                   20152662.0234
 121717965.64946  94845194.20943  23162164.0704                   23162173.3484
 119152918.32147  92846491.87344  22674051.0944                   22674060.7624
 110932491.28148  86440998.36046  21109747.6334                   21109754.8014
 115959405.728 7                  22066336.961
 11  7 23  1 12  0.0000000  0  9G10G12G05G09G04G28G27G02G17
 115104546.32147  89691952.63945  21903665.6254                   21903675.2234
 121982830.856 7                  23212568.570
 129076704.775 7                  24562487.094
 116977333.00347  91151223.61845  22260046.9614                   22260057.3554
 105940725.44048  82551290.13246  20159836.1334                   20159844.9454
 121804300.91447  94912468.33443  23178593.7664                   23178602.7894
 119188908.04347  92874535.77944  22680899.6414                   22680909.8364
 110886862.47648  86405443.47646  21101064.8364                   21101071.8984
 116000067.321 7                  22074074.313
 11  7 23  1 12 30.0000000  0  9G10G12G05G09G04G28G27G02G17
 115031454.84347  89634998.27545  21889756.1024                   21889765.2894
 121890038.216 7                  23194910.523
 128971301.600 7                  24542428.977
 117013099.87447  91179093.85445  22266853.8594                   22266863.0984
 105978915.57048  82581048.68146  20167103.4064                   20167112.0864
 121890934.76946  94979975.18343  23195079.5784                   23195088.6994
 119225281.88047  92902879.01244  22687821.6724                   22687831.4804
 110841603.08648  86370176.44146  21092451.9844                   21092458.7704
 116040826.323 7                  22081831.156
 11  7 23  1 13  0.0000000  0  9G10G12G05G09G04G28G27G02G17
 114958738.36447  89578336.11945  21875918.8594                   21875928.1174
 121797381.702 7                  23177278.930
 128865828.029 6                  24522358.047
 117049412.20247  91207389.14845  22273764.2114                   22273774.1174
 106017546.15848  82611150.43446  20174454.4844                   20174463.2704
 121977865.83046  95047713.66244  23211621.6564                   23211631.0164
 119262038.06147  92931520.16044  22694815.8054                   22694825.8954
 110796713.25948  86335197.37946  21083910.0634                   21083916.5204
 116081682.820 7                  22089605.570
 11  7 23  1 13 30.0000000  0  9G10G12G05G09G04G28G27G02G17
 114886400.23247  89521968.79445  21862153.3364                   21862162.6604
 121704863.235 7                  23159673.039
 128760286.968 6                  24502274.133
 117086268.10447  91236107.98445  22280776.9224                   22280786.7934
 106056615.05648  82641593.73646  20181889.2734                   20181898.0944
 122065093.03646  95115682.86644  23228220.5004                   23228230.3794
 119299174.80847  92960457.84545  22701883.0864                   22701892.7894
 110752193.60948  86300506.76946  21075437.7194                   21075444.9144
 116122637.676 7                  22097399.078
 11  7 23  1 14  0.0000000  0  9G10G12G05G09G04G28G27G02G17
 114814442.85347  89465898.16845  21848460.0004                   21848469.5634
 121612485.016 7                  23142093.461
 128654680.728 6                  24482177.297
 117123665.31147  91265248.64645  22287893.5554                   22287903.7424
 106096119.98348  82672376.78746  20189406.4614                   20189415.4804
 122152614.73447  95183881.53044  23244874.9534                   23244885.3984
 119336689.63247  92989690.14344  22709021.6094                   22709031.9064
 110708043.59748  86266104.19246  21067036.3054                   21067043.3914
 116163690.910 7                  22105211.242
 11  7 23  1 14 30.0000000  0  9G10G12G05G09G04G28G27G02G17
 114742869.88847  89410127.08445  21834840.2504                   21834849.6414
 121520249.759 7                  23124541.844
 128549011.895 6                  24462069.859
 117161601.29047  91294809.11945  22295112.9534                   22295122.3794
 106136059.13748  82703498.20346  20197006.8444                   20197015.6884
 122240429.82346  95252308.79144  23261585.8134                   23261595.7274
 119374580.74147  93019215.64844  22716232.5314                   22716242.1524
 110664263.65548  86231989.98046  21058705.5394                   21058712.2504
 116204842.852 7                  22113041.719
 11  7 23  1 15  0.0000000  0  9G10G12G05G09G04G28G27G02G17
 114671684.25447  89354657.80545  21821293.9924                   21821303.2304
 121428159.886 7                  23107017.961
 128443283.309 6                  24441950.070
 117200073.86247  91324787.72945  22302433.9774                   22302443.6374
 106176430.22048  82734956.19446  20204689.2424                   20204697.9734
 122328536.20347  95320963.04744  23278352.3524                   23278361.9104
 119412846.10147  93049032.76845  22723514.0394                   22723524.0314
 110620853.80448  86198164.13246  21050444.8054                   21050451.4924
 116246093.705 8                  22120891.836
 11  7 23  1 15 30.0000000  0  9G10G12G05G09G04G28G27G02G17
 114600889.02347  89299492.73645  21807822.1564                   21807831.6884
 121336217.594 7                  23089522.445
 128337497.636 5                  24421819.570
 117239080.55547  91355182.54945  22309856.6644                   22309866.4454
 106217231.18048  82766749.15146  20212453.2344                   20212461.7154
 122416932.47947  95389843.21844  23295174.3364                   23295183.4574
 119451483.67347  93079139.94144  22730866.3444                   22730876.5354
 110577814.24048  86164626.83346  21042254.7194                   21042261.7544
 116287444.356 8                  22128760.766
 11  7 23  1 16  0.0000000  0  9G10G12G05G09G04G28G27G02G17
 114530487.68747  89244634.60045  21794425.4454                   21794435.0744
 121244425.418 7                  23072054.547
 128231657.586 6                  24401678.039
 117278619.25447  91385991.89345  22317380.8524                   22317390.2154
 106258459.93448  82798875.44646  20220299.0164                   20220308.1564
 122505617.48047  95458948.42744  23312050.2034                   23312059.3754
 119490491.44347  93109535.56745  22738289.1254                   22738299.3204
 110535145.16148  86131378.21346  21034135.0704                   21034141.6134
 116328894.607 7                  22136648.242
 11  7 23  1 16 30.0000000  0  9G10G12G05G09G04G28G27G02G17
 114460482.67647  89190085.29945  21781103.3754                   21781113.2774
 121152785.441 7                  23054616.289
 128125765.428 6                  24381528.797
 117318687.12647  91417213.59145  22325004.9694                   22325015.3834
 106300113.98748  82831333.14346  20228225.1884                   20228233.9694
 122594589.41647  95528277.17344  23328980.8834                   23328990.7504
 119529866.95847  93140217.75644  22745782.0554                   22745792.5514
 110492846.22648  86098418.01546  21026085.7664                   21026092.5394
 116370444.982 7                  22144555.320
 11  7 23  1 17  0.0000000  0  9G10G12G05G09G04G28G27G02G17
 114390877.48647  89135847.53945  21767858.3134                   21767868.1294
 121061300.275 7                  23037207.000
 128019823.886 6                  24361368.375
 117359282.13347  91448846.05745  22332730.0234                   22332739.7704
 106342191.56548  82864120.86446  20236232.5554                   20236241.2424
 122683847.39546  95597828.81044  23345965.6334                   23345975.5904
 119569608.37747  93171185.07044  22753344.5944                   22753354.7544
 110450917.85148  86065746.57246  21018106.9384                   21018113.9224
 116412095.694 7                  22152481.063
 11  7 23  1 17 30.0000000  0  9G10G12G05G09G04G28G27G02G17
 114321674.78847  89081923.41545  21754688.8284                   21754698.8094
 120969971.955 7                  23019827.875
 127913835.669 6                  24341198.773
 117400401.32147  91480886.96545  22340555.2894                   22340564.5984
 106384690.05748  82897236.57146  20244319.5314                   20244328.4184
 122773389.06046  95667601.48843  23363004.3524                   23363014.6294
 119609713.24047  93202435.58644  22760976.4534                   22760986.5594
 110409359.66048  86033363.57546  21010198.6954                   21010205.5164
 116453847.289 7                  22160425.969
 11  7 23  1 18  0.0000000  0  9G10G12G05G09G04G28G27G02G17
 114252877.61247  89028315.26245  21741597.2814                   21741606.6954
 120878803.071 7                  23002479.438
 127807803.419 7                  24321021.914
 117442042.05347  91513334.25945  22348478.7274                   22348488.7194
 106427607.38948  82930678.64246  20252486.6564                   20252495.5664
 122863213.03046  95737594.11643  23380097.5944                   23380107.3484
 119650179.45547  93233967.64944  22768676.9454                   22768687.1374
 110368171.67148  86001269.05746  21002361.1644                   21002367.9024
 116495700.104 8                  22168390.641
 11  7 23  1 18 30.0000000  0  9G10G12G05G09G04G28G27G02G17
 114184489.28047  88975025.69245  21728583.7274                   21728593.2704
 120787796.277 7                  22985160.852
 127701729.830 6                  24300837.211
 117484202.28547  91546186.37545  22356501.7584                   22356511.6604
 106470941.43348  82964445.41946  20260732.8754                   20260741.6054
 122953317.96546  95807805.79143  23397243.3674                   23397253.5984
 119691005.11647  93265779.82245  22776445.9774                   22776456.1764
 110327354.09848  85969463.17046  20994593.7344                   20994600.8634
 116537654.148 7                  22176373.844
 11  7 23  1 19  0.0000000  0  9G10G12G05G09G04G28G27G02G17
 114116512.59247  88922056.88045  21715648.1174                   21715657.6214
 120696953.648 7                  22967873.820
 127595617.451 6                  24280644.406
 117526879.38847  91579441.22945  22364623.2814                   22364632.4694
 106514689.87148  82998535.11046  20269057.9844                   20269066.9534
 123043702.39746  95878235.16943  23414444.1174                   23414453.4144
 119732187.82847  93297870.19444  22784282.8754                   22784292.8754
 110286906.87948  85937945.87146  20986897.2194                   20986904.0234
 116579710.288 7                  22184376.617
 11  7 23  1 19 30.0000000  0  9G10G12G05G09G04G28G27G02G17
 114048950.84647  88869411.41645  21702791.7034                   21702801.1294
 120606277.862 7                  22950619.039
 127489469.412 6                  24260445.313
 117570071.22047  91613097.19945  22372841.9304                   22372851.6604
 106558851.02848  83032946.40446  20277461.5554                   20277470.3364
 123134364.64347  95948881.06143  23431696.6954                   23431705.7854
 119773725.86247  93330237.45244  22792187.1884                   22792197.3554
 110246830.33748  85906717.41846  20979270.3594                   20979277.3164
 116621868.798 7                  22192399.578
 11  7 23  1 20  0.0000000  0  9G10G12G05G09G04G28G27G02G17
 113981807.15147  88817091.69245  21690014.7194                   21690024.2274
 120515771.135 7                  22933395.945
 127383288.223 6                  24240238.906
 117613774.89947  91647151.98545  22381158.3674                   22381169.1134
 106603422.42048  83067677.34746  20285943.1724                   20285951.9384
 123225303.43346  96019742.43843  23449001.9304                   23449010.5664
 119815616.76647  93362879.68744  22800158.3594                   22800168.6024
 110207124.13348  85875777.53846  20971714.5084                   20971721.4804
 116664129.923 7                  22200441.664
 11  7 23  1 20 30.0000000  0  9G10G12G05G09G04G28G27G02G17
 113915084.22147  88765099.84245  21677317.3284                   21677327.1374
 120425436.019 7                  22916205.945
 127277076.481 6                  24220026.852
 117657987.88047  91681603.62245  22389572.1644                   22389581.9224
 106648401.88048  83102726.27046  20294502.6254                   20294511.1254
 123316516.81546  96090817.79244  23466358.8674                   23466369.0394
 119857858.19447  93395795.02244  22808197.0234                   22808207.1804
 110167788.20848  85845126.19446  20964229.0234                   20964236.0514
 116706494.330 7                  22208503.492
 11  7 23  1 21  0.0000000  0  9G10G12G05G09G04G28G27G02G17
 113848784.95747  88713438.11545  21664700.9694                   21664710.5234
 120335274.952 7                  22899048.680
 127170836.924 6                  24199810.516
 117702707.41247  91716449.99445  22398081.7974                   22398091.7504
 106693786.86548  83138091.19946  20303138.8284                   20303147.6994
 123408003.33847  96162105.94544  23483768.4384                   23483778.4264
 119900448.06547  93428981.89244  22816302.1094                   22816311.9024
 110128822.49948  85814763.33246  20956814.2274                   20956820.8054
 116748962.197 7                  22216585.000
 11  7 23  1 21 30.0000000  0  9G10G12G05G09G04G28G27G02G17
 113782912.27647  88662108.79345  21652165.8834                   21652174.8054
 120245290.375 7                  22881925.203
 127064572.312 6                  24179588.672
 117747931.00247  91751689.11945  22406687.4454                   22406697.8554
 106739575.63448  83173770.76446  20311852.1334                   20311861.0594
 123499761.35847  96233605.62044  23501229.3524                   23501239.5904
 119943384.08447  93462438.48945  22824472.4454                   22824482.9414
 110090227.00448  85784688.94146  20949469.6254                   20949476.7624
 116791533.975 7                  22224685.922
 11  7 23  1 22  0.0000000  0  9G10G12G05G09G04G28G27G02G17
 113717469.07247  88611114.13045  21639712.4304                   21639721.7304
 120155484.824 7                  22864836.016
 126958284.864 6                  24159363.250
 117793655.59647  91787318.63945  22415388.6254                   22415398.8164
 106785765.20748  83209762.64046  20320642.0864                   20320650.6094
 123591789.08447  96305315.52344  23518741.6954                   23518751.8364
 119986663.87847  93496162.95244  22832708.1024                   22832718.1764
 110052001.34148  85754902.73946  20942195.4304                   20942202.6564
 116834209.552 8                  22232806.922
 11  7 23  1 22 30.0000000  0  9G10G12G05G09G04G28G27G02G17
 113652459.00047  88560456.97145  21627341.3364                   21627350.7934
 120065860.463 7                  22847780.680
 126851978.101 6                  24139133.539
 117839879.14947  91823336.94945  22424185.3204                   22424194.4144
 106832354.23448  83246065.78446  20329507.3204                   20329516.1804
 123684085.37546  96377234.67244  23536304.4304                   23536315.5044
 120030285.81647  93530153.99144  22841009.2344                   22841019.4574
 110014146.03948  85725405.13146  20934991.9844                   20934998.6994
 116876990.279 7                  22240947.125
 11  7 23  1 23  0.0000000  0  9G10G12G05G09G04G28G27G02G17
 113587884.47747  88510139.20445  21615053.2114                   21615063.0594
 119976419.734 7                  22830761.008
 126745654.612 6                  24118901.055
 117886598.86147  91859741.87245  22433075.4224                   22433085.1724
 106879339.98048  83282678.05946  20338448.7034                   20338457.4884
 123776647.86446  96449361.23744  23553919.4384                   23553928.7304
 120074247.23747  93564409.60044  22849374.7034                   22849385.2194
 109976660.72548  85696195.81146  20927858.7274                   20927865.3834
 116919876.360 7                  22249108.469
 11  7 23  1 23 30.0000000  0  9G10G12G05G09G04G28G27G02G17
 113523748.46647  88460163.13745  21602848.7974                   21602858.2734
 119887165.292 7                  22813776.008
 126639317.125 7                  24098664.883
 117933812.06947  91896531.34645  22442059.8914                   22442069.8284
 106926720.60148  83319598.02046  20347464.6254                   20347473.6374
 123869475.67346  96521694.50843  23571584.2274                   23571593.5084
 120118545.91647  93598927.98544  22857804.4774                   22857815.1764
 109939545.34348  85667274.76546  20920795.9224                   20920802.4654
 116962867.890 8                  22257289.820
 11  7 23  1 24  0.0000000  0  9G10G12G05G09G04G28G27G02G17
 113460053.56847  88410530.78845  21590727.8054                   21590736.7734
 119798099.609 7                  22796827.633
 126532967.747 7                  24078427.805
 117981515.60047  91933702.88245  22451137.6954                   22451147.5204
 106974493.05548  83356823.30546  20356555.4774                   20356564.3054
 123962566.62146  96594232.85143  23589297.4924                   23589308.4264
 120163179.19747  93633707.09844  22866297.3914                   22866308.0664
 109902799.28348  85638641.50046  20913803.6094                   20913810.2074
 117005964.922 7                  22265490.984
 11  7 23  1 24 30.0000000  0  9G10G12G05G09G04G28G27G02G17
 113396803.13647  88361244.77345  21578691.4064                   21578700.7384
 119709224.888 7                  22779915.266
 126426609.741 7                  24058188.242
 118029707.26247  91971254.75344  22460308.0634                   22460318.5824
 107022655.76048  83394352.69546  20365720.4614                   20365729.6134
 124055919.25346  96666975.10643  23607061.9384                   23607072.7584
 120208145.25247  93668745.50944  22874855.1954                   22874865.4024
 109866422.77948  85610296.18746  20906881.0474                   20906887.9734
 117049168.621 7                  22273712.602
 11  7 23  1 25  0.0000000  0  9G10G12G05G09G04G28G27G02G17
 113334000.03247  88312307.32545  21566740.1564                   21566749.2114
 119620544.102 7                  22763039.633
 126320245.885 7                  24037948.047
 118078384.19347  92009184.78245  22469570.7664                   22469581.2584
 107071206.39748  83432184.35946  20374959.4384                   20374968.0594
 124149532.07046  96739920.06643  23624876.8524                   23624886.9654
 120253441.72346  93704041.39844  22883474.4534                   22883484.8444
 109830415.91848  85582238.91746  20900029.2894                   20900035.9304
 117092479.159 7                  22281954.188
 11  7 23  1 25 30.0000000  0  9G10G12G05G09G04G28G27G02G17
 113271646.87947  88263720.49145  21554875.2974                   21554884.3874
 119532059.153 7                  22746201.227
 126213878.778 7                  24017706.656
 118127543.36947  92047490.56145  22478925.7504                   22478936.0044
 107120142.41948  83470316.32546  20384271.8364                   20384280.6804
 124243403.27146  96813066.47843  23642740.5784                   23642748.7274
 120299066.00847  93739592.71344  22892156.7274                   22892166.4454
 109794778.14648  85554469.24246  20893247.4694                   20893254.3054
 117135896.971 8                  22290215.938
 11  7 23  1 26  0.0000000  0  9G10G12G05G09G04G28G27G02G17
 113209746.87747  88215486.75445  21543095.7194                   21543105.2304
 119443773.149 7                  22729401.258
 126107511.572 6                  23997465.008
 118177182.60447  92086170.44845  22488371.8134                   22488382.1604
 107169462.01748  83508747.17646  20393656.7974                   20393665.7234
 124337530.94746  96886412.65943  23660652.1954                   23660661.4654
 120345016.13847  93775397.93844  22900900.8834                   22900911.5044
 109759509.64748  85526987.31846  20886535.9384                   20886542.8754
 117179422.391 7                  22298499.094
 11  7 23  1 26 30.0000000  0  9G10G12G05G09G04G28G27G02G17
 113148302.25447  88167607.86445  21531403.5164                   21531412.7544
 119355688.276 7                  22712638.695
 126001146.786 6                  23977224.180
 118227298.62847  92125221.84045  22497909.0864                   22497918.9694
 107219162.53148  83547474.85546  20403114.4064                   20403123.5314
 124431913.49646  96959957.49243  23678612.2504                   23678621.2154
 120391289.52547  93811455.04744  22909706.3914                   22909717.0354
 109724610.10648  85499792.88846  20879894.8284                   20879901.8484
 117223056.008 7                  22306802.070
 11  7 23  1 27  0.0000000  0  9G10G12G05G09G04G28G27G02G17
 113087316.07147  88120086.20345  21519798.2194                   21519807.1604
 119267806.864 7                  22695915.516
 125894787.253 6                  23956984.578
 118277888.74347  92164642.64744  22507536.1954                   22507545.6334
 107269241.58648  83586497.50046  20412644.1024                   20412653.0594
 124526549.16046  97033699.49143  23696621.3364                   23696629.9574
 120437883.81747  93847762.22044  22918572.5394                   22918583.0984
 109690079.00448  85472885.56546  20873324.1024                   20873330.7504
 117266797.945 7                  22315125.500
 11  7 23  1 27 30.0000000  0  9G10G12G05G09G04G28G27G02G17
 113026791.49447  88072924.23445  21508280.6414                   21508289.9454
 119180131.770 7                  22679231.250
 125788435.676 7                  23936746.836
 118328950.23447  92204430.77145  22517252.2194                   22517262.2854
 107319697.44448  83625813.74846  20422245.6094                   20422254.5084
 124621436.35446  97107637.54643  23714677.7114                   23714686.3204
 120484797.01347  93884317.90344  22927500.6644                   22927511.1294
 109655916.74148  85446265.63846  20866823.0394                   20866829.8094
 117310649.107 7                  22323470.547
 11  7 23  1 28  0.0000000  0  9G10G12G05G09G04G28G27G02G17
 112966730.83647  88026123.75246  21496851.5474                   21496861.2464
 119092664.963 7                  22662587.461
 125682094.755 7                  23916511.102
 118380479.93847  92244583.74644  22527058.3054                   22527068.2384
 107370526.99548  83665421.18446  20431918.3524                   20431927.5824
 124716573.31446  97181770.23143  23732781.7894                   23732790.2624
 120532026.28747  93921119.88344  22936487.6954                   22936497.8164
 109622122.50348  85419932.49046  20860392.1414                   20860398.9224
 117354609.600 7                  22331835.422
 11  7 23  1 28 30.0000000  0  9G10G12G05G09G04G28G27G02G17
 112907136.96747  87979687.01145  21485511.2814                   21485520.7114
 119005409.129 7                  22645983.016
 125575767.371 7                  23896277.148
 118432474.95947  92285099.30144  22536952.4924                   22536962.6994
 107421728.28048  83705318.28546  20441661.6484                   20441670.4924
 124811958.13546  97256095.97044  23750933.0634                   23750942.1884
 120579569.18147  93958166.23144  22945534.9694                   22945545.2504
 109588695.92348  85393885.83346  20854031.1954                   20854038.1024
 117398679.763 7                  22340222.156
 11  7 23  1 29  0.0000000  0  9G10G12G05G09G04G28G27G02G17
 112848013.05248  87933616.47145  21474260.5084                   21474269.3714
 118918366.931 7                  22629419.242
 125469456.481 7                  23876047.742
 118484932.59347  92325975.32544  22546934.8364                   22546945.0354
 107473299.23148  83745503.43446  20451475.1094                   20451483.9614
 124907589.31346  97330613.71943  23769130.7894                   23769140.4384
 120627423.67147  93995455.39944  22954640.7664                   22954651.8874
 109555637.40848  85368125.96646  20847740.6954                   20847747.3634
 117442860.561 7                  22348629.211
 11  7 23  1 29 30.0000000  0  9G10G12G05G09G04G28G27G02G17
 112789361.61347  87887914.08445  21463099.5864                   21463108.5204
 118831541.034 7                  22612896.969
 125363164.886 7                  23855820.781
 118537849.93447  92367209.57944  22557004.4924                   22557015.1254
 107525237.46348  83785974.78546  20461358.6954                   20461368.1374
 125003464.82046  97405321.82743  23787375.3444                   23787385.3794
 120675587.29747  94032985.45144  22963806.6884                   22963816.8524
 109522946.50248  85342652.56346  20841519.8054                   20841526.3954
 117487152.027 7                  22357057.578
 11  7 23  1 30  0.0000000  0  9G10G12G05G09G04G28G27G02G17
 112731185.13247  87842581.79945  21452028.4694                   21452037.5164
 118744933.576 7                  22596416.047
 125256894.962 7                  23835597.953
 118591224.12647  92408799.83144  22567161.6414                   22567171.3714
 107577540.33048  83826730.25246  20471311.5394                   20471320.5784
 125099582.84846  97480218.90843  23805665.6724                   23805675.6764
 120724057.22447  94070754.18044  22973029.9454                   22973040.6764
 109490622.37148  85317464.95846  20835368.6484                   20835375.3484
 117531554.544 7                  22365507.602
 11  7 23  1 30 30.0000000  0  9G10G12G05G09G04G28G27G02G17
 112673486.60047  87797621.94945  21441048.7814                   21441057.7424
 118658547.282 7                  22579977.430
 125150650.044 7                  23815379.531
 118645052.68047  92450744.10044  22577404.9304                   22577414.4414
 107630205.94648  83867768.38246  20481333.7894                   20481342.5554
 125195941.73846  97555303.67943  23824002.0004                   23824012.6684
 120772831.31947  94108759.93544  22982311.4224                   22982322.6174
 109458665.38548  85292563.43846  20829287.3204                   20829294.0084
 117576068.752 7                  22373977.789
 11  7 23  1 31  0.0000000  0  9G10G12G05G09G04G28G27G02G17
 112616268.13647  87753036.17645  21430160.3914                   21430169.2704
 118572384.281 7                  22563581.406
 125044432.619 7                  23795167.359
 118699331.84647  92493039.51344  22587733.6334                   22587744.6374
 107683231.44148  83909086.94046  20491423.6484                   20491432.9654
 125292539.55746  97630574.64343  23842384.4224                   23842394.2664
 120821906.99047  94147000.67744  22991650.3204                   22991661.0784
 109427074.70248  85267947.35446  20823275.5864                   20823282.3404
 117620695.269 7                  22382469.969
 11  7 23  1 31 30.0000000  0  9G10G12G05G09G04G28G27G02G17
 112559532.96747  87708826.98945  21419364.2734                   21419373.3794
 118486447.417 7                  22547227.789
 124938245.682 6                  23774960.008
 118754059.14647  92535684.11744  22598148.1254                   22598158.4224
 107736615.02648  83950684.52746  20501582.4844                   20501591.5664
 125389374.86346  97706030.63543  23860811.9694                   23860821.6174
 120871282.08947  94185474.74244  23001046.3444                   23001056.6024
 109395850.27448  85243616.66146  20817334.0314                   20817340.7344
 117665434.140 7                  22390983.766
 11  7 23  1 32  0.0000000  0  9G10G12G05G09G04G28G27G02G17
 112503283.50147  87664996.26745  21408659.9774                   21408669.1374
 118400739.362 7                  22530918.141
 124832092.155 6                  23754759.453
 118809231.59047  92578675.56444  22608647.4454                   22608657.0084
 107790354.14448  83992559.15546  20511809.0234                   20511818.2274
 125486445.46946  97781670.00843  23879283.6174                   23879293.6294
 120920954.05047  94224180.12344  23010497.8914                   23010508.9574
 109364991.86448  85219571.16146  20811461.6644                   20811468.3914
 117710285.944 8                  22399518.469
 11  7 23  1 32 30.0000000  0  9G10G12G05G09G04G28G27G02G17
 112447522.58748  87621546.24745  21398049.1024                   21398058.0984
 118315262.545 7                  22514652.164
 124725974.552 6                  23734566.531
 118864846.29047  92622011.65244  22619230.2664                   22619240.9104
 107844446.51848  84034709.04346  20522102.1484                   20522110.8594
 125583749.68346  97857491.44943  23897800.3914                   23897809.7234
 120970920.31347  94263114.84144  23020006.4384                   23020017.4694
 109334499.15248  85195810.62946  20805659.0314                   20805665.8524
 117755251.393 7                  22408075.734
 11  7 23  1 33  0.0000000  0  9G10G12G05G09G04G28G27G02G17
 112392252.81447  87578478.94045  21387531.7894                   21387540.8054
 118230019.689 7                  22498431.352
 124619895.812 7                  23714380.250
 118920899.94047  92665689.77944  22629897.6334                   22629907.3554
 107898889.75248  84077132.34246  20532462.2584                   20532471.7274
 125681285.68246  97933493.52043  23916361.2424                   23916369.1954
 121021178.42947  94302276.95644  23029570.7034                   23029581.0904
 109304371.69748  85172334.71546  20799925.9064                   20799932.8204
 117800330.658 7                  22416653.898
 11  7 23  1 33 30.0000000  0  9G10G12G05G09G04G28G27G02G17
 112337476.66148  87535796.25345  21377107.9144                   21377116.5744
 118145013.205 7                  22482254.922
 124513859.099 7                  23694202.133
 118977389.78247  92709707.79045  22640646.6644                   22640656.7734
 107953681.83548  84119827.46046  20542888.9384                   20542897.8874
 125779051.68946  98009674.81043  23934964.5554                   23934973.6524
 121071725.97947  94341664.61344  23039189.3524                   23039200.2034
 109274609.37048  85149143.30946  20794262.6334                   20794269.2624
 117845524.348 7                  22425254.180
 11  7 23  1 34  0.0000000  0  9G10G12G05G09G04G28G27G02G17
 112283197.07448  87493500.50945  21366779.0314                   21366788.1844
 118060245.305 7                  22466124.281
 124407867.356 6                  23674032.039
 119034312.72847  92754063.27844  22651479.0084                   22651489.0744
 108008820.15148  84162792.38146  20553381.6804                   20553390.6764
 125877045.85346  98086033.87443  23953612.8054                   23953621.7344
 121122560.57647  94381275.93544  23048863.1644                   23048873.5944
 109245211.59748  85126235.96746  20788668.0864                   20788674.8094
 117890833.181 7                  22433875.617
 11  7 23  1 34 30.0000000  0  9G10G12G05G09G04G28G27G02G17
 112229416.29048  87451593.44645  21356544.4384                   21356554.1374
 117975718.726 7                  22450039.406
 124301922.942 6                  23653871.469
 119091665.83547  92798753.97045  22662392.9844                   22662403.2664
 108064302.43248  84206025.31446  20563939.3204                   20563948.4774
 125975266.20545  98162569.17143  23972303.0634                   23972312.8914
 121173679.46247  94421108.77544  23058591.2274                   23058601.6884
 109216177.94548  85103612.35846  20783143.3754                   20783150.0084
 117936257.392 7                  22442519.867
 11  7 23  1 35  0.0000000  0  9G10G12G05G09G04G28G27G02G17
 112176137.14848  87410077.26045  21346405.9144                   21346415.3954
 117891436.294 7                  22434000.820
 124196029.192 7                  23633720.422
 119149446.00247  92843777.44445  22673388.0634                   22673397.9104
 108120126.45748  84249524.55046  20574562.3134                   20574571.4574
 126073711.37245  98239279.64343  23991036.9774                   23991046.8134
 121225080.49447  94461161.47644  23068371.7504                   23068382.5514
 109187508.47048  85081272.52346  20777687.5704                   20777694.2544
 117981797.563 8                  22451186.219
 11  7 23  1 35 30.0000000  0  9G10G12G05G09G04G28G27G02G17
 112123361.60448  87368953.50645  21336363.4304                   21336372.4224
 117807400.088 7                  22418009.617
 124090188.524 7                  23613579.414
 119207649.77047  92889130.96845  22684463.9924                   22684473.7734
 108176289.53448  84293287.98446  20585249.7424                   20585259.2154
 126172378.72646  98316163.26743  24009812.4534                   24009822.2774
 121276760.74347  94501431.70744  23078206.1484                   23078216.9924
 109159201.85348  85059215.43346  20772301.0634                   20772307.9574
 118027453.827 7                  22459873.984
 11  7 23  1 36  0.0000000  0  9G10G12G05G09G04G28G27G02G17
 112071092.24848  87328224.16846  21326416.9614                   21326426.0314
 117723613.109 7                  22402065.609
 123984403.914 6                  23593448.836
 119266274.10147  92934812.23744  22695619.5394                   22695630.2154
 108232789.46948  84337313.90146  20596001.2664                   20596010.6374
 126271266.65846  98393218.75443  24028631.1094                   24028640.4414
 121328717.66547  94541917.56444  23088094.0784                   23088104.3524
 109131258.18648  85037441.17246  20766983.8444                   20766990.5124
 118073226.999 7                  22468584.438
 11  7 23  1 36 30.0000000  0  9G10G12G05G09G04G28G27G02G17
 112019332.39548  87287891.85546  21316567.0864                   21316576.3244
 117640077.995 7                  22386169.117
 123878678.659 7                  23573329.945
 119325316.79047  92980819.47344  22706855.8364                   22706865.3484
 108289624.62848  84381601.02546  20606816.6564                   20606825.9384
 126370373.83346  98470445.10043  24047489.9384                   24047499.8594
 121380949.40647  94582617.53144  23098032.9224                   23098043.7274
 109103677.76648  85015949.95046  20761735.1954                   20761741.9344
 118119117.688 7                  22477316.977
 11  7 23  1 37  0.0000000  0  9G10G12G05G09G04G28G27G02G17
 111968083.77247  87247957.90546  21306814.3594                   21306823.9964
 117556797.010 7                  22370321.063
 123773015.136 7                  23553223.453
 119384773.90647  93027149.64845  22718169.7734                   22718179.8714
 108346791.58748  84426146.70846  20617695.2894                   20617704.2424
 126469697.50946  98547840.20043  24066390.3444                   24066400.6454
 121433452.63947  94623529.07144  23108024.1804                   23108034.9024
 109076459.22448  84994740.71146  20756555.7114                   20756562.1214
 118165126.028 7                  22486071.984
 11  7 23  1 37 30.0000000  0  9G10G12G05G09G04G28G27G02G17
 111917349.39248  87208424.65446  21297160.4694                   21297169.3714
 117473772.523 7                  22354522.156
 123667416.699 6                  23533127.914
 119444642.87647  93073800.76144  22729562.3364                   22729572.8634
 108404288.74948  84470949.68946  20628636.4774                   20628645.2584
 126569236.57946  98625403.13143  24085332.7504                   24085341.8164
 121486225.45347  94664650.66544  23118066.9774                   23118077.7074
 109049602.68648  84973813.55246  20751445.2114                   20751451.9384
 118211252.994 7                  22494850.063
 11  7 23  1 38  0.0000000  0  9G10G12G05G09G04G28G27G02G17
 111867131.52847  87169293.89646  21287604.1954                   21287613.4024
 117391007.510 7                  22338772.320
 123561886.353 7                  23513045.695
 119504920.58447  93120770.36144  22741033.0084                   22741042.9224
 108462113.84048  84516008.19246  20639640.6484                   20639649.4454
 126668988.78146  98703132.11143  24104314.0084                   24104324.8594
 121539265.14347  94705980.20344  23128159.4384                   23128170.4534
 109023107.69248  84953168.11146  20746402.9224                   20746409.5944
 118257498.954 7                  22503650.078
 11  7 23  1 38 30.0000000  0  9G10G12G05G09G04G28G27G02G17
 111817431.89547  87130566.94246  21278146.4144                   21278155.3754
 117308503.982 7                  22323072.383
 123456426.168 7                  23492978.180
 119565603.32447  93168055.57544  22752580.2194                   22752590.7234
 108520263.67448  84561319.75046  20650706.0554                   20650714.6684
 126768951.95346  98781025.49443  24123336.9614                   24123346.8834
 121592568.45747  94747515.18944  23138303.1094                   23138313.9614
 108996972.83448  84932803.30246  20741429.9304                   20741436.2974
 118303863.839 7                  22512473.133
 11  7 23  1 39  0.0000000  0  9G10G12G05G09G04G28G27G02G17
 111768253.43447  87092246.10246  21268788.4384                   21268797.1174
 117226265.043 7                  22307423.000
 123351039.647 7                  23472923.773
 119626688.54547  93215654.41745  22764204.5784                   22764214.7934
 108578736.64548  84606883.10646  20661833.0234                   20661841.4264
 126869124.33046  98859081.89842  24142398.2894                   24142408.8364
 121646133.49847  94789254.08444  23148496.6804                   23148507.3754
 108971198.64148  84912719.53346  20736524.9614                   20736531.9884
 118350348.710 7                  22521319.016
 11  7 23  1 39 30.0000000  0  9G10G12G05G09G04G28G27G02G17
 111719598.59148  87054333.27545  21259529.2424                   21259537.7664
 117144293.020 7                  22291823.484
 123245729.805 7                  23452883.383
 119688172.87647  93263564.24745  22775904.7114                   22775914.5314
 108637530.28648  84652696.32946  20673021.1804                   20673030.2344
 126969504.03146  98937299.89842  24161500.6724                   24161509.8014
 121699957.71447  94831194.95944  23158738.4844                   23158749.2344
 108945784.42148  84892916.26146  20731688.6334                   20731695.6994
 118396953.941 7                  22530187.391
 11  7 23  1 40  0.0000000  0  9G10G12G05G09G04G28G27G02G17
 111671469.72247  87016830.30245  21250370.6024                   21250379.7194
 117062590.590 7                  22276276.641
 123140499.297 7                  23432859.031
 119750053.03647  93311782.51945  22787679.9614                   22787690.6174
 108696642.07448  84698757.47346  20684269.4924                   20684278.6724
 127070089.09245  99015677.89642  24180640.3594                   24180650.7274
 121754038.19447  94873335.52044  23169030.1414                   23169040.4804
 108920729.55848  84873393.01646  20726921.4304                   20726927.7854
 118443680.107 7                  22539079.273
 11  7 23  1 40 30.0000000  0  9G10G12G05G09G04G28G27G02G17
 111623869.09947  86979738.93745  21241312.7424                   21241321.7974
 116981159.995 7                  22260781.055
 123035351.022 7                  23412850.063
 119812325.76647  93360306.68644  22799529.9454                   22799540.9534
 108756069.61748  84745064.64446  20695578.4064                   20695587.3984
 127170877.38745  99094214.14042  24199819.2584                   24199831.0314
 121808372.34747  94915673.73444  23179369.5084                   23179380.0784
 108896033.17148  84854149.09446  20722221.6884                   20722228.4534
 118490527.737 7                  22547994.313
 11  7 23  1 41  0.0000000  0  9G10G12G05G09G04G28G27G02G17
 111576799.25847  86943061.18245  21232355.4924                   21232364.4144
 116900004.503 7                  22245337.422
 122930287.819 7                  23392856.781
 119874988.05047  93409134.37844  22811454.9224                   22811465.2624
 108815810.88448  84791616.28146  20706946.7584                   20706956.0594
 127271867.20245  99172907.51042  24219038.7424                   24219048.4924
 121862957.82847  94958207.78944  23189756.5634                   23189767.6454
 108871695.21248  84835184.47146  20717590.2734                   20717597.2504
 118537496.874 7                  22556931.703
 11  7 23  1 41 30.0000000  0  9G10G12G05G09G04G28G27G02G17
 111530261.99647  86906798.42645  21223499.5864                   21223508.6954
 116819126.231 7                  22229947.297
 122825312.602 7                  23372880.289
 119938036.63747  93458263.10344  22823452.3444                   22823462.8954
 108875863.38748  84838410.43646  20718374.5234                   20718383.7424
 127373056.48146  99251756.24843  24238293.9844                   24238304.2774
 121917791.78947  95000935.48744  23200191.3444                   23200202.0164
 108847715.03548  84816498.63546  20713027.2584                   20713033.4144
 118584588.232 7                  22565893.313
 11  7 23  1 42  0.0000000  0  9G10G12G05G09G04G28G27G02G17
 111484260.30047  86870952.96545  21214745.7274                   21214754.8054
 116738527.950 7                  22214609.625
 122720428.910 7                  23352921.422
 120001468.67847  93507690.61844  22835523.2344                   22835533.5274
 108936224.92148  84885445.39746  20729860.6884                   20729869.5084
 127474443.49846  99330759.13243  24257586.8364                   24257596.9064
 121972872.19247  95043855.22444  23210673.3754                   23210683.6254
 108824092.81748  84798091.73746  20708531.8444                   20708538.1954
 118631802.732 7                  22574877.586
 11  7 23  1 42 30.0000000  0  9G10G12G05G09G04G28G27G02G17
 111438795.62447  86835525.99745  21206093.9384                   21206103.1254
 116658211.734 7                  22199325.969
 122615638.911 6                  23332980.625
 120065280.12747  93557413.78444  22847665.7114                   22847676.4734
 108996892.64748  84932718.95546  20741405.4454                   20741414.4494
 127576025.68046  99409914.02043  24276918.0864                   24276927.6374
 122028195.65747  95086964.36644  23221200.2344                   23221211.5434
 108800826.80748  84779962.40346  20704104.7424                   20704110.9024
 118679140.650 7                  22583886.492
 11  7 23  1 43  0.0000000  0  9G10G12G05G09G04G28G27G02G17
 111393870.84247  86800519.68945  21197544.9844                   21197554.3284
 116578180.515 7                  22184096.828
 122510946.136 7                  23313059.133
 120129468.53347  93607430.66544  22859880.6024                   22859890.4924
 109057864.91348  84980229.80746  20753008.1804                   20753017.4104
 127677801.80146  99489220.07943  24296284.5474                   24296294.9184
 122083760.24847  95130261.38944  23231773.9454                   23231785.3794
 108777917.28248  84762110.84346  20699745.0864                   20699751.0274
 118726602.342 7                  22592917.039
 11  7 23  1 43 30.0000000  0  9G10G12G05G09G04G28G27G02G17
 111349487.74247  86765935.49746  21189099.5634                   21189108.3404
 116498436.688 7                  22168921.328
 122406352.952 7                  23293155.117
 120194030.40447  93657738.56244  22872166.2114                   22872176.8444
 109119138.78448  85027975.68146  20764668.4384                   20764677.3984
 127779769.35146  99568675.29343  24315690.0314                   24315699.0354
 122139562.75247  95173743.80244  23242393.2194                   23242404.0124
 108755363.16548  84744536.22346  20695452.9064                   20695459.3674
 118774188.314 7                  22601973.461
 11  7 23  1 44  0.0000000  0  9G10G12G05G09G04G28G27G02G17
 111305649.26547  86731775.68546  21180756.9384                   21180765.7854
 116418983.519 7                  22153802.555
 122301863.060 7                  23273271.047
 120258963.35547  93708335.60544  22884523.5234                   22884533.1454
 109180712.70848  85075955.37446  20776385.3594                   20776394.1524
 127881926.90746  99648278.53743  24335128.9924                   24335139.2034
 122195601.19747  95217410.06644  23253056.3134                   23253067.8324
 108733164.67448  84727238.71646  20691228.6334                   20691234.9774
 118821899.743 7                  22611051.859
 11  7 23  1 44 30.0000000  0  8G10G12G05G09G04G27G02G17
 111262357.20748  86698041.64746  21172519.2814                   21172528.0474
 116339823.358 7                  22138738.055
 122197479.088 6                  23253407.023
 120324263.19746  93759218.52444  22896949.0234                   22896959.4964
 109242584.01348  85124166.78146  20788158.9774                   20788168.0904
 122251872.32547  95261257.65944  23263764.9534                   23263776.4344
 108711320.54748  84710217.33946  20687071.6644                   20687078.5434
 118869736.642 7                  22620155.742
 11  7 23  1 45  0.0000000  0  8G10G12G05G09G04G27G02G17
 111219613.70848  86664735.06746  21164384.6884                   21164393.6884
 116260958.291 7                  22123731.047
 122093203.704 7                  23233564.352
 120389926.98447  93810385.05544  22909444.1484                   22909454.1564
 109304750.09648  85172607.88646  20799988.8914                   20799997.5314
 122308373.72147  95305284.66844  23274516.2114                   23274527.7304
 108689830.47448  84693471.84546  20682982.3984                   20682988.9384
 118917699.681 7                  22629281.789
 11  7 23  1 45 30.0000000  0  8G10G12G05G09G04G27G02G17
 111177420.71148  86631857.42346  21156356.1724                   21156364.9144
 116182390.807 7                  22108779.914
 121989040.044 7                  23213742.734
 120455951.12147  93861832.37644  22922008.6414                   22922019.2304
 109367208.77848  85221277.00046  20811874.2584                   20811882.8914
 122365102.64447  95349488.97344  23285312.1724                   23285322.8954
 108668693.57748  84677001.56646  20678960.3594                   20678966.8634
 118965789.100 7                  22638434.055
 11  7 23  1 46  0.0000000  0  8G10G12G05G09G04G27G02G17
 111135780.15548  86599410.28745  21148432.0004                   21148440.6604
 116104123.681 7                  22093886.391
 121884990.799 6                  23193941.961
 120522332.40246  93913557.98144  22934640.3284                   22934650.9024
 109429957.57248  85270172.17646  20823815.1174                   20823823.7854
 122422056.28647  95393868.39644  23296149.9924                   23296160.7934
 108647909.20948  84660805.98046  20675005.5394                   20675011.5784
 119014005.252 7                  22647608.555
 11  7 23  1 46 30.0000000  0  8G10G12G05G09G04G27G02G17
 111094694.02048  86567395.14445  21140613.9144                   21140622.3634
 116026159.590 7                  22079050.266
 121781058.892 7                  23174164.711
 120589067.50947  93965559.29544  22947339.6024                   22947350.0354
 109492993.95248  85319291.43646  20835810.3134                   20835819.2274
 122479231.92147  95438420.77744  23307030.4694                   23307041.2154
 108627476.64748  84644884.52446  20671116.5314                   20671123.0554
 119062348.657 7                  22656807.813
 11  7 23  1 47  0.0000000  0  8G10G12G05G09G04G27G02G17
 111054164.34348  86535813.60446  21132900.8594                   21132909.7664
 115948500.897 7                  22064272.555
 121677247.178 7                  23154409.758
 120656153.02947  94017833.64044  22960106.0164                   22960116.5204
 109556315.55748  85368632.95546  20847860.1884                   20847868.9414
 122536626.70547  95483143.94044  23317952.5474                   23317962.8634
 108607395.17348  84629236.64846  20667295.5004                   20667301.7774
 119110819.947 7                  22666032.070
 11  7 23  1 47 30.0000000  0  8G10G12G05G09G04G27G02G17
 111014193.60647  86504667.61245  21125294.9844                   21125303.7664
 115871150.243 7                  22049552.523
 121573559.201 7                  23134678.461
 120723585.78347  94070378.58344  22972937.7814                   22972948.7114
 109619920.53048  85418195.28346  20859963.7034                   20859972.6054
 122594238.57047  95528036.27044  23328915.4774                   23328926.1054
 108587664.56948  84613862.18246  20663540.9064                   20663547.3284
 119159419.827 7                  22675280.266
 11  7 23  1 48  0.0000000  0  8G10G12G05G09G04G27G02G17
 110974783.86047  86473958.74346  21117795.2504                   21117804.4344
 115794110.351 7                  22034892.516
 121469997.606 7                  23114971.430
 120791362.77247  94123191.76644  22985835.1024                   22985845.6884
 109683806.50748  85467976.56546  20872120.8054                   20872129.6804
 122652064.68547  95573095.53344  23339919.3594                   23339930.9924
 108568284.09748  84598760.53646  20659853.0314                   20659859.2774
 119208148.640 7                  22684552.617
 11  7 23  1 48 30.0000000  0  8G10G12G05G09G04G27G02G17
 110935936.94848  86443688.46646  21110403.0004                   21110411.9574
 115717383.635 7                  22020292.133
 121366565.385 7                  23095289.234
 120859480.80047  94176270.67344  22998797.4384                   22998807.9614
 109747971.04048  85517974.90246  20884331.0944                   20884340.4924
 122710102.43147  95618319.69944  23350964.0474                   23350974.9104
 108549253.23648  84583931.32146  20656231.6414                   20656237.5784
 119257006.996 7                  22693850.867
 11  7 23  1 49  0.0000000  0  8G10G12G05G09G04G27G02G17
 110897654.71447  86413858.19146  21103117.9614                   21103126.5704
 115640972.544 7                  22005751.211
 121263265.445 7                  23075631.688
 120927935.98247  94229612.31644  23011824.8134                   23011834.8164
 109812411.67548  85568188.38446  20896593.7194                   20896602.3714
 122768348.88946  95663706.49044  23362047.5314                   23362058.8134
 108530570.92948  84569373.70346  20652676.4384                   20652682.6024
 119305995.316 7                  22703173.102
 11  7 23  1 49 30.0000000  0  8G10G12G05G09G04G27G02G17
 110859938.72647  86384469.13545  21095941.0004                   21095949.6884
 115564879.640 7                  21991271.328
 121160100.484 7                  23055999.859
 120996725.10647  94283214.16544  23024914.8524                   23024925.2234
 109877126.09148  85618615.20046  20908908.2114                   20908917.3054
 122826801.19647  95709253.73044  23373170.4064                   23373182.1134
 108512236.45348  84555087.11646  20649187.5704                   20649193.6604
 119355114.165 7                  22712519.914
 11  7 23  1 50  0.0000000  0  8G10G12G05G09G04G27G02G17
 110822791.41548  86355523.21346  21088872.0784                   21088880.7584
 115489107.504 7                  21976852.086
 121057073.778 7                  23036394.234
 121065844.85347  94337073.67344  23038067.8914                   23038078.2624
 109942112.06848  85669253.61446  20921274.6564                   20921283.7344
 122885456.85647  95754959.37444  23384332.3134                   23384343.8754
 108494249.23748  84541071.13846  20645764.3284                   20645770.6844
 119404364.179 7                  22721891.992
 11  7 23  1 50 30.0000000  0  8G10G12G05G09G04G27G02G17
 110786214.45147  86327021.72045  21081911.9384                   21081920.6054
 115413658.793 7                  21962494.422
 120954188.143 7                  23016816.141
 121135292.10247  94391188.34844  23051283.5234                   23051294.0704
 110007367.32948  85720101.87046  20933692.5634                   20933701.1844
 122944313.02246  95800821.26844  23395532.5004                   23395543.5664
 108476608.59848  84527325.20846  20642407.2274                   20642413.6414
 119453745.678 7                  22731288.563
 11  7 23  1 51  0.0000000  0  8G10G12G05G09G04G27G02G17
 110750209.64848  86298966.06446  21075060.4304                   21075068.4494
 115338536.233 8                  21948199.641
 120851446.820 7                  22997264.188
 121205063.37547  94445555.54244  23064560.6564                   23064570.8364
 110072889.62848  85771158.19946  20946161.0554                   20946170.4654
 123003367.33147  95846837.55444  23406770.0084                   23406781.4614
 108459314.05448  84513848.97646  20639116.0784                   20639122.6724
 119503259.362 7                  22740710.688
 11  7 23  1 51 30.0000000  0  8G10G12G05G09G04G27G02G17
 110714779.41148  86271358.12246  21068318.1564                   21068326.7624
 115263742.282 7                  21933966.602
 120748853.130 7                  22977742.031
 121275155.69047  94500172.89344  23077898.4614                   23077909.0124
 110138677.07748  85822421.12646  20958679.9534                   20958689.1604
 123062617.11947  95893006.17444  23418044.6334                   23418056.5314
 108442365.21748  84500642.10646  20635891.1254                   20635897.5784
 119552905.920 7                  22750158.930
 11  7 23  1 52  0.0000000  0  8G10G12G05G09G04G27G02G17
 110679925.28348  86244199.10246  21061685.4454                   21061693.8834
 115189279.521 7                  21919796.766
 120646409.535 7                  22958247.227
 121345565.41247  94555037.56944  23091297.0634                   23091307.4414
 110204726.79448  85873888.42646  20971248.9064                   20971258.1094
 123122059.47947  95939324.84644  23429356.4304                   23429367.5434
 108425760.76848  84487703.59346  20632731.1414                   20632737.8634
 119602685.584 7                  22759631.227
 11  7 23  1 52 30.0000000  0  8G10G12G05G09G04G27G02G17
 110645649.04248  86217490.38445  21055162.9064                   21055171.2114
 115115150.497 7                  21905690.141
 120544118.881 7                  22938781.773
 121416288.99847  94610146.81644  23104754.9774                   23104766.0124
 110271036.39948  85925558.24146  20983866.9924                   20983875.8794
 123181691.45746  95985791.25444  23440704.2114                   23440715.6094
 108409499.93148  84475032.84346  20629636.8914                   20629643.5634
 119652598.911 7                  22769129.453
 11  7 23  1 53  0.0000000  0  8G10G12G05G09G04G27G02G17
 110611952.37748  86191233.27446  21048750.9454                   21048759.5394
 115041357.580 7                  21891648.352
 120441984.033 7                  22919346.133
 121487323.04047  94665497.98144  23118272.7664                   23118283.2424
 110337603.54248  85977428.73746  20996534.2894                   20996543.2584
 123241510.20946  96032403.20144  23452087.7194                   23452098.6954
 108393581.41248  84462628.82946  20626607.7344                   20626614.3364
 119702645.994 7                  22778652.547
 11  7 23  1 53 30.0000000  0  8G10G12G05G09G04G27G02G17
 110578836.82748  86165428.99446  21042448.9774                   21042457.5944
 114967903.482 7                  21877670.766
 120340008.385 7                  22899940.945
 121558664.32047  94721088.55844  23131848.5084                   23131859.7114
 110404426.07048  86029498.22146  21009250.0234                   21009259.0944
 123301513.33246  96079158.82044  23463506.2194                   23463517.2974
 108378005.34548  84450491.64246  20623643.6024                   20623650.0314
 119752827.909 7                  22788202.477
 11  7 23  1 54  0.0000000  0  8G10G12G05G09G04G27G02G17
 110546304.22848  86140078.95046  21036257.9064                   21036266.3364
 114894790.600 7                  21863757.344
 120238194.880 7                  22880565.922
 121630309.23547  94776915.73144  23145481.7504                   23145492.8634
 110471502.03148  86081765.20946  21022014.2034                   21022023.0204
 123361698.29746  96126056.15544  23474958.4924                   23474969.8794
 108362771.06148  84438620.80946  20620744.7344                   20620751.1954
 119803145.442 7                  22797777.594
 11  7 23  1 54 30.0000000  0  8G10G12G05G09G04G27G02G17
 110514356.26548  86115184.46346  21030178.7974                   21030187.2974
 114822021.596 7                  21849909.969
 120136546.150 7                  22861223.305
 121702254.83647  94832977.20244  23159173.4224                   23159183.5164
 110538828.76748  86134227.60246  21034826.2194                   21034835.3164
 123422062.12346  96173092.83544  23486445.9924                   23486456.8484
 108347877.32448  84427015.31446  20617910.4144                   20617917.0784
 119853598.451 7                  22807378.992
 11  7 23  1 55  0.0000000  0  8G10G12G05G09G04G27G02G17
 110482994.66048  86090746.88245  21024210.6414                   21024219.2114
 114749599.063 8                  21836128.539
 120035065.523 7                  22841912.164
 121774497.75847  94889270.38944  23172919.5784                   23172930.7664
 110606404.25948  86186883.82046  21047685.4144                   21047694.5594
 123482602.04546  96220266.76944  23497966.3204                   23497977.0824
 108333323.67248  84415674.83546  20615140.9844                   20615147.3674
 119904187.764 7                  22817005.563
 11  7 23  1 55 30.0000000  0  8G10G12G05G09G04G27G02G17
 110452221.08448  86066767.50446  21018354.8674                   21018363.3954
 114677525.455 7                  21822413.430
 119933755.780 7                  22822633.789
 121847034.52447  94945792.51244  23186723.8984                   23186734.1764
 110674226.14948  86239732.04646  21060591.3754                   21060600.5124
 123543315.12947  96267575.62144  23509519.2114                   23509531.2934
 108319109.09048  84404598.55146  20612435.9454                   20612442.4534
 119954913.786 7                  22826657.883
 11  7 23  1 56  0.0000000  0  8G10G12G05G09G04G27G02G17
 110422037.30248  86043247.71546  21012611.0944                   21012619.5864
 114605803.291 8                  21808764.891
 119832619.849 7                  22803387.500
 121919861.61247  95002540.83944  23200582.0474                   23200592.6374
 110742292.07548  86292770.42646  21073544.1564                   21073553.0594
 123604198.95947  96315017.52144  23521105.1804                   23521117.0704
 108305232.87448  84393785.93646  20609795.4614                   20609801.5944
 120005777.302 7                  22836336.227
 11  7 23  1 56 30.0000000  0  8G10G12G05G09G04G27G02G17
 110392445.07048  86020188.85846  21006979.7344                   21006987.9304
 114534435.039 7                  21795184.070
 119731661.060 7                  22784175.891
 121992975.73047  95059512.85144  23214495.4614                   23214505.9384
 110810599.85648  86345997.27146  21086542.3364                   21086551.5554
 123665250.92047  96362590.43444  23532722.8834                   23532733.8714
 108291694.24848  84383236.37546  20607219.0784                   20607225.3954
 120056778.604 7                  22846042.375
 11  7 23  1 57  0.0000000  0  8G10G12G05G09G04G27G02G17
 110363445.72748  85997591.99046  21001461.0234                   21001469.9614
 114463423.449 7                  21781670.922
 119630882.472 7                  22764998.063
 122066373.53447  95116705.88844  23228462.3444                   23228473.5234
 110879147.59948  86399411.11046  21099586.4844                   21099595.6374
 123726468.16047  96410292.12644  23544371.9614                   23544383.8364
 108278492.72348  84372949.49946  20604707.1954                   20604713.4574
 120107918.441 7                  22855774.063
 11  7 23  1 57 30.0000000  0  8G10G12G05G09G04G27G02G17
 110335040.82748  85975458.32846  20996055.9774                   20996064.3444
 114392771.043 7                  21768226.109
 119530286.982 7                  22745855.641
 122140051.45547  95174117.20144  23242483.0554                   23242493.7344
 110947932.69548  86453009.89146  21112675.9614                   21112685.2424
 123787847.95847  96458120.51544  23556052.9384                   23556063.8914
 108265627.31748  84362924.52946  20602258.7114                   20602265.3244
 120159197.296 7                  22865531.664
 11  7 23  1 58  0.0000000  0  8G10G12G05G09G04G27G02G17
 110307231.43548  85953788.67946  20990763.6884                   20990772.5474
 114322480.361 7                  21754850.078
 119429876.938 7                  22726748.188
 122214005.49047  95231743.68644  23256556.0634                   23256566.7974
 111016952.67448  86506791.70146  21125810.0234                   21125819.1764
 123849386.95347  96506072.94743  23567763.3524                   23567774.3324
 108253096.54448  84353160.30546  20599874.2274                   20599880.4144
 120210615.369 7                  22875316.289
 11  7 23  1 58 30.0000000  0  8G10G12G05G09G04G27G02G17
 110280019.22148  85932584.38446  20985585.3834                   20985594.3364
 114252553.072 8                  21741544.141
 119329655.537 7                  22707676.430
 122288232.87247  95289583.15544  23270680.4534                   23270692.0824
 111086205.24548  86560754.75346  21138988.5234                   21138997.0664
 123911082.46747  96554147.36343  23579503.0234                   23579514.0474
 108240899.60748  84343656.21546  20597553.2344                   20597559.8404
 120262173.222 6                  22885127.453
 11  7 23  1 59  0.0000000  0  8G10G12G05G09G04G27G02G17
 110253406.55948  85911847.25946  20980521.5784                   20980530.0164
 114182992.595 8                  21728306.664
 119229626.420 7                  22688641.656
 122362730.69747  95347633.35144  23284857.1724                   23284867.9144
 111155688.74348  86614897.74646  21152210.7584                   21152219.6174
 123972932.59647  96602342.21344  23591272.6334                   23591284.2814
 108229036.64748  84334412.37246  20595295.7034                   20595302.3404
 120313871.832 7                  22894965.242
 11  7 23  1 59 30.0000000  0  8G10G12G05G09G04G27G02G17
 110227393.94048  85891577.71246  20975571.3754                   20975579.9964
 114113801.290 7                  21715140.063
 119129792.393 7                  22669643.445
 122437495.00147  95405891.20444  23299084.4844                   23299095.7934
 111225400.52948  86669218.63246  21165476.2274                   21165485.3404
 124034934.01347  96650654.94443  23603071.2584                   23603082.3014
 108217506.06048  84325427.52146  20593101.4224                   20593108.0434
 120365711.114 7                  22904830.234
 11  7 23  2  0  0.0000000  0  9G10G12G05G09G04G25G27G02G17
 110201982.66948  85871776.73846  20970735.5704                   20970744.4844
 114044981.249 7                  21702044.227
 119030155.985 7                  22650683.727
 122512522.42747  95464354.08944  23313362.3754                   23313372.9304
 111295338.32548  86723715.63246  21178785.0164                   21178793.5904
 129525703.69017                  24647926.461
 124097084.03947  96699083.48943  23614898.3444                   23614909.6524
 108206307.23648  84316701.17146  20590970.6484                   20590976.7624
 120417691.830 6                  22914721.211
 11  7 23  2  0 30.0000000  0  9G10G12G05G09G04G25G27G02G17
 110177174.39748  85852445.63446  20966014.8674                   20966023.8054
 113976535.403 8                  21689019.383
 118930720.339 7                  22631760.703
 122587809.41747  95523019.23744  23327688.7504                   23327699.6334
 111365500.11748  86778387.16946  21192136.7734                   21192145.6604
 129422416.760 7                  24628271.422
 124159380.13447  96747625.86243  23626752.5704                   23626763.7814
 108195439.43648  84308232.77146  20588902.3754                   20588908.7774
 120469814.596 6                  22924639.883
 11  7 23  2  1  0.0000000  0  9G10G12G05G09G04G25G27G02G17
 110152970.72048  85833585.64646  20961409.0474                   20961417.6844
 113908466.244 7                  21676065.945
 118831488.561 7                  22612878.438
 122663352.61647  95581883.99144  23342064.2274                   23342074.8914
 111435883.52848  86833231.40446  21205529.9064                   21205538.6414
 129319239.260 7                  24608637.523
 124221819.34746  96796279.69643  23638634.7114                   23638645.9844
 108184901.64648  84300021.52546  20586896.8284                   20586903.3094
 120522080.009 6                  22934586.023
 11  7 23  2  1 30.0000000  0  9G10G12G05G09G04G25G27G02G17
 110129372.91848  85815197.76046  20956918.3054                   20956927.2034
 113840776.376 7                  21663185.023
 118732463.593 7                  22594033.656
 122739148.91347  95640946.03344  23356487.8674                   23356498.6994
 111506486.78648  86888246.93646  21218965.0634                   21218974.0314
 129216173.775 7                  24589024.836
 124284399.14746  96845043.11744  23650543.2274                   23650554.5824
 108174693.39148  84292067.04546  20584954.2814                   20584960.7464
 120574488.596 6                  22944559.289
 11  7 23  2  2  0.0000000  0  9G10G12G05G09G04G25G27G02G17
 110106382.02648  85797282.80546  20952543.8054                   20952552.2624
 113773467.835 8                  21650377.188
 118633648.330 7                  22575230.273
 122815194.76147  95700202.49144  23370959.1174                   23370969.6054
 111577307.16148  86943431.65145  21232441.7974                   21232450.9024
 129113222.546 7                  24569433.500
 124347116.54347  96893913.75143  23662477.8754                   23662489.4414
 108164813.23748  84284368.24646  20583074.2814                   20583080.5824
 120627040.540 7                  22954558.977
 11  7 23  2  2 30.0000000  0  9G10G12G05G09G04G25G27G02G17
 110083999.16848  85779841.63946  20948284.2734                   20948292.5594
 113706543.320 8                  21637641.539
 118535045.978 7                  22556466.672
 122891486.60547  95759650.66144  23385476.8054                   23385487.1024
 111648342.64748  86998783.98546  21245959.8444                   21245968.3014
 129010388.079 6                  24549865.078
 124409968.63146  96942889.35043  23674438.7034                   23674450.2274
 108155260.31948  84276924.43346  20581256.5704                   20581262.8364
 120679736.351 7                  22964587.164
 11  7 23  2  3  0.0000000  0  9G10G12G05G09G04G25G27G02G17
 110062226.00748  85762875.56946  20944140.8524                   20944149.2464
 113640005.155 8                  21624979.672
 118436658.959 7                  22537744.047
 122968020.87747  95819287.70944  23400040.9614                   23400051.5164
 111719590.79048  87054302.02246  21259517.8204                   21259526.7624
 128907672.863 6                  24530319.000
 124472952.66646  96991967.75143  23686423.0474                   23686435.7424
 108146033.75348  84269734.93446  20579500.6724                   20579507.2734
 120732576.883 7                  22974642.586
 11  7 23  2  3 30.0000000  0  9G10G12G05G09G04G25G27G02G17
 110041063.65548  85746385.45646  20940113.6334                   20940122.4064
 113573855.690 7                  21612391.758
 118338490.952 7                  22519063.102
 123044794.34647  95879111.14844  23414649.8754                   23414661.0084
 111791049.72848  87109984.31546  21273116.0234                   21273124.9694
 128805079.513 6                  24510796.008
 124536066.16546  97041146.93643  23698434.1334                   23698445.6414
 108137133.04948  84262799.33746  20577807.0634                   20577813.3244
 120785562.460 7                  22984725.523
 11  7 23  2  4  0.0000000  0  9G10G12G05G09G04G25G27G02G17
 110020513.19148  85730372.13846  20936203.0634                   20936211.6214
 113508097.511 7                  21599878.281
 118240544.546 7                  22500424.492
 123121803.69447  95939118.40244  23429304.1954                   23429314.9734
 111862717.12847  87165829.04746  21286753.7274                   21286762.5704
 128702610.326 7                  24491297.031
 124599305.86946  97090424.56043  23710468.0634                   23710480.0394
 108128556.82048  84256116.57546  20576175.0704                   20576181.0164
 120838693.476 7                  22994835.297
 11  7 23  2  4 30.0000000  0  9G10G12G05G09G04G25G27G02G17
 110000575.66748  85714836.44146  20932409.0704                   20932417.5314
 113442732.904 7                  21587439.703
 118142822.623 7                  22481828.773
 123199045.20047  95999306.55744  23444003.1724                   23444013.6484
 111934590.48648  87221834.26646  21300430.6174                   21300439.5594
 128600267.771 7                  24471821.094
 124662669.02046  97139798.35143  23722525.6254                   23722537.5044
 108120303.97148  84249685.80946  20574604.6094                   20574610.6414
 120891970.407 7                  23004973.984
 11  7 23  2  5  0.0000000  0  9G10G12G05G09G04G25G27G02G17
 109981252.17248  85699779.20446  20928731.7664                   20928740.5084
 113377764.380 7                  21575076.758
 118045327.977 7                  22463276.445
 123276515.45747  96059672.97744  23458745.8444                   23458755.8984
 112006667.91148  87277998.51046  21314146.9534                   21314155.7774
 128498054.426 7                  24452371.461
 124726153.06046  97189266.30043  23734606.6564                   23734618.6024
 108112373.58648  84243506.30546  20573095.0944                   20573101.4414
 120945393.663 7                  23015140.234
 11  7 23  2  5 30.0000000  0  9G10G12G05G09G04G25G27G02G17
 109962544.16648  85685201.56946  20925171.9454                   20925180.7934
 113313194.839 7                  21562789.477
 117948064.070 7                  22444767.547
 123354211.10247  96120215.00044  23473530.8134                   23473541.1414
 112078947.34248  87334320.14646  21327901.0474                   21327910.2464
 128395972.911 7                  24432945.563
 124789755.31246  97238826.37343  23746710.1564                   23746721.5704
 108104765.22148  84237577.72246  20571647.6174                   20571654.1294
 120998964.061 7                  23025334.094
 11  7 23  2  6  0.0000000  0  9G10G12G05G09G04G25G27G02G17
 109944452.54948  85671104.24746  20921728.9454                   20921738.0354
 113249026.323 7                  21550578.516
 117851033.581 7                  22426302.766
 123432128.50247  96180929.83744  23488357.5554                   23488368.8914
 112151426.37748  87390797.32646  21341693.2114                   21341702.4574
 128294025.727 6                  24413545.297
 124853472.83146  97288476.31243  23758834.9454                   23758846.6484
 108097477.64348  84231899.10546  20570260.5944                   20570267.0044
 121052681.974 7                  23035556.750
 11  7 23  2  6 30.0000000  0  9G10G12G05G09G04G25G27G02G17
 109926978.40548  85657488.06546  20918404.2344                   20918412.4804
 113185261.386 7                  21538444.578
 117754239.855 7                  22407884.078
 123510264.59647  96241815.11044  23503226.3204                   23503236.9064
 112224103.39248  87447428.77146  21355523.3054                   21355532.3834
 128192215.577 6                  24394171.313
 124917303.04646  97338214.02844  23770981.6884                   23770993.5434
 108090510.33348  84226470.05346  20568934.7734                   20568941.3134
 121106547.883 7                  23045806.492
 11  7 23  2  7  0.0000000  0  9G10G12G05G09G04G25G27G02G17
 109910122.86048  85644353.91846  20915196.6414                   20915204.9024
 113121902.383 7                  21526388.109
 117657685.846 7                  22389510.023
 123588615.95647  96302868.06944  23518135.7664                   23518147.0084
 112296975.72748  87504212.40446  21369391.0164                   21369399.4924
 128090544.843 6                  24374824.250
 124981243.11246  97388037.36244  23783149.4384                   23783161.2624
 108083862.24448  84221289.75346  20567669.5704                   20567675.8834
 121160562.330 7                  23056085.180
 11  7 23  2  7 30.0000000  0  9G10G12G05G09G04G25G27G02G17
 109893886.51848  85631702.24346  20912106.7664                   20912115.1214
 113058951.320 7                  21514408.523
 117561373.753 7                  22371182.250
 123667178.82447  96364085.84344  23533086.3054                   23533097.2504
 112370041.33648  87561146.64146  21383294.4304                   21383303.2544
 127989015.853 7                  24355504.258
 125045290.19546  97437944.04944  23795336.6024                   23795348.4224
 108077531.86448  84216357.01546  20566464.9844                   20566471.5744
 121214725.758 7                  23066392.219
 11  7 23  2  8  0.0000000  0  9G10G12G05G09G04G25G27G02G17
 109878270.54448  85619533.99646  20909135.2584                   20909143.2114
 112996410.815 7                  21502507.391
 117465307.169 7                  22352901.000
 123745949.88346  96425465.85944  23548075.9224                   23548087.1564
 112443298.21248  87618229.91246  21397235.0864                   21397243.6564
 127887631.330 7                  24336210.500
 125109441.50646  97487931.99544  23807544.6804                   23807556.3554
 108071518.70148  84211671.45446  20565320.7114                   20565327.5314
 121269038.615 7                  23076727.555
 11  7 23  2  8 30.0000000  0  9G10G12G05G09G04G25G27G02G17
 109863275.82348  85607849.83746  20906281.7814                   20906290.0744
 112934283.190 8                  21490685.266
 117369488.814 7                  22334667.781
 123824925.67747  96487005.38443  23563104.9534                   23563115.0004
 112516743.96148  87675460.36146  21411210.6414                   21411219.8794
 127786393.747 7                  24316945.969
 125173694.19047  97537998.91144  23819771.7274                   23819783.4304
 108065821.49048  84207232.08646  20564236.9064                   20564243.0274
 121323501.448 7                  23087091.281
 11  7 23  2  9  0.0000000  0  9G10G12G05G09G04G25G27G02G17
 109848903.11248  85596650.35746  20903546.4454                   20903554.8014
 112872570.749 8                  21478941.375
 117273921.522 7                  22316481.906
 123904102.85246  96548701.83044  23578171.3984                   23578182.3164
 112590376.53348  87732836.38545  21425222.6174                   21425231.4654
 127685305.544 7                  24297709.906
 125238045.60147  97588142.78844  23832017.7734                   23832028.9304
 108060439.43548  84203038.28446  20563212.5394                   20563218.8674
 121378114.740 7                  23097484.391
 11  7 23  2  9 30.0000000  0  9G10G12G05G09G04G25G27G02G17
 109835153.43348  85585936.35046  20900930.0234                   20900938.6524
 112811276.141 8                  21467277.250
 117178608.533 7                  22298344.602
 123983478.01346  96610552.55244  23593275.1954                   23593287.1994
 112664193.99248  87790356.48145  21439269.2504                   21439278.6024
 127584369.351 7                  24278502.398
 125302492.95847  97638361.41344  23844281.5314                   23844293.2424
 108055371.52048  84199089.27846  20562248.0164                   20562254.1804
 121432878.980 7                  23107905.031
 11  7 23  2 10  0.0000000  0  9G10G12G05G09G04G25G27G02G17
 109822027.64348  85575708.48946  20898431.8444                   20898440.9384
 112750401.691 8                  21455693.438
 117083552.621 7                  22280255.984
 124063047.74046  96672554.90144  23608417.8674                   23608428.5784
 112738194.31748  87848019.06645  21453351.2344                   21453360.3244
 127483587.857 7                  24259324.086
 125367033.52547  97688652.65544  23856563.4384                   23856574.6994
 108050616.85848  84195384.37446  20561343.0634                   20561349.5514
 121487794.493 7                  23118354.922
 11  7 23  2 10 30.0000000  0  9G10G12G05G09G04G25G27G02G17
 109809526.61848  85565967.45646  20896053.0634                   20896061.9064
 112689950.046 8                  21444189.258
 116988756.955 7                  22262216.883
 124142808.50746  96734706.07844  23623595.2114                   23623606.2734
 112812375.22348  87905822.35345  21467467.0864                   21467476.1914
 127382963.607 7                  24240176.008
 125431664.58447  97739014.42644  23868862.1334                   23868874.1764
 108046174.35548  84191922.70046  20560498.0004                   20560504.1254
 121542861.966 7                  23128834.336
 11  7 23  2 11  0.0000000  0  9G10G12G05G09G04G25G27G02G17
 109797651.04048  85556713.78646  20893793.1954                   20893802.1174
 112629922.994 8                  21432766.656
 116894224.328 7                  22244227.641
 124222756.83046  96797003.38844  23638809.7504                   23638821.2544
 112886734.58748  87963764.71045  21481617.7734                   21481626.5314
 127282498.994 7                  24221058.016
 125496383.23946  97789444.45543  23881177.8444                   23881189.0314
 108042042.94648  84188703.43646  20559711.7814                   20559717.7274
 121598081.830 7                  23139342.133
 11  7 23  2 11 30.0000000  0  9G10G12G05G09G04G25G27G02G17
 109786401.70848  85547948.08446  20891652.8834                   20891661.3404
 112570322.850 8                  21421425.250
 116799957.499 7                  22226289.063
 124302889.34046  96859444.21644  23654057.9614                   23654069.8834
 112961270.26647  88021844.45845  21495801.3054                   21495810.1484
 127182196.678 7                  24201970.539
 125561186.76146  97839940.63843  23893509.7664                   23893521.4694
 108038221.72248  84185725.86946  20558984.6094                   20558990.6214
 121653454.584 7                  23149879.609
 11  7 23  2 12  0.0000000  0  9G10G12G05G09G04G25G27G02G17
 109775779.27848  85539670.88546  20889631.1724                   20889639.8364
 112511151.954 8                  21410165.266
 116705959.354 7                  22208402.023
 124383202.52547  96922025.83544  23669341.5164                   23669352.5514
 113035980.19948  88080059.99045  21510018.4384                   21510026.9844
 127082059.119 7                  24182914.984
 125626072.33347  97890500.76543  23905856.4224                   23905867.9844
 108034709.16948  84182988.82846  20558316.4064                   20558322.8404
 121708980.339 7                  23160445.484
 11  7 23  2 12 30.0000000  0  9G10G12G05G09G04G25G27G02G17
 109765784.62148  85531882.86646  20887729.4454                   20887737.5634
 112452413.155 8                  21398987.734
 116612233.309 7                  22190566.852
 124463693.33247  96984745.86744  23684658.5164                   23684669.7734
 113110862.73048  88138410.01145  21524268.0474                   21524276.5274
 126982089.171 7                  24163891.289
 125691037.51546  97941122.90343  23918219.3524                   23918231.1564
 108031505.36548  84180492.37846  20557706.4534                   20557712.6414
 121764659.923 7                  23171041.188
 11  7 23  2 13  0.0000000  0  9G10G12G05G09G04G25G27G02G17
 109756417.96648  85524584.19846  20885947.0234                   20885955.7234
 112394107.896 8                  21387892.664
 116518781.728 7                  22172783.008
 124544357.94047  97047601.31644  23700008.5164                   23700019.3554
 113185915.25448  88196892.50645  21538550.1954                   21538558.7464
 126882289.126 7                  24144900.359
 125756078.98746  97991804.49342  23930596.1644                   23930607.7154
 108028608.33748  84178234.96246  20557155.1564                   20557161.4304
 121820493.765 6                  23181665.766
 11  7 23  2 13 30.0000000  0  9G10G12G05G09G04G25G27G02G17
 109747680.54348  85517775.84146  20884284.2664                   20884293.0044
 112336239.094 8                  21376880.289
 116425608.024 7                  22155052.422
 124625193.08647  97110589.63644  23715391.2114                   23715401.6994
 113261135.84748  88255505.95745  21552863.9224                   21552872.8914
 126782661.819 7                  24125941.953
 125821194.45846  98042543.78343  23942987.0704                   23942998.7734
 108026017.50748  84176216.13846  20556662.2504                   20556668.1844
 121876482.257 7                  23192320.148
 11  7 23  2 14  0.0000000  0  9G10G12G05G09G04G25G27G02G17
 109739572.53848  85511457.93446  20882741.3594                   20882750.3754
 112278809.028 8                  21365951.820
 116332714.842 7                  22137375.664
 124706195.20547  97173708.09044  23730805.2814                   23730816.0944
 113336522.55148  88314248.85445  21567209.3754                   21567218.5944
 126683209.746 6                  24107016.828
 125886380.90146  98093338.34942  23955392.3754                   23955403.3134
 108023731.82548  84174435.09446  20556227.3984                   20556233.2274
 121932626.008 7                  23203004.117
 11  7 23  2 14 30.0000000  0  9G10G12G05G09G04G25G27G02G17
 109732094.57548  85505630.96346  20881318.4534                   20881327.0594
 112221819.526 8                  21355107.484
 116240105.044 7                  22119752.414
 124787360.95047  97236954.00344  23746250.9064                   23746262.4774
 113412073.21348  88373119.50445  21581586.4454                   21581595.4024
 126583935.401 6                  24088125.344
 125951635.43146  98144185.96342  23967809.1884                   23967820.9844
 108021750.05648  84172890.86246  20555850.4614                   20555856.2734
 121988925.309 7                  23213717.602
 11  7 23  2 15  0.0000000  0  9G10G12G05G09G04G25G27G02G17
 109725247.67548  85500295.72246  20880015.5474                   20880023.6294
 112165273.597 8                  21344346.766
 116147781.771 7                  22102184.102
 124868687.43047  97300325.18144  23761726.1954                   23761738.0084
 113487786.24448  88432116.66945  21595994.0474                   21596002.7734
 126484841.780 6                  24069268.492
 126016955.71145  98195084.85942  23980239.4304                   23980250.9844
 108020071.61648  84171582.99846  20555530.9454                   20555537.1724
 122045380.419 6                  23224460.469
 11  7 23  2 15 30.0000000  0  9G10G12G05G09G04G25G27G02G17
 109719032.09448  85495452.43246  20878832.1724                   20878841.0744
 112109173.399 8                  21333671.219
 116055747.774 7                  22084670.383
 124950170.88047  97363818.68744  23777232.3754                   23777243.6914
 113563659.26348  88491238.50945  21610432.3754                   21610441.0704
 126385931.209 6                  24050446.305
 126082338.63045  98246032.53842  23992680.3204                   23992693.3874
 108018695.35748  84170510.59246  20555268.6024                   20555275.0004
 122101992.237 7                  23235233.773
 11  7 23  2 16  0.0000000  0  9G10G12G05G09G04G25G27G02G17
 109713447.94848  85491101.15746  20877769.8594                   20877778.5904
 112053520.384 8                  21323080.797
 115964005.898 7                  22067212.852
 125031807.59847  97427431.62144  23792767.5004                   23792779.0944
 113639690.14148  88550483.34545  21624900.3524                   21624909.1764
 126287206.241 6                  24031660.000
 126147781.47546  98297026.89442  24005134.5784                   24005146.4494
 108017619.85448  84169672.54446  20555064.1884                   20555070.1254
 122158760.960 6                  23246036.836
 11  7 23  2 16 30.0000000  0  9G10G12G05G09G04G25G27G02G17
 109708495.87848  85487242.42946  20876827.3754                   20876835.7274
 111998317.085 8                  21312575.938
 115872559.230 7                  22049810.750
 125113594.17247  97491161.30144  23808330.8204                   23808341.3364
 113715877.07448  88609849.78745  21639398.7274                   21639407.2704
 126188669.528 7                  24012909.250
 126213281.57846  98348065.86643  24017598.6094                   24017611.5554
 108016844.09548  84169068.07046  20554916.8134                   20554923.0594
 122215687.024 6                  23256868.617
 11  7 23  2 17  0.0000000  0  9G10G12G05G09G04G25G27G02G17
 109704176.07147  85483876.35446  20876005.5944                   20876013.7304
 111943565.455 8                  21302156.930
 115781410.123 7                  22032465.430
 125195526.94147  97555004.88444  23823922.2194                   23823933.5474
 113792217.48648  88669335.82345  21653925.3134                   21653934.4734
 126090323.490 7                  23994194.430
 126278836.03746  98399147.16743  24030073.9454                   24030086.3284
 108016366.71648  84168696.10546  20554825.5394                   20554832.1804
 122272770.962 6                  23267731.164
 11  7 23  2 17 30.0000000  0  9G10G12G05G09G04G25G27G02G17
 109700489.28348  85481003.54346  20875303.9614                   20875312.4144
 111889268.328 8                  21291824.695
 115690561.613 7                  22015177.805
 125277603.10347  97618960.23844  23839541.4454                   23839552.5704
 113868709.88748  88728940.29245  21668481.4064                   21668490.4654
 125992171.127 7                  23975516.586
 126344442.12746  98450268.72543  24042558.3984                   24042570.8164
 108016187.20748  84168556.23746  20554791.5944                   20554797.7854
 122330013.152 6                  23278624.594
 11  7 23  2 18  0.0000000  0  9G10G12G05G09G04G25G27G02G17
 109697435.73347  85478624.16446  20874723.4144                   20874731.4774
 111835427.490 8                  21281579.102
 115600016.784 7                  21997947.844
 125359818.98547  97683024.46443  23855187.4774                   23855197.8954
 113945352.28348  88788661.65745  21683065.7344                   21683074.7344
 125894214.836 7                  23956876.578
 126410097.07846  98501428.36643  24055051.9454                   24055064.5474
 108016304.19248  84168647.40846  20554813.4454                   20554819.8714
 122387413.862 6                  23289547.164
 11  7 23  2 18 30.0000000  0  9G10G12G05G09G04G25G27G02G17
 109695016.00147  85476738.67946  20874262.1954                   20874270.8714
 111782045.066 8                  21271420.930
 115509778.742 7                  21980775.836
 125442171.32847  97747195.00543  23870857.3134                   23870868.0704
 114022142.70148  88848498.35045  21697678.6024                   21697687.2344
 125796457.551 7                  23938274.344
 126475798.25846  98552624.00744  24067554.8444                   24067567.5394
 108016717.02948  84168969.11846  20554892.5234                   20554898.5904
 122444973.613 6                  23300500.672
 11  7 23  2 19  0.0000000  0  9G10G12G05G09G04G25G27G02G17
 109693230.06947  85475347.05246  20873922.6564                   20873930.9774
 111729123.390 8                  21261349.609
 115419849.832 7                  21963662.938
 125524656.56547  97811469.14643  23886554.3674                   23886565.5554
 114099079.18548  88908448.85745  21712319.0554                   21712327.9884
 125698901.601 7                  23919710.102
 126541542.75946  98603853.43944  24080065.0474                   24080077.9064
 108017424.33147  84169520.27946  20555026.7344                   20555032.8524
 122502693.076 6                  23311484.789
 11  7 23  2 19 30.0000000  0  9G10G12G05G09G04G25G27G02G17
 109692078.20847  85474449.52146  20873703.1724                   20873711.6484
 111676664.578 8                  21251367.320
 115330233.125 7                  21946609.148
 125607271.65246  97875844.46043  23902274.7194                   23902286.3984
 114176159.63348  88968511.54945  21726986.8834                   21726996.0824
 125601549.635 7                  23901183.539
 126607327.93246  98655114.53644  24092584.3914                   24092596.1884
 108018425.10847  84170300.12446  20555217.2734                   20555222.9384
 122560572.341 6                  23322498.070
 11  7 23  2 20  0.0000000  0  9G10G12G05G09G04G25G27G02G17
 109691561.18447  85474046.66346  20873605.0084                   20873613.1604
 111624671.027 8                  21241473.359
 115240931.660 7                  21929615.438
 125690013.05946  97940318.16943  23918019.6414                   23918031.0394
 114253382.41848  89028685.15845  21741681.7894                   21741690.8444
 125504404.649 7                  23882697.531
 126673151.34446  98706405.41144  24105110.5004                   24105122.5394
 108019718.60548  84171308.06846  20555463.3204                   20555470.0204
 122618612.010 6                  23333542.750
 11  7 23  2 20 30.0000000  0  9G10G12G05G09G04G25G27G02G17
 109691678.75447  85474138.30046  20873627.6484                   20873635.5634
 111573144.576 8                  21231667.883
 115151948.267 7                  21912682.711
 125772877.38546  98004887.66643  23933788.8594                   23933800.3404
 114330745.23848  89088967.88245  21756403.6414                   21756412.6094
 125407468.943 7                  23864251.367
 126739009.87746  98757723.67244  24117642.1884                   24117654.9414
 108021303.19047  84172542.83946  20555764.7504                   20555770.9144
 122676812.447 6                  23344617.898
 11  7 23  2 21  0.0000000  0  9G10G12G05G09G04G25G27G02G17
 109692431.27347  85474724.69846  20873770.2664                   20873779.1844
 111522087.164 8                  21221951.961
 115063285.515 7                  21895810.695
 125855861.24246  98069550.35943  23949580.7274                   23949591.6214
 114408246.14948  89149358.20545  21771151.7114                   21771160.6564
 125310745.114 7                  23845845.188
 126804900.69347  98809067.05344  24130181.3204                   24130193.4804
 108023177.60147  84174003.44046  20556121.8754                   20556128.1564
 122735173.863 6                  23355723.328
 11  7 23  2 21 30.0000000  0  9G10G12G05G09G04G25G27G02G17
 109693818.66448  85475805.80646  20874034.3284                   20874043.4184
 111471501.316 8                  21212326.188
 114974946.252 7                  21879000.391
 125938961.35746  98134303.60943  23965393.7274                   23965405.1804
 114485883.47648  89209854.82645  21785926.0084                   21785934.1954
 125214235.914 6                  23827480.336
 126870821.35846  98860433.70944  24142725.6884                   24142737.8284
 108025341.08548  84175689.30246  20556533.2894                   20556539.5164
 122793696.722 6                  23366861.047
 11  7 23  2 22  0.0000000  0  9G10G12G05G09G04G25G27G02G17
 109695841.08248  85477381.73946  20874419.3984                   20874427.7974
 111421388.922 8                  21202789.750
 114886933.345 7                  21862252.469
 126022174.31146  98199144.79943  23981228.6564                   23981239.4494
 114563655.20848  89270456.17245  21800725.2894                   21800734.0864
 125117944.142 7                  23809156.883
 126936769.04446  98911821.43444  24155274.8524                   24155287.7274
 108027792.99447  84177599.90646  20556999.7814                   20557006.3484
 122852381.872 6                  23378027.875
 11  7 23  2 22 30.0000000  0  9G10G12G05G09G04G25G27G02G17
 109698498.60947  85479452.56546  20874924.6334                   20874933.7344
 111371751.964 8                  21193344.273
 114799249.714 7                  21845566.602
 126105496.54846  98264071.18443  23997084.3054                   23997096.2544
 114641559.19648  89331160.57245  21815549.9304                   21815558.4734
 125021872.350 6                  23790874.484
 127002740.89846  98963227.97043  24167830.0164                   24167841.8594
 108030531.86148  84179734.10646  20557521.0864                   20557527.1644
 122911229.553 6                  23389226.008
 11  7 23  2 23  0.0000000  0  9G10G12G05G09G04G25G27G02G17
 109701791.72948  85482018.64646  20875551.5944                   20875560.2704
 111322592.729 8                  21183989.672
 114711897.999 7                  21828943.984
 126188924.61646  98329080.01943  24012959.8914                   24012972.0204
 114719593.77748  89391966.74045  21830399.0864                   21830408.3164
 124926023.106 6                  23772634.586
 127068734.39346  99014651.39243  24180387.9694                   24180399.7664
 108033556.42848  84182090.93746  20558096.5784                   20558102.9964
 122970240.172 7                  23400456.148
 11  7 23  2 23 30.0000000  0  9G10G12G05G09G04G25G27G02G17
 109705720.13048  85485079.76346  20876299.1094                   20876307.5274
 111273912.769 8                  21174726.000
 114624880.982 7                  21812384.938
 126272455.39746  98394168.86543  24028856.0554                   24028867.3204
 114797756.94248  89452873.09945  21845272.8284                   21845281.9884
 124830399.118 7                  23754438.656
 127134746.74045  99066089.46443  24192949.5704                   24192961.4264
 108036865.63848  84184669.56846  20558726.1334                   20558732.2894
 123029413.805 7                  23411715.836
 11  7 23  2 24  0.0000000  0  9G10G12G05G09G04G25G27G02G17
 109710284.07548  85488636.11146  20877167.6724                   20877175.5664
 111225714.692 8                  21165554.016
 114538201.923 7                  21795890.141
 126356085.73247  98459335.32444  24044770.3754                   24044781.7544
 114876047.04648  89513878.36745  21860171.1884                   21860180.2584
 124735003.203 7                  23736285.328
 127200775.23545  99117540.17142  24205512.6884                   24205526.6954
 108040458.67248  84187469.35446  20559410.1564                   20559415.8634
 123088750.974 7                  23423007.617
 11  7 23  2 24 30.0000000  0  9G10G12G05G09G04G25G27G02G17
 109715483.44447  85492687.58146  20878157.2424                   20878165.3794
 111178000.457 8                  21156474.633
 114451863.418 7                  21779460.719
 126439812.17446  98524576.67644  24060703.3284                   24060715.4144
 114954462.09448  89574980.99745  21875092.9774                   21875101.8524
 124639837.987 7                  23718175.906
 127266817.16555  99169001.35052  24218080.8594                   24218093.8524
 108044334.26948  84190489.32046  20560147.4144                   20560153.7934
 123148252.024 7                  23434330.484
 11  7 23  2 25  0.0000000  0  8G10G12G05G09G04G25G02G17
 109721318.33348  85497234.27146  20879267.6414                   20879275.7624
 111130772.149 8                  21147487.328
 114365868.171 8                  21763096.555
 126523631.51247  98589890.43444  24076652.4844                   24076664.6374
 115033000.50548  89636179.75145  21890038.6254                   21890047.7194
 124544906.367 7                  23700111.016
 108048491.54548  84193728.77646  20560938.7274                   20560945.0004
 123207918.068 7                  23445684.344
 11  7 23  2 25 30.0000000  0  9G10G12G05G09G04G25G27G02G17
 109727788.06846  85502275.64445  20880498.6174                   20880507.2154
 111084031.235 7                  21138593.141
 114280218.453 7                  21746797.867
 126607540.05346  98655273.68843  24092621.1484                   24092632.1604
 115111659.87147  89697472.74944  21905006.6334                   21905015.8094
 124450210.277 6                  23682091.195
 127398925.86814                  24243222.242
 108052928.61047  84197186.24646  20561782.8134                   20561788.9384
 123267748.224 6                  23457070.453
 11  7 23  2 26  0.0000000  0  9G10G12G05G09G04G25G27G02G17
 109734892.81948  85507811.82446  20881850.1884                   20881859.3094
 111037779.997 8                  21129791.523
 114194917.466 7                  21730565.641
 126691534.27547  98720723.71044  24108604.4144                   24108616.1024
 115190438.28847  89758858.51445  21919997.8984                   21920006.8404
 124355752.649 7                  23664116.250
                                  24255794.656
 108057644.62648  84200861.08446  20562680.3284                   20562686.1564
 123327743.278 7                  23468485.648
 11  7 23  2 26 30.0000000  0  9G10G12G05G09G04G25G27G02G17
 109742632.31047  85513842.61046  20883323.6484                   20883331.5744
 110992020.153 8                  21121083.750
 114109967.733 8                  21714400.203
 126775611.18347  98786238.16144  24124603.0864                   24124615.1724
 115269334.03947  89820335.72045  21935011.2344                   21935019.7704
 124261536.138 7                  23646187.234
 127531059.91955  99374948.17852  24268366.6414                   24268377.5434
 108062638.59148  84204752.49646  20563630.7344                   20563636.7734
 123387903.676 7                  23479934.281
 11  7 23  2 27  0.0000000  0  9G10G12G05G09G04G25G27G02G17
 109751006.54048  85520368.00446  20884917.0704                   20884924.8364
 110946753.464 8                  21112469.688
 114025371.545 7                  21698302.008
 126859767.14047  98851814.21944  24140618.0554                   24140629.6914
 115348345.24848  89881902.87845  21950046.4924                   21950055.4144
 124167563.445 7                  23628304.680
 127597128.07446  99426429.83943  24280939.0394                   24280951.0474
 108067909.23548  84208859.49946  20564633.3054                   20564639.7974
 123448229.891 6                  23491414.336
 11  7 23  2 27 30.0000000  0  9G10G12G05G09G04G25G27G02G17
 109760015.48048  85527387.97646  20886631.3524                   20886639.5474
 110901982.451 8                  21103949.953
 113941132.894 8                  21682271.547
 126943999.44447  98917449.74844  24156646.4924                   24156658.8364
 115427470.52947  89943558.91645  21965103.5474                   21965112.3634
 124073837.449 7                  23610468.922
 127663193.55946  99477909.36943  24293511.1804                   24293522.9844
 108073455.99448  84213181.67146  20565688.9454                   20565695.0004
 123508722.360 6                  23502924.969
 11  7 23  2 28  0.0000000  0  9G10G12G05G09G04G25G27G02G17
 109769659.00248  85534902.43446  20888466.4694                   20888474.5124
 110857708.833 8                  21095524.859
 113857253.875 7                  21666310.070
 127028304.37047  98983141.85344  24172689.1024                   24172701.2114
 115506707.95747  90005302.37045  21980181.7344                   21980190.5944
 123980360.814 7                  23592680.828
 127729253.82846  99529384.80943  24306081.9454                   24306094.0944
 108079277.64248  84217718.02846  20566796.7664                   20566802.9344
 123569381.449 7                  23514469.492
 11  7 23  2 28 30.0000000  0  9G10G12G05G09G04G25G27G02G17
 109779936.98048  85542911.25246  20890422.1804                   20890430.3284
 110813934.853 8                  21087194.891
 113773737.316 8                  21650417.508
 127112679.02847  99048888.30444  24188745.4694                   24188756.4774
 115586055.72047  90067131.78845  21995281.8284                   21995290.1174
 123887136.269 6                  23574940.859
 127795306.05746  99580854.02243  24318651.8914                   24318663.3984
 108085373.01348  84222467.68146  20567956.8204                   20567962.6564
 123630207.393 6                  23526042.125
 11  7 23  2 29  0.0000000  0  9G10G12G05G09G04G25G27G02G17
 109790848.72048  85551413.93346  20892498.3754                   20892506.5204
 110770662.030 8                  21078960.625
 113690585.685 8                  21634594.477
 127197119.58847  99114686.08544  24204813.8914                   24204825.4024
 115665511.88647  90129045.67545  22010401.7034                   22010410.3164
 123794166.185 6                  23557249.359
 127861347.31046  99632314.69443  24331218.3524                   24331230.8634
 108091740.13748  84227429.08946  20569168.2584                   20569174.4734
 123691200.474 7                  23537650.961
 11  7 23  2 29 30.0000000  0  9G10G12G05G09G04G25G27G02G17
 109802393.93248  85560410.20246  20894695.7894                   20894704.1414
 110727892.161 8                  21070821.453
 113607801.976 7                  21618840.719
 127281623.02347  99180532.86044  24220894.4614                   24220906.8164
 115745074.74747  90191042.71545  22025541.6564                   22025550.2774
 123701453.380 6                  23539606.609
 127927375.17346  99683764.83743  24343783.3524                   24343795.8444
 108098378.77048  84232602.06546  20570431.9304                   20570437.8914
 123752361.168 6                  23549288.180
 11  7 23  2 30  0.0000000  0  9G10G12G05G09G04G25G27G02G17
 109814572.33548  85569899.88546  20897013.2274                   20897021.5664
 110685627.042 8                  21062778.898
 113525388.571 7                  21603158.023
 127366186.25847  99246426.23544  24236986.5234                   24236997.9104
 115824742.41247  90253121.41245  22040702.3754                   22040711.3754
 123609000.597 7                  23522013.211
 127993387.01146  99735202.52043  24356344.8594                   24356357.9344
 108105287.79448  84237985.72846  20571746.5164                   20571752.6604
 123813689.749 7                  23560959.438
 11  7 23  2 30 30.0000000  0  9G10G12G05G09G04G25G27G02G17
 109827383.47948  85579882.60946  20899450.5314                   20899458.9734
 110643868.653 8                  21054832.414
 113443348.449 7                  21587546.219
 127450805.80046  99312363.44543  24253089.4064                   24253100.8014
 115904513.16147  90315280.43945  22055881.8524                   22055890.4774
 123516810.496 7                  23504470.820
 128059379.96946  99786625.54943  24368902.7894                   24368915.6724
 108112466.25548  84243579.34146  20573112.6094                   20573118.2424
 123875186.815 6                  23572661.398
 11  7 23  2 31  0.0000000  0  9G10G12G05G09G04G25G27G02G17
 109840826.92948  85590358.04446  20902009.3524                   20902017.1294
 110602619.175 8                  21046983.023
 113361684.081 8                  21572006.430
 127535478.00646  99378341.71843  24269201.4774                   24269212.6844
 115984385.26247  90377518.42145  22071080.8364                   22071089.4804
 123424885.766 7                  23486977.742
 128125351.24246  99838031.60543  24381456.7344                   24381469.8094
 108119912.01148  84249381.24646  20574529.1724                   20574535.1214
 123936852.344 6                  23584395.742
 11  7 23  2 31 30.0000000  0  9G10G12G05G09G04G25G27G02G17
 109854902.53448  85601326.05746  20904687.5394                   20904695.8244
 110561880.020 8                  21039230.492
 113280398.138 7                  21556537.734
 127620199.96246  99444358.76743  24285323.7344                   24285335.7504
 116064356.98747  90439834.04945  22086298.8524                   22086307.7034
 123333229.050 7                  23469535.539
 128191298.48746  99889418.94343  24394006.7274                   24394019.0354
 108127624.44948  84255390.95446  20575996.7344                   20576002.9494
 123998686.746 7                  23596162.859
 11  7 23  2 32  0.0000000  0  9G10G12G05G09G04G25G27G02G17
 109869609.36948  85612785.93846  20907485.9844                   20907494.4804
 110521652.664 8                  21031575.625
 113199493.275 8                  21541142.297
 127704968.28946  99510411.94043  24301454.6564                   24301465.9734
 116144426.57047  90502225.92745  22101536.2274                   22101544.6994
 123241842.859 7                  23452145.477
 128257218.94846  99940785.41243  24406550.9844                   24406563.7544
 108135602.48848  84261607.61146  20577515.2274                   20577521.2424
 124060690.314 7                  23607962.367
 11  7 23  2 32 30.0000000  0  9G10G12G05G09G04G25G27G02G17
 109884947.11948  85624737.44146  20910404.7814                   20910413.1564
 110481939.077 8                  21024018.234
 113118971.967 7                  21525819.344
 127789780.11046  99576498.94243  24317594.1644                   24317605.8594
 116224592.33947  90564692.75545  22116790.7734                   22116799.8204
 123150730.074 7                  23434807.867
 128323109.85546  99992128.87743  24419089.0164                   24419102.4924
 108143845.15748  84268030.47446  20579083.6094                   20579089.8244
 124122863.200 6                  23619792.633
 11  7 23  2 33  0.0000000  0  9G10G12G05G09G04G25G27G02G17
 109900915.54948  85637180.37846  20913443.5234                   20913452.1884
 110442741.126 8                  21016558.875
 113038836.931 8                  21510570.148
 127874632.01246  99642617.15943  24333740.1484                   24333752.8984
 116304852.36047  90627233.02245  22132063.6804                   22132072.9534
 123059893.297 7                  23417522.195
 128388968.67846 100043447.32743  24431622.8054                   24431635.3594
 108152351.01448  84274658.41946  20580702.2894                   20580708.5164
 124185205.735 7                  23631656.664
 11  7 23  2 33 30.0000000  0  9G10G12G05G09G04G25G27G02G17
 109917513.89648  85650114.16846  20916602.3674                   20916610.2074
 110404060.583 8                  21009198.547
 112959091.017 8                  21495395.055
 127959520.51446  99708763.95843  24349894.5474                   24349905.9734
 116385205.19947  90689845.61845  22147354.3914                   22147363.5634
 122969335.228 7                  23400289.672
 128454792.84946 100094738.79543  24444148.5634                   24444161.1484
 108161119.13248  84281490.73146  20582370.7734                   20582376.5204
 124247718.580 7                  23643552.992
 11  7 23  2 34  0.0000000  0  9G10G12G05G09G04G25G27G02G17
 109934741.55348  85663538.33046  20919880.5084                   20919888.7734
 110365899.044 8                  21001936.445
 112879736.629 8                  21480294.016
 128044442.51746  99774936.86942  24366054.2114                   24366065.8594
 116465649.00447  90752529.08945  22162662.7274                   22162671.2774
 122879058.499 7                  23383110.102
 128520579.74245 100146001.21442  24456667.1484                   24456679.9024
 108170148.20348  84288526.37746  20584088.7504                   20584095.1724
 124310401.676 7                  23655480.922
 11  7 23  2 34 30.0000000  0  9G10G12G05G09G04G25G27G02G17
 109952598.37748  85677452.75046  20923278.5704                   20923286.3954
 110328258.376 8                  20994773.398
 112800776.515 7                  21465268.234
 128129394.97346  99841133.49943  24382220.7274                   24382232.2304
 116546182.30547  90815282.30945  22177987.0634                   22177996.5984
 122789065.998 7                  23365985.266
 128586326.77355 100197232.61252  24469178.2344                   24469191.1724
 108179437.41448  84295764.72446  20585856.6254                   20585863.0784
 124373255.626 7                  23667441.602
 11  7 23  2 35  0.0000000  0  9G10G12G05G09G04G25G27G02G17
 109971083.07448  85691856.43046  20926796.1094                   20926803.8284
 110291139.870 8                  20987710.117
 112722213.090 8                  21450318.070
 128214374.46546  99907351.27442  24398391.4844                   24398403.0084
 116626803.21547  90878103.78645  22193329.1644                   22193338.4264
 122699360.106 7                  23348914.945
                                  24481682.563
 108188985.09348  84303204.47946  20587673.4844                   20587679.3134
 124436280.499 7                  23679434.648
 11  7 23  2 35 30.0000000  0  8G10G12G05G09G04G25G02G17
 109990195.13748  85706748.96046  20930432.7424                   20930440.8094
 110254545.486 8                  20980746.281
 112644048.813 8                  21435444.000
 128299377.96746  99973587.72143  24414567.3594                   24414578.5704
 116707509.96747  90940992.16445  22208687.3674                   22208696.1994
 122609943.570 7                  23331899.102
 108198790.27048  84310844.88246  20589539.2114                   20589545.1454
 124499476.501 6                  23691459.758
 11  7 23  2 36  0.0000000  0  8G10G12G05G09G04G25G02G17
 110009934.36848  85722130.18846  20934189.0704                   20934197.2544
 110218477.031 8                  20973882.680
 112566286.787 8                  21420646.711
 128384402.20746 100039840.26743  24430746.9614                   24430758.8284
 116788301.40347  91003946.53245  22224061.1644                   22224070.3874
 122520819.440 7                  23314939.328
 108208852.48348  84318685.57046  20591454.2504                   20591460.2194
 124562844.269 6                  23703518.547
 11  7 23  2 36 30.0000000  0  8G10G12G05G09G04G25G02G17
 110030299.70648  85737999.29446  20938064.3914                   20938072.9574
 110182935.815 8                  20967119.633
 112488929.012 8                  21405925.664
 128469443.91847 100106106.46043  24446930.1024                   24446942.1054
 116869175.41147  91066965.24345  22239451.5004                   22239459.7504
 122431989.967 7                  23298035.352
 108219169.63248  84326724.92146  20593417.3364                   20593423.2074
 124626383.651 6                  23715609.406
 11  7 23  2 37  0.0000000  0  8G10G12G05G09G04G25G02G17
 110051290.29448  85754355.60646  20942058.8444                   20942066.8714
 110147923.784 8                  20960457.352
 112411978.231 8                  21391282.656
 128554499.76647 100172383.65543  24463116.4144                   24463127.2734
 116950130.39747  91130047.04045  22254856.2974                   22254865.0784
 122343457.818 7                  23281187.844
 108229740.80748  84334962.20246  20595428.8134                   20595435.1644
 124690095.086 6                  23727733.469
 11  7 23  2 37 30.0000000  0  8G10G12G05G09G04G25G02G17
 110072905.33448  85771198.50946  20946172.2894                   20946180.4414
 110113442.057 8                  20953895.133
 112335436.761 8                  21376717.063
 128639566.82646 100238669.62643  24479304.2344                   24479315.4144
 117031164.78547  91193190.72345  22270276.8284                   22270285.8874
 122255225.715 7                  23264398.313
 108240565.11848  84343396.73046  20597488.7504                   20597495.0274
 124753978.714 6                  23739890.758
 11  7 23  2 38  0.0000000  0  8G10G12G05G09G04G25G02G17
 110095144.02248  85788527.37446  20950403.7274                   20950411.9414
 110079492.444 8                  20947434.984
 112259307.179 8                  21362230.102
 128724641.66246 100304961.63643  24495492.9224                   24495504.7304
 117112276.88547  91256394.97045  22285711.4924                   22285720.8014
 122167296.273 7                  23247665.273
 108251641.07948  84352027.34946  20599596.5084                   20599602.3554
 124818034.950 6                  23752080.094
 11  7 23  2 38 30.0000000  0  8G10G12G05G09G04G25G02G17
 110118005.30148  85806341.38446  20954754.3364                   20954762.2274
 110046076.058 8                  20941076.008
 112183591.908 8                  21347821.844
 128809720.94546 100371257.10443  24511683.0554                   24511694.5784
 117193464.91147  91319658.36345  22301161.2344                   22301170.0594
 122079672.110 7                  23230991.844
 108262967.08648  84360852.81646  20601751.7344                   20601758.0824
 124882263.741 7                  23764302.641
 11  7 23  2 39  0.0000000  0  8G10G12G05G09G04G25G02G17
 110141488.62948  85824640.09046  20959222.4614                   20959231.1214
 110013194.669 8                  20934818.891
 112108293.646 8                  21333493.016
 128894801.99946 100437553.99943  24527873.5634                   24527885.1174
 117274727.55847  91382979.91745  22316624.7664                   22316633.5274
 121992356.024 7                  23214375.867
 108274543.06848  84369873.06346  20603954.6724                   20603960.4344
 124946665.614 7                  23776557.914
 11  7 23  2 39 30.0000000  0  8G10G12G05G09G04G25G02G17
 110165593.32448  85843422.97646  20963809.9384                   20963818.4614
 109980850.264 8                  20928664.008
 112033414.835 7                  21319243.844
 128979881.39746 100503849.55843  24544063.4384                   24544075.4384
 117356063.31647  91446358.43545  22332102.8914                   22332111.6954
 121905350.748 7                  23197819.227
 108286367.65248  84379087.03046  20606204.6884                   20606210.8164
 125011240.938 7                  23788846.313
 11  7 23  2 40  0.0000000  0  8G10G12G05G09G04G25G02G17
 110190318.08848  85862689.03446  20968514.6414                   20968522.8364
 109949043.487 8                  20922611.367
 111958957.529 7                  21305075.133
 129064956.00146 100570141.41844  24560252.4454                   24560264.4774
 117437470.35947  91509792.49045  22347594.4844                   22347603.1094
 121818658.645 7                  23181322.320
 108298439.09648  84388493.36446  20608501.8444                   20608507.9494
 125075989.492 7                  23801167.063
 11  7 23  2 40 30.0000000  0  8G10G12G05G09G04G25G02G17
 110215662.00748  85882437.55346  20973337.1954                   20973346.0124
 109917776.531 8                  20916661.477
 111884924.358 8                  21290987.414
 129150022.88946 100636427.27144  24576439.9924                   24576452.0004
 117518947.11147  91573280.85845  22363098.7584                   22363107.4384
 121732282.537 7                  23164885.664
 108310756.58848  84398091.41646  20610845.8054                   20610851.7304
 125140911.580 7                  23813522.492
 11  7 23  2 41  0.0000000  0  8G10G12G05G09G04G25G02G17
 110241624.01648  85902667.69846  20978278.0554                   20978286.2234
 109887051.030 8                  20910814.266
 111811318.172 8                  21276980.250
 129235078.99046 100702704.69844  24592625.7734                   24592637.8874
 117600492.19947  91636822.50445  22378616.0944                   22378625.0984
 121646225.138 7                  23148509.086
 108323319.08848  84407880.38946  20613236.2584                   20613242.4774
 125206007.506 6                  23825907.797
 11  7 23  2 41 30.0000000  0  8G10G12G05G09G04G25G02G17
 110268203.21748  85923378.77446  20983335.9064                   20983344.1454
 109856867.277 8                  20905070.492
 111738140.918 8                  21263055.391
 129320120.87646 100768971.05643  24608808.6334                   24608820.6914
 117682103.85547  91700415.99244  22394146.2664                   22394154.7934
 121560489.006 7                  23132193.992
 108336125.34348  84417859.30246  20615673.1024                   20615679.2974
 125271277.572 7                  23838329.477
 11  7 23  2 42  0.0000000  0  8G10G12G05G09G04G25G02G17
 110295398.90347  85944570.22146  20988510.9304                   20988519.1254
 109827227.337 8                  20899430.492
 111665395.256 8                  21249212.078
 129405145.53346 100835223.96943  24624988.4454                   24625000.6024
 117763780.84747  91764060.37844  22409689.1094                   22409697.4844
 121475076.773 7                  23115940.367
 108349174.30348  84428027.32846  20618156.1254                   20618162.4414
 125336721.909 7                  23850783.203
 11  7 23  2 42 30.0000000  0  8G10G12G05G09G04G25G02G17
 110323209.89248  85966241.12646  20993803.3754                   20993811.3284
 109798132.808 8                  20893894.023
 111593083.484 8                  21235451.430
 129490150.15546 100901461.26843  24641164.7274                   24641176.0044
 117845521.44747  91827754.36145  22425243.4064                   22425252.4804
 121389991.201 7                  23099748.563
 108362464.78748  84438383.54846  20620685.3134                   20620691.6174
 125402340.748 6                  23863270.125
 11  7 23  2 43  0.0000000  0  8G10G12G05G09G04G25G02G17
 110351634.90147  85988390.49845  20999212.4924                   20999220.6994
 109769585.131 8                  20888461.148
 111521208.096 8                  21221774.242
 129575131.33146 100967680.29643  24657336.2814                   24657348.2894
 117927324.13847  91891496.70745  22440810.0394                   22440819.0594
 121305234.810 7                  23083620.516
 108375995.45848  84448926.94046  20623260.0314                   20623266.7624
 125468134.338 6                  23875790.125
 11  7 23  2 43 30.0000000  0  8G10G12G05G09G04G25G02G17
 110380672.92448  86011017.53546  21004738.1644                   21004746.4224
 109741585.306 8                  20883133.367
 111449771.603 8                  21208180.352
 129660086.03546 101033878.65543  24673502.3364                   24673514.5004
 118009187.40247  91955286.26445  22456387.6954                   22456397.7664
 121220810.275 7                  23067554.055
 108389765.36348  84459656.74746  20625880.5314                   20625886.8984
 125534103.040 6                  23888343.148
 11  7 23  2 44  0.0000000  0  8G10G12G05G09G04G25G02G17
 110410323.01448  86034121.50046  21010380.3444                   21010388.9614
 109714134.747 8                  20877909.883
 111378776.530 8                  21194670.242
 129745011.11045 101100054.00742  24689662.0944                   24689674.9064
 118091109.96947  92019122.02445  22471977.0704                   22471986.5984
 121136720.328 7                  23051552.617
 108403773.38948  84470572.09046  20628546.1254                   20628552.4454
 125600246.831 6                  23900929.992
 11  7 23  2 44 30.0000000  0  8G10G12G05G09G04G25G02G17
 110440583.80947  86057701.33946  21016138.3914                   21016146.9384
 109687234.770 8                  20872790.344
 111308224.361 8                  21181244.719
 129829903.37245 101166203.67242  24705816.8054                   24705829.6684
 118173090.26947  92083002.76245  22487578.0634                   22487586.4024
 121052967.511 7                  23035615.172
 108418018.24648  84481671.99646  20631257.0394                   20631263.0864
 125666565.793 6                  23913549.469
 11  7 23  2 45  0.0000000  0  8G10G12G05G09G04G25G02G17
 110471454.28648  86081756.25345  21022013.0314                   21022021.1174
 109660886.732 8                  20867777.055
 111238117.976 8                  21167903.984
 129914760.19145 101232325.78743  24721964.9614                   24721977.1804
 118255126.65247  92146927.19945  22503188.6484                   22503197.4454
 120969554.492 7                  23019741.953
 108432498.91348  84492955.63946  20634012.5234                   20634018.5824
 125733060.286 6                  23926203.000
 11  7 23  2 45 30.0000000  0  8G10G12G05G09G04G25G02G17
 110502933.17147  86106285.25846  21028003.6334                   21028012.0394
 109635091.574 8                  20862868.297
 111168459.538 8                  21154648.250
 129999578.12746 101298417.58942  24738105.3054                   24738117.7544
 118337217.74547  92210894.28544  22518810.0474                   22518819.5234
 120886483.715 7                  23003934.266
 108447214.06148  84504421.99646  20636812.9064                   20636818.7544
 125799730.312 6                  23938890.203
 11  7 23  2 46  0.0000000  0  8G10G12G05G09G04G25G02G17
 110535019.29247  86131287.43746  21034109.1804                   21034117.8444
 109609851.125 8                  20858064.727
 111099251.458 8                  21141478.164
 130084354.40346 101364476.94443  24754238.8834                   24754250.0314
 118419362.22447  92274902.97344  22534442.0474                   22534451.3754
 120803758.059 7                  22988192.023
 108462162.76848  84516070.35146  20639657.3524                   20639663.6994
 125866576.021 6                  23951610.641
 11  7 23  2 46 30.0000000  0  8G10G12G05G09G04G25G02G17
 110567710.83547  86156761.37346  21040330.5944                   21040338.3404
 109585165.853 7                  20853367.609
 111030495.772 8                  21128394.688
 130169085.78746 101430501.37842  24770361.7274                   24770373.8094
 118501558.37447  92338951.92845  22550083.5784                   22550092.1764
 120721379.801 7                  22972516.078
 108477343.73448  84527899.68146  20642546.2034                   20642552.1804
 125933597.441 6                  23964364.133
 11  7 23  2 47  0.0000000  0  8G10G12G05G09G04G25G02G17
 110601007.12948  86182706.53845  21046666.1174                   21046674.4304
 109561037.217 8                  20848775.953
 110962194.786 8                  21115397.063
 130253769.24046 101496488.42943  24786476.8054                   24786488.6134
 118583804.74447  92403039.99544  22565734.6644                   22565743.1994
 120639351.676 7                  22956906.617
 108492755.75548  84539909.06546  20645478.8364                   20645485.0274
 126000795.063 6                  23977151.813
 11  7 23  2 47 30.0000000  0  8G10G12G05G09G04G25G02G17
 110634906.46548  86209121.60546  21053116.7344                   21053125.3554
 109537466.280 8                  20844290.602
 110894350.868 8                  21102486.594
 130338401.76546 101562435.87543  24802581.7194                   24802594.0474
 118666100.05147  92467166.19244  22581394.6954                   22581403.1804
 120557676.263 7                  22941364.547
 108508397.66248  84552097.57946  20648455.1334                   20648461.2814
 126068168.545 6                  23989973.227
 11  7 23  2 48  0.0000000  0  8G10G12G05G09G04G25G02G17
 110669407.73647  86236005.71646  21059682.5474                   21059690.5824
 109514454.645 8                  20839911.359
 110826966.158 8                  21089663.945
 130422980.64946 101628341.41243  24818676.9144                   24818688.5864
 118748442.68947  92531329.30344  22597063.2584                   22597072.3754
 120476356.221 8                  22925889.531
 108524268.46448  84564464.46146  20651475.6334                   20651481.3404
 126135718.250 7                  24002827.688
 11  7 23  2 48 30.0000000  0  8G10G12G05G09G04G25G02G17
 110704509.56948  86263357.80146  21066362.3914                   21066370.7894
 109492003.184 8                  20835639.328
 110760043.034 8                  21076929.055
 130507502.59446 101694202.66842  24834760.6804                   24834773.1884
 118830831.42247  92595528.30744  22612742.3284                   22612750.5594
 120395394.110 7                  22910482.711
 108540367.06648  84577008.84146  20654538.8914                   20654545.1454
 126203444.419 6                  24015715.188
 11  7 23  2 49  0.0000000  0  8G10G12G05G09G04G25G02G17
 110740210.83448  86291176.96846  21073156.3444                   21073164.2774
 109470113.313 8                  20831473.664
 110693583.571 8                  21064282.398
 130591964.98246 101760017.51043  24850833.6564                   24850846.3674
 118913265.07747  92659762.31244  22628428.6484                   22628437.5704
 120314792.655 7                  22895144.961
 108556692.43948  84589729.91446  20657645.6954                   20657651.5314
 126271347.313 7                  24028637.531
 11  7 23  2 49 30.0000000  0  7G10G12G05G04G25G02G17
 110776511.06047  86319462.86845  21080063.5634                   21080071.2704
 109448786.717 8                  20827415.539
 110627591.040 8                  21051724.102
 118995743.06347  92724030.86544  22644123.4384                   22644132.4184
 120234555.378 7                  22879876.211
 108573244.28248  84602627.46546  20660795.4454                   20660800.7424
 126339427.948 6                  24041592.008
 11  7 23  2 50  0.0000000  0  7G10G12G05G04G25G02G17
 110813407.49647  86348213.34246  21087084.5164                   21087092.8984
 109428023.175 8                  20823464.500
 110562066.455 8                  21039255.375
 119078262.74647  92788331.92144  22659826.3984                   22659835.2384
 120154683.619 7                  22864677.008
 108590020.36348  84615699.74646  20663987.6094                   20663993.6214
 126407685.109 6                  24054580.945
 11  7 23  2 50 30.0000000  0  7G10G12G05G04G25G02G17
 110850898.51847  86377427.12646  21094219.0784                   21094227.1294
 109407824.069 8                  20819620.555
 110497011.909 8                  21026875.789
 119160822.85247  92852664.47444  22675537.5704                   22675546.3054
 120075179.986 7                  22849547.789
 108607019.51048  84628945.85146  20667222.4384                   20667228.3054
 126476118.832 6                  24067603.477
 11  7 23  2 51  0.0000000  0  7G10G12G05G04G25G02G17
 110888983.00147  86407103.35746  21101466.7814                   21101474.8444
 109388190.157 8                  20815884.508
 110432429.320 8                  21014585.648
 119243422.00547  92917027.43144  22691255.6564                   22691264.7344
 119996047.023 7                  22834489.242
 108624240.56648  84642364.86346  20670499.5864                   20670505.3484
 126544729.614 6                  24080659.797
 11  7 23  2 51 30.0000000  0  7G10G12G05G04G25G02G17
 110927659.23048  86437240.69146  21108826.3204                   21108834.6294
 109369122.686 8                  20812255.945
 110368321.011 8                  21002386.570
 119326058.88947  92981419.80644  22706980.5164                   22706989.2544
 119917287.270 7                  22819501.641
 108641682.37148  84655955.90146  20673818.7894                   20673824.6134
 126613517.051 6                  24093748.523
 11  7 23  2 52  0.0000000  0  7G10G12G05G04G25G02G17
 110966925.78547  86467838.02046  21116298.3674                   21116306.9224
 109350622.716 8                  20808735.523
 110304688.954 8                  20990278.047
 119408732.26747  93045840.59344  22722713.4844                   22722721.0084
 119838903.475 7                  22804585.414
 108659344.17548  84669718.35246  20677179.6024                   20677185.6644
 126682481.802 6                  24106873.164
 11  7 23  2 52 30.0000000  0  7G10G12G05G04G25G02G17
 111006780.74047  86498893.83346  21123882.4614                   21123890.5164
 109332690.636 8                  20805323.258
 110241535.128 8                  20978260.398
 119491440.42047  93110288.50244  22738451.6804                   22738460.4734
 119760897.655 7                  22789742.008
 108677224.10048  84683650.77146  20680581.7424                   20680587.6914
 126751623.335 6                  24120030.633
 11  7 23  2 53  0.0000000  0  7G10G12G05G04G25G02G17
 111047222.97347  86530407.27146  21131577.8134                   21131586.3674
 109315327.675 8                  20802018.773
 110178861.946 8                  20966333.641
 119574182.45747  93174762.78844  22754197.4924                   22754206.4184
 119683272.820 7                  22774970.172
 108695321.64248  84697752.76846  20684025.6174                   20684031.7854
 126820942.109 6                  24133219.992
 11  7 23  2 53 30.0000000  0  7G10G12G05G04G25G02G17
 111088250.73248  86562376.95946  21139385.7344                   21139393.7504
 109298534.849 8                  20798823.492
 110116671.138 8                  20954499.258
 119656956.84347  93239262.31444  22769948.2424                   22769957.6724
 119606031.424 7                  22760271.461
 108713635.46648  84712023.30346  20687511.1094                   20687517.2584
 126890438.008 6                  24146445.586
 11  7 23  2 54  0.0000000  0  7G10G12G05G04G25G02G17
 111129862.06747  86594801.38645  21147303.9454                   21147312.4494
 109282312.897 8                  20795736.484
 110054965.054 8                  20942756.984
 119739762.52347  93303786.19644  22785706.1724                   22785714.8524
 119529175.959 7                  22745646.609
 108732164.66948  84726461.65146  20691037.2274                   20691042.9884
 126960111.095 6                  24159703.523
 11  7 23  2 54 30.0000000  0  7G10G12G05G04G25G02G17
 111172055.64448  86627679.50846  21155332.9534                   21155341.5704
 109266662.682 8                  20792758.266
 109993745.644 8                  20931107.133
 119822598.23147  93368333.46944  22801469.1024                   22801477.9614
 119452709.005 7                  22731095.344
 108750908.03348  84741066.88146  20694603.6254                   20694609.5434
 127029961.293 6                  24172994.938
 11  7 23  2 55  0.0000000  0  7G10G12G05G04G25G02G17
 111214830.19947  86661010.34246  21163472.8284                   21163481.4144
 109251585.235 8                  20789889.320
 109933014.946 8                  20919550.406
 119905462.77347  93432903.21744  22817237.6564                   22817247.0704
 119376633.219 7                  22716618.516
 108769864.72048  84755838.33846  20698211.0314                   20698216.8634
 127099989.005 6                  24186321.727
 11  7 23  2 55 30.0000000  0  7G10G12G05G04G25G02G17
 111258183.62847  86694792.23846  21171722.6564                   21171731.0124
 109237081.238 8                  20787129.367
 109872774.721 8                  20908086.961
 119988354.62547  93497494.26744  22833011.5864                   22833020.9774
 119300950.953 7                  22702216.828
 108789033.24348  84770774.86446  20701858.2274                   20701864.4344
 127170193.868 6                  24199680.844
 11  7 23  2 56  0.0000000  0  7G10G12G05G04G25G02G17
 111302114.23847  86729023.88746  21180082.5944                   21180090.6884
 109223151.421 8                  20784478.406
 109813027.180 8                  20896717.648
 120071272.55247  93562105.61144  22848789.6094                   22848799.1844
 119225664.643 7                  22687890.297
 108808412.81848  84785875.83946  20705546.6094                   20705552.2584
 127240576.214 6                  24213073.891
 11  7 23  2 56 30.0000000  0  7G10G12G05G04G25G02G17
 111346620.22247  86763703.88345  21188551.4694                   21188560.0234
 109209796.613 8                  20781936.781
 109753773.812 8                  20885442.039
 120154215.36747  93626736.35344  22864573.6094                   22864582.4534
 119150776.650 7                  22673639.664
 108828001.79648  84801139.98946  20709274.0944                   20709280.1954
 127311135.773 6                  24226502.055
 11  7 23  2 57  0.0000000  0  7G10G12G05G04G25G02G17
 111391699.94647  86798830.94746  21197129.9454                   21197138.0124
 109197017.423 8                  20779505.273
 109695016.959 8                  20874260.844
 120237181.93347  93691385.58344  22880361.1094                   22880370.4924
 119076289.725 7                  22659464.953
 108847799.86948  84816567.06846  20713041.7974                   20713047.5904
 127381872.949 7                  24239962.422
 11  7 23  2 57 30.0000000  0  7G10G12G05G04G25G02G17
 111437351.19847  86834403.35346  21205817.3054                   21205825.7034
 109184814.455 8                  20777183.172
 109636758.143 8                  20863174.578
 120320170.77647  93756052.20044  22896154.4454                   22896162.6764
 119002205.982 7                  22645367.492
 108867805.28548  84832155.70946  20716848.4304                   20716854.3524
 127452787.378 6                  24253456.516
 11  7 23  2 58  0.0000000  0  8G10G12G05G29G04G25G02G17
 111483573.01647  86870420.36545  21214612.2734                   21214620.9024
 109173188.930 8                  20774970.867
 109578999.827 8                  20852183.633
 129524135.41216                  24647631.109
 120403181.09947  93820735.55744  22911950.1094                   22911959.5744
 118928528.485 7                  22631346.773
 108888017.26848  84847905.31446  20720694.5784                   20720700.2704
 127523879.398 6                  24266985.422
 11  7 23  2 58 30.0000000  0  8G10G12G05G29G04G25G02G17
 111530363.42347  86906880.42645  21223516.6024                   21223524.8014
 109162141.355 8                  20772868.664
 109521743.847 8                  20841287.953
 129443958.490 6                  24632374.000
 120486211.73047  93885434.70844  22927751.0004                   22927760.1254
 118855259.530 7                  22617403.992
 108908434.95548  84863815.20546  20724579.8914                   20724585.7624
 127595148.846 6                  24280547.734
 11  7 23  2 59  0.0000000  0  8G10G12G05G29G04G25G02G17
 111577719.74547  86943781.46045  21232528.5634                   21232536.5204
 109151671.808 8                  20770876.156
 109464991.373 8                  20830488.539
 129363713.699 6                  24617103.102
 120569260.87147  93950148.31244  22943554.6484                   22943563.2154
 118782400.941 7                  22603539.648
 108929056.51148  84879883.95946  20728504.2344                   20728509.7544
 127666595.699 6                  24294142.484
 11  7 23  2 59 30.0000000  0  8G10G12G05G29G04G25G02G17
 111625641.12047  86981122.80145  21241647.3054                   21241655.9304
 109141781.598 8                  20768994.188
 109408744.745 8                  20819785.086
 129283402.390 6                  24601820.773
 120652327.85847  94014875.83644  22959361.1254                   22959370.1374
 118709955.658 7                  22589753.758
 108949881.43248  84896111.17346  20732466.8054                   20732472.8674
 127738219.973 6                  24307772.672
 11  7 23  3  0  0.0000000  0  8G10G12G05G29G04G25G02G17
 111674124.99547  87018902.45345  21250873.5234                   21250882.1994
 109132470.980 8                  20767222.313
 109353005.349 8                  20809178.227
 129203024.948 6                  24586524.422
 120735411.27747  94079616.17544  22975171.9614                   22975180.2424
 118637925.875 7                  22576046.914
 108970908.28348  84912495.73646  20736468.1174                   20736474.0554
 127810021.246 6                  24321436.125
 11  7 23  3  0 30.0000000  0  8G10G12G05G29G04G25G02G17
 111723169.53647  87057118.97645  21260206.4694                   21260214.9614
 109123740.283 8                  20765560.805
 109297775.049 8                  20798667.984
 129122581.814 6                  24571216.859
 120818510.09047  94144368.48944  22990985.3594                   22990993.3284
 118566314.067 7                  22562419.742
 108992136.15548  84929036.94146  20740507.5004                   20740513.6724
 127881999.783 6                  24335132.820
 11  7 23  3  1  0.0000000  0  8G10G12G05G29G04G25G02G17
 111772772.80347  87095770.87345  21269645.5164                   21269653.8634
 109115590.260 8                  20764010.242
 109243055.703 8                  20788255.383
 129042073.482 6                  24555895.938
 120901623.03147  94209131.80444  23006800.7974                   23006808.6804
 118495122.619 7                  22548872.352
 109013564.08248  84945734.03646  20744585.1484                   20744591.4184
 127954155.488 6                  24348863.711
 11  7 23  3  1 30.0000000  0  8G10G12G05G29G04G25G02G17
 111822932.67947  87134856.48845  21279190.8364                   21279199.0824
 109108020.888 7                  20762569.352
 109188848.789 7                  20777940.031
 128961500.471 6                  24540564.031
 120984748.71446  94273905.08344  23022618.9774                   23022627.3244
 118424353.698 7                  22535405.563
 109035190.59547  84962585.86946  20748700.8444                   20748706.8244
 128026488.207 6                  24362628.031
 11  7 23  3  2  0.0000000  0  8G10G12G05G29G04G25G02G17
 111873647.84947  87174374.80345  21288841.6884                   21288849.2934
 109101033.597 8                  20761239.828
 109135156.553 8                  20767722.820
 128880863.725 6                  24525218.914
 121067886.51947  94338687.78244  23038440.0784                   23038449.0234
 118354010.215 7                  22522019.445
 109057015.51348  84979592.29946  20752853.9694                   20752860.0664
 128098998.046 6                  24376426.648
 11  7 23  3  2 30.0000000  0  8G10G12G05G29G04G25G02G17
 111924915.70647  87214323.78445  21298597.5944                   21298605.6134
 109094628.208 8                  20760021.031
 109081980.339 8                  20757603.570
 128800163.300 7                  24509862.734
 121151035.07947  94403478.84044  23054262.3674                   23054271.3794
 118284094.178 7                  22508714.547
 109079037.02548  84996751.91746  20757044.1484                   20757050.2894
 128171684.788 6                  24390258.797
 11  7 23  3  3  0.0000000  0  8G10G12G05G29G04G25G02G17
 111976734.29847  87254701.91545  21308458.2034                   21308466.7154
 109088805.017 8                  20758913.227
 109029321.714 8                  20747583.492
 128719399.467 6                  24494494.148
 121234193.22146  94468277.39544  23070086.4304                   23070095.1174
 118214607.745 7                  22495492.063
 109101253.82248  85014063.72446  20761272.0234                   20761278.0314
 128244548.366 6                  24404124.875
 11  7 23  3  3 30.0000000  0  8G10G12G05G29G04G25G02G17
 112029101.70747  87295507.67845  21318423.6724                   21318431.9494
 109083564.737 7                  20757916.023
 108977182.589 8                  20737661.313
 128638573.424 6                  24479112.695
 121317359.69046  94533082.39344  23085913.0084                   23085921.7114
 118145553.427 7                  22482351.383
 109123664.97447  85031526.95546  20765536.8834                   20765542.6214
 128317588.459 6                  24418023.125
 11  7 23  3  4  0.0000000  0  8G10G12G05G29G04G25G02G17
 112082016.04947  87336739.61745  21328492.7814                   21328501.5164
 109078907.908 8                  20757029.664
 108925564.463 8                  20727838.555
 128557685.729 6                  24463720.398
 121400533.74246  94597893.34843  23101740.2734                   23101749.2384
 118076933.700 7                  22469293.445
 109146269.93348  85049141.22146  20769838.1094                   20769844.0704
 128390805.287 7                  24431956.016
 11  7 23  3  4 30.0000000  0  8G10G12G05G29G04G25G02G17
 112135475.16247  87378396.05145  21338665.8914                   21338674.1884
 109074834.726 8                  20756254.625
 108874469.263 8                  20718115.133
 128476736.960 6                  24448315.867
 121483714.20246  94662709.27644  23117568.3054                   23117578.3594
 118008750.982 7                  22456318.289
 109169067.65148  85066905.68146  20774176.5234                   20774182.5354
 128464198.768 6                  24445921.844
 11  7 23  3  5  0.0000000  0  8G10G12G05G29G04G25G02G17
 112189476.80647  87420475.24645  21348942.3984                   21348950.0634
 109071345.434 8                  20755590.492
 108823898.446 8                  20708492.313
 128395727.451 6                  24432900.391
 121566900.01547  94727529.36644  23133398.8594                   23133408.0554
 117941007.394 7                  22443427.555
 109192056.77348  85084819.28146  20778550.9454                   20778557.0514
 128537768.694 7                  24459922.742
 11  7 23  3  5 30.0000000  0  8G10G12G05G29G04G25G02G17
 112244019.16147  87462975.78946  21359321.3054                   21359328.8954
 109068440.349 8                  20755037.492
 108773853.551 8                  20698968.883
 128314657.840 6                  24417473.539
 121650090.19647  94792352.87844  23149229.5164                   23149238.5354
 117873705.358 7                  22430620.242
 109215236.33748  85102881.29146  20782962.2974                   20782968.1334
 128611515.049 6                  24473955.875
 11  7 23  3  6  0.0000000  0  8G10G12G05G29G04G25G02G17
 112299100.00047  87505895.93446  21369802.3284                   21369810.5164
 109066119.974 8                  20754596.133
 108724335.855 8                  20689546.219
 128233529.289 6                  24402034.398
 121733283.72547  94857179.00644  23165060.7114                   23165069.4654
 117806847.132 7                  22417897.344
 109238605.38148  85121090.93746  20787408.8204                   20787415.1094
 128685437.507 6                  24488022.367
 11  7 23  3  6 30.0000000  0  8G10G12G05G29G04G25G02G17
 112354717.03647  87549233.88345  21380385.9614                   21380394.3404
 109064384.402 8                  20754265.633
 108675347.323 8                  20680223.914
 128152341.959 6                  24386586.039
 121816479.23847  94922006.66544  23180891.9454                   23180901.3204
 117740434.924 7                  22405259.750
 109262162.84448  85139447.40946  20791891.8054                   20791897.6764
 128759535.946 6                  24502123.047
 11  7 23  3  7  0.0000000  0  8G10G12G05G29G04G25G02G17
 112410868.85247  87592988.52445  21391071.1804                   21391080.1884
 109063234.007 8                  20754046.773
 108626889.509 8                  20671002.641
 128071097.082 6                  24371124.141
 121899676.39247  94986835.59444  23196724.4694                   23196733.0904
 117674471.457 7                  22392707.086
 109285908.03048  85157950.16246  20796410.5864                   20796416.4304
 128833811.037 6                  24516257.188
 11  7 23  3  7 30.0000000  0  7G10G12G05G29G04G25G02
 112467553.23547  87637158.16545  21401857.9844                   21401866.8244
 109062669.518 8                  20753939.609
 108578964.214 8                  20661883.000
 127989795.465 6                  24355653.711
 121982874.24947  95051665.09544  23212555.9924                   23212565.1564
 117608959.329 7                  22380240.453
 109309840.23448  85176598.63646  20800964.5554                   20800970.7464
 11  7 23  3  8  0.0000000  0  7G10G12G05G29G04G25G02
 112524766.83647  87681740.17145  21412745.3984                   21412754.2194
 109062690.620 8                  20753943.320
 108531572.006 8                  20652864.281
 127908436.552 6                  24340171.711
 122066070.87547  95116493.62744  23228388.1644                   23228397.0474
 117543899.604 7                  22367860.109
 109333957.01048  85195390.93546  20805554.0004                   20805559.7424
 11  7 23  3  8 30.0000000  0  7G10G12G05G29G04G25G02
 112582508.16647  87726733.41345  21423733.2814                   21423741.6054
 109063297.155 8                  20754058.766
 108484714.924 8                  20643947.656
 127827021.412 6                  24324679.234
 122149265.52947  95181320.63844  23244219.4224                   23244227.8834
 117479294.945 7                  22355566.344
 109358258.28148  85214327.00346  20810178.0784                   20810183.9534
 11  7 23  3  9  0.0000000  0  7G10G12G05G29G04G25G02
 112640774.55447  87772135.78945  21434821.0864                   21434829.1094
 109064488.874 8                  20754285.766
 108438393.794 8                  20635132.727
 127745550.802 6                  24309176.234
 122232457.22747  95246145.30744  23260050.3674                   23260058.7274
 117415147.364 7                  22343359.391
 109382742.77048  85233405.83246  20814837.5864                   20814843.6024
 11  7 23  3  9 30.0000000  0  7G10G12G05G29G04G25G02
 112699563.82047  87817945.60945  21446008.1724                   21446016.1994
 109066266.093 7                  20754624.008
 108392610.085 8                  20626420.422
 127664025.433 6                  24293661.242
 122315644.91647  95310966.88744  23275880.2664                   23275889.2894
 117351459.086 7                  22331240.156
 109407409.33248  85252626.54246  20819531.1334                   20819537.4774
 11  7 23  3 10  0.0000000  0  7G10G12G05G29G04G25G02
 112758873.55947  87864160.98645  21457294.5864                   21457302.9884
 109068629.105 8                  20755073.836
 108347365.164 8                  20617810.633
 127582445.604 6                  24278137.297
 122398827.66447  95375784.61744  23291709.3834                   23291718.5474
 117288232.332 7                  22319208.281
 109432256.83048  85271988.23446  20824259.5314                   20824265.9774
 11  7 23  3 10 30.0000000  0  7G10G12G05G29G04G25G02
 112818701.96047  87910780.51245  21468679.7734                   21468687.9614
 109071577.680 8                  20755634.930
 108302660.470 8                  20609303.977
 127500812.465 6                  24262602.992
 122482004.42047  95440597.66444  23307537.5234                   23307546.3094
 117225469.235 7                  22307265.195
 109457284.41748  85291490.25046  20829022.5784                   20829028.4414
 11  7 23  3 11  0.0000000  0  7G10G12G05G29G04G25G02
 112879046.95547  87957802.56745  21480162.7734                   21480171.6174
 109075112.221 8                  20756307.281
 108258497.561 8                  20600899.750
 127419126.579 7                  24247058.789
 122565174.35946  95505405.37143  23323363.5004                   23323372.6954
 117163172.107 7                  22295409.750
 109482491.18348  85311131.89446  20833819.1954                   20833824.8754
 11  7 23  3 11 30.0000000  0  7G10G12G05G29G04G25G02
 112939905.25647  88005224.60645  21491743.6484                   21491752.4884
 109079232.428 8                  20757091.305
 108214877.434 8                  20592599.484
 127337388.399 7                  24231503.750
 122648336.47346  95570206.98843  23339188.8674                   23339197.9694
 117101342.746 7                  22283644.484
 109507875.77948  85330912.09946  20838649.3984                   20838655.3284
 11  7 23  3 12  0.0000000  0  7G10G12G05G29G04G25G02
 113001274.98347  88053045.16545  21503422.3524                   21503430.1174
 109083938.431 8                  20757986.984
 108171801.558 8                  20584402.398
 127255599.257 6                  24215939.383
 122731489.83946  95635001.82343  23355012.2734                   23355022.0514
 117039983.643 8                  22271968.063
 109533437.63248  85350830.43046  20843513.5634                   20843519.8834
 11  7 23  3 12 30.0000000  0  7G10G12G05G29G04G25G02
 113063154.19447  88101262.73045  21515197.4844                   21515205.3054
 109089230.311 8                  20758993.898
 108129271.245 8                  20576308.805
 127173759.911 6                  24200366.375
 122814633.80346  95699789.30744  23370834.7274                   23370844.4024
 116979097.177 7                  22260381.539
 109559176.02048  85370886.31946  20848411.9144                   20848417.4614
 11  7 23  3 13  0.0000000  0  7G10G12G05G29G04G25G02
 113125540.16147  88149875.18345  21527068.9534                   21527076.5394
 109095107.722 8                  20760112.680
 108087287.802 8                  20568319.758
 127091870.449 6                  24184783.516
 122897767.23347  95764568.57244  23386654.7584                   23386663.6294
 116918684.953 8                  22248886.063
 109585089.45048  85391078.60546  20853342.4924                   20853348.6684
 11  7 23  3 13 30.0000000  0  7G10G12G05G29G04G25G02
 113188430.40847  88198880.57645  21539036.5314                   21539045.0234
 109101570.997 8                  20761342.063
 108045852.203 8                  20560434.633
 127009932.121 6                  24169190.453
 122980889.27146  95829338.93943  23402472.2194                   23402480.7974
 116858749.221 8                  22237480.367
 109611177.06348  85411406.62346  20858307.0234                   20858312.8164
 11  7 23  3 14  0.0000000  0  7G10G12G05G29G04G25G02
 113251822.51247  88248277.00845  21551099.6644                   21551108.2974
 109108619.131 8                  20762683.422
 108004965.754 8                  20552654.172
 126927945.582 6                  24153588.875
 123063998.65846  95894099.47744  23418286.9454                   23418296.2234
 116799291.923 8                  22226165.828
 109637437.90548  85431869.61146  20863304.3134                   20863310.3444
 11  7 23  3 14 30.0000000  0  7G10G12G05G29G04G25G02
 113315714.76747  88298063.16845  21563258.1484                   21563266.8524
 109116252.835 8                  20764136.000
 107964630.013 8                  20544978.281
 126845911.923 7                  24137979.086
 123147095.19247  95958849.97144  23434100.1804                   23434110.0084
 116740315.717 7                  22214942.789
 109663871.55448  85452467.26646  20868334.3054                   20868340.2974
 11  7 23  3 15  0.0000000  0  7G10G12G05G29G04G25G02
 113380104.35047  88348236.85045  21575510.9384                   21575519.3674
 109124471.955 8                  20765700.297
 107924845.783 8                  20537407.320
 126763831.741 7                  24122359.445
 123230177.93947  96023589.71544  23449910.1954                   23449919.8594
 116681822.377 8                  22203812.195
 109690476.82548  85473198.64346  20873397.4614                   20873403.3364
 11  7 23  3 15 30.0000000  0  7G10G12G05G29G04G25G02
 113444988.56047  88398795.97145  21587857.9774                   21587866.6024
 109133275.653 8                  20767375.328
 107885614.101 8                  20529942.023
 126681705.738 6                  24106731.664
 123313245.66446  96088317.77043  23465717.8914                   23465726.6334
 116623813.626 7                  22192773.469
 109717252.36848  85494062.71746  20878492.4924                   20878498.7274
 11  7 23  3 16  0.0000000  0  7G10G12G05G29G04G25G02
 113510364.79647  88449738.50045  21600298.7034                   21600306.7154
 109142663.557 8                  20769162.000
 107846935.809 8                  20522581.953
 126599534.174 6                  24091094.773
 123396297.26747  96153033.25844  23481522.4304                   23481531.0354
 116566291.222 8                  22181826.984
 109744196.68848  85515058.29446  20883620.1644                   20883625.8364
 11  7 23  3 16 30.0000000  0  7G10G12G05G29G04G25G02
 113576230.79447  88501062.65645  21612832.8594                   21612840.9614
 109152635.897 8                  20771059.609
 107808812.435 8                  20515327.203
 126517318.288 6                  24075449.773
 123479332.24747  96217735.79844  23497323.1484                   23497332.4964
 116509257.691 8                  22170974.023
 109771309.58348  85536185.23346  20888779.2814                   20888785.1994
 11  7 23  3 17  0.0000000  0  7G10G12G05G29G04G25G02
 113642584.45847  88552766.81645  21625459.1024                   21625467.4384
 109163192.562 8                  20773068.648
 107771244.969 8                  20508178.453
 126435059.322 6                  24059795.969
 123562349.85047  96282424.82444  23513120.6254                   23513130.1294
 116452714.883 8                  22160214.023
 109798590.26248  85557442.90546  20893970.7114                   20893976.6484
 11  7 23  3 17 30.0000000  0  7G10G12G05G29G04G25G02
 113709423.54847  88604849.22045  21638178.1024                   21638186.3834
 109174332.677 8                  20775188.469
 107734234.431 8                  20501135.508
 126352757.769 6                  24044133.961
 123645349.34147  96347099.68343  23528915.4694                   23528923.6294
 116396664.909 8                  22149548.734
 109826037.71348  85578830.52846  20899193.6174                   20899199.5744
 11  7 23  3 18  0.0000000  0  7G10G12G05G29G04G25G02
 113776745.16147  88657307.61045  21650989.1884                   21650997.5824
 109186056.340 8                  20777419.422
 107697781.975 8                  20494198.906
 126270414.715 6                  24028464.992
 123728329.87446  96411759.81843  23544705.1644                   23544714.4654
 116341109.815 8                  22138976.453
 109853651.15048  85600347.49446  20904448.3364                   20904453.7664
 11  7 23  3 18 30.0000000  0  7G10G12G05G29G04G25G02
 113844546.34247  88710139.68545  21663891.3054                   21663899.5514
 109198362.999 8                  20779761.336
 107661887.867 8                  20487368.359
 126188030.824 6                  24012787.781
 123811290.48446  96476404.40943  23560492.2584                   23560501.5394
 116286051.099 8                  22128499.234
 109881429.11448  85621992.65746  20909734.5004                   20909740.0164
 11  7 23  3 19  0.0000000  0  7G10G12G05G29G04G25G02
 113912824.73947  88763343.63145  21676884.5634                   21676892.8754
 109211251.876 8                  20782213.836
 107626553.474 8                  20480644.578
 126105606.900 6                  23997103.586
 123894230.19046  96541032.69443  23576276.3364                   23576284.4024
 116231490.696 8                  22118116.852
 109909370.73248  85643765.35046  20915051.3204                   20915057.0784
 11  7 23  3 19 30.0000000  0  7G10G12G05G29G04G25G02
 113981578.48447  88816917.98045  21689967.6484                   21689975.5864
 109224723.240 8                  20784777.477
 107591780.272 8                  20474027.703
 126023144.079 6                  23981410.992
 123977148.71846  96605644.48443  23592054.0084                   23592063.5944
 116177431.098 8                  22107829.805
 109937475.88348  85665665.46746  20920399.6954                   20920405.4574
 11  7 23  3 20  0.0000000  0  7G10G12G05G29G04G25G02
 114050804.40147  88870860.26245  21703141.2274                   21703148.6844
 109238775.979 8                  20787451.633
 107557568.560 8                  20467517.484
 125940642.802 6                  23965711.555
 124060044.87946  96670238.88543  23607828.9144                   23607836.4924
 116123873.481 8                  22097638.055
 109965742.80047  85687691.65746  20925778.4924                   20925784.4774
 11  7 23  3 20 30.0000000  0  7G10G12G05G29G04G25G02
 114120499.91447  88925168.45645  21716403.4064                   21716411.2074
 109253410.236 8                  20790236.156
 107523919.539 8                  20461114.078
 125858104.068 7                  23950005.156
 124142917.90346  96734815.20443  23623599.5394                   23623607.0084
 116070820.017 8                  22087541.766
 109994170.82948  85709843.37446  20931188.1884                   20931194.4924
 11  7 23  3 21  0.0000000  0  7G10G12G05G29G04G25G02
 114190662.12747  88979840.32445  21729755.2894                   21729762.8284
 109268624.720 8                  20793131.664
 107490833.409 8                  20454818.016
 125775528.651 7                  23934290.797
 124225766.79246  96799372.72743  23639364.9534                   23639374.5784
 116018272.162 8                  22077542.586
 110022758.56048  85732119.55146  20936628.3594                   20936634.2734
 11  7 23  3 21 30.0000000  0  7G10G12G05G29G04G25G02
 114261289.20447  89034874.41445  21743195.3594                   21743203.0354
 109284419.522 8                  20796137.336
 107458311.891 8                  20448629.344
 125692918.065 6                  23918571.266
 124308591.24847  96863911.23843  23655126.1884                   23655135.0204
 115966232.342 8                  22067639.359
 110051505.99448  85754520.16646  20942098.8284                   20942104.5864
 11  7 23  3 22  0.0000000  0  7G10G12G05G29G04G25G02
 114332378.30947  89090268.53445  21756722.8364                   21756731.0164
 109300794.075 8                  20799253.070
 107426355.113 8                  20442547.992
 125610272.732 7                  23902844.172
 124391390.49647  96928430.08043  23670882.5394                   23670890.5554
 115914702.028 8                  22057833.844
 110080411.86548  85777044.23646  20947599.2504                   20947605.6374
 11  7 23  3 22 30.0000000  0  7G10G12G05G29G04G25G02
 114403926.69447  89146020.53145  21770337.9614                   21770346.0274
 109317747.405 8                  20802479.383
 107394964.400 8                  20436574.813
 125527593.893 6                  23887110.484
 124474163.87247  96992928.79044  23686633.3204                   23686642.4344
 115863683.406 8                  22048125.523
 110109475.56948  85799691.28546  20953130.1024                   20953135.9184
 11  7 23  3 23  0.0000000  0  7G10G12G05G29G04G25G02
 114475932.13147  89202128.67945  21784039.9384                   21784048.1524
 109335278.978 8                  20805815.672
 107364139.981 8                  20430709.023
 125444882.149 7                  23871370.969
 124556910.42047  97057406.61644  23702379.7194                   23702389.4804
 115813177.836 8                  22038514.172
 110138695.71248  85822460.23146  20958690.4844                   20958696.1954
 11  7 23  3 23 30.0000000  0  7G10G12G05G29G04G25G02
 114548391.56247  89258590.58345  21797828.8444                   21797836.9614
 109353388.615 8                  20809261.523
 107333882.689 8                  20424951.219
 125362138.869 7                  23855625.250
 124639629.39047  97121862.94944  23718120.8674                   23718129.7034
 115763187.121 8                  22029001.406
 110168071.67148  85845350.59546  20964280.6254                   20964286.0274
 11  7 23  3 24  0.0000000  0  7G10G12G05G29G04G25G02
 114621301.58947  89315403.59545  21811702.9614                   21811710.8594
 109372074.863 8                  20812817.727
 107304193.156 8                  20419301.414
 125279364.220 7                  23839873.328
 124722319.90547  97186297.08144  23733856.3204                   23733865.2894
 115713712.627 8                  22019586.586
 110197602.00848  85868361.26146  20969899.6564                   20969905.8714
 11  7 23  3 24 30.0000000  0  7G10G12G05G29G04G25G02
 114694661.19047  89372566.93945  21825662.7584                   21825670.7624
 109391337.902 8                  20816483.227
 107275072.765 8                  20413759.930
 125196560.166 7                  23824116.664
 124804981.92146  97250709.00743  23749585.8444                   23749595.4774
 115664756.970 8                  22010270.828
 110227286.99048  85891492.41946  20975548.5234                   20975554.6804
 11  7 23  3 25  0.0000000  0  7G10G12G05G29G04G25G02
 114768467.78647  89430078.58245  21839707.7114                   21839715.6254
 109411177.139 8                  20820258.406
 107246522.440 8                  20408326.875
 125113727.918 7                  23808354.164
 124887614.93846  97315098.35843  23765310.5314                   23765320.3874
 115616322.233 8                  22001054.070
 110257126.14548  85914743.72346  20981227.0084                   20981232.6994
 11  7 23  3 25 30.0000000  0  7G10G12G05G29G04G25G02
 114842717.65447  89487935.63345  21853836.9454                   21853844.9774
 109431591.440 8                  20824143.125
 107218541.681 8                  20403002.539
 125030867.583 7                  23792586.469
 124970217.51846  97379463.97843  23781029.3984                   23781038.4534
 115568408.987 8                  21991936.469
 110287117.33048  85938113.47946  20986934.1954                   20986939.9384
 11  7 23  3 26  0.0000000  0  7G10G12G05G29G04G25G02
 114917407.83047  89546135.77545  21868050.2974                   21868058.0204
 109452579.795 8                  20828136.781
 107191131.265 8                  20397786.117
 124947980.090 6                  23776813.570
 125052788.68546  97443805.13243  23796741.6564                   23796751.8364
 115521018.671 8                  21982918.266
 110317259.42548  85961600.83846  20992669.9064                   20992675.8324
 11  7 23  3 26 30.0000000  0  7G10G12G05G29G04G25G02
 114992536.38147  89604677.49445  21882346.4614                   21882355.1054
 109474141.342 8                  20832240.438
 107164292.285 8                  20392678.758
 124865067.171 6                  23761035.273
 125135328.46246  97508121.81343  23812448.6564                   23812458.9614
 115474153.615 8                  21973999.930
 110347552.53448  85985205.86346  20998434.7344                   20998440.6804
 11  7 23  3 27  0.0000000  0  7G10G12G05G29G04G25G02
 115068100.61247  89663558.72945  21896725.7734                   21896734.1604
 109496275.886 8                  20836452.664
 107138025.267 8                  20387680.438
 124782129.601 6                  23745252.516
 125217836.47347  97572413.69943  23828149.3204                   23828159.0944
 115427815.631 8                  21965181.844
 110377996.01748  86008928.06746  21004227.4694                   21004233.9654
 11  7 23  3 27 30.0000000  0  7G10G12G05G29G04G25G02
 115144097.71847  89722777.25945  21911187.6884                   21911196.0164
 109518982.167 8                  20840773.102
 107112330.403 8                  20382790.867
 124699168.222 6                  23729465.414
 125300311.46746  97636679.85743  23843844.0704                   23843853.1954
 115382005.957 8                  21956464.734
 110408588.37048  86032766.26146  21010049.3134                   21010055.1524
 11  7 23  3 28  0.0000000  0  7G10G12G05G29G04G25G02
 115220524.74647  89782330.79045  21925731.2344                   21925738.9414
 109542259.239 8                  20845202.555
 107087208.603 8                  20378010.359
 124616183.871 6                  23713674.695
 125382753.04646  97700920.00343  23859532.5554                   23859541.7194
 115336726.184 8                  21947848.586
 110439328.90348  86056719.92346  21015898.9774                   21015904.5434
 11  7 23  3 28 30.0000000  0  7G10G12G05G29G04G25G02
 115297379.33447  89842217.49945  21940356.0864                   21940364.2934
 109566106.599 8                  20849740.883
 107062660.296 8                  20373338.766
 124533177.808 7                  23697879.359
 125465160.67346  97765133.66843  23875215.0084                   23875223.3164
 115291978.023 8                  21939333.117
 110470217.04648  86080788.59746  21021776.6334                   21021782.6604
 11  7 23  3 29  0.0000000  0  7G10G12G05G29G04G25G02
 115374658.20747  89902434.80945  21955061.8594                   21955070.2344
 109590522.914 8                  20854386.883
 107038685.362 8                  20368776.773
 124450151.344 7                  23682079.047
 125547533.51846  97829320.34943  23890888.7664                   23890897.6094
 115247762.769 8                  21930919.109
 110501251.72548  86104971.46246  21027682.3524                   21027688.4734
 11  7 23  3 29 30.0000000  0  7G10G12G05G29G04G25G02
 115452359.11047  89962980.96245  21969847.9694                   21969856.4454
 109615507.686 8                  20859141.266
 107015284.518 8                  20364323.414
 124367105.362 7                  23666275.969
 125629871.02947  97893479.43343  23906557.9224                   23906566.1214
 115204082.053 8                  21922607.023
 110532432.34948  86129268.05146  21033615.9694                   21033621.7114
 11  7 23  3 30  0.0000000  0  7G10G12G05G29G04G25G02
 115530479.20247  90023853.76445  21984713.4694                   21984721.6804
 109641059.621 8                  20864003.672
 106992458.743 8                  20359979.727
 124284041.318 7                  23650469.078
 125712172.81947  97957610.68643  23922219.4224                   23922228.5634
 115160937.723 8                  21914397.055
 110563758.35748  86153677.92446  21039576.8984                   21039583.4024
 11  7 23  3 30 30.0000000  0  7G10G12G05G29G04G25G02
 115609015.41847  90085050.81845  21999658.9064                   21999666.9964
 109667177.272 8                  20868973.453
 106970207.707 8                  20355745.898
 124200959.642 7                  23634659.656
 125794438.00546  98021713.40143  23937872.9924                   23937883.4414
 115118330.745 8                  21906288.992
 110595228.26848  86178199.94146  21045565.6644                   21045571.7114
 11  7 23  3 31  0.0000000  0  7G10G12G05G29G04G25G02
 115687965.47547  90146570.33845  22014682.4694                   22014690.4384
 109693860.452 8                  20874051.086
 106948532.185 8                  20351621.078
 124117861.774 7                  23618846.430
 125876666.32847  98085787.38444  23953521.3914                   23953530.8164
 115076263.016 8                  21898283.844
 110626841.93948  86202833.96146  21051581.5234                   21051587.5664
 11  7 23  3 31 30.0000000  0  7G10G12G05G29G04G25G02
 115767326.48647  90208410.08745  22029783.9144                   22029792.6134
 109721108.196 8                  20879236.328
 106927432.656 8                  20347605.750
 124034748.795 7                  23603030.680
 125958857.27947  98149832.25744  23969162.1334                   23969170.9224
 115034736.043 8                  21890381.508
 110658598.70948  86227579.48946  21057624.7344                   21057630.6484
 11  7 23  3 32  0.0000000  0  7G10G12G05G29G04G25G02
 115847095.58747  90270567.82345  22044963.3674                   22044971.6524
 109748919.296 8                  20884528.672
 106906909.278 8                  20343700.625
 123951622.118 7                  23587211.633
 126041010.21246  98213847.54343  23984795.2274                   23984803.5594
 114993751.146 8                  21882582.117
 110690497.81248  86252435.92246  21063694.8364                   21063700.8484
 11  7 23  3 32 30.0000000  0  7G10G12G05G29G04G25G02
 115927269.96647  90333041.35945  22060219.7664                   22060228.7074
 109777292.140 8                  20889927.820
 106886961.910 8                  20339904.492
 123868482.362 7                  23571390.313
 126123124.20846  98277832.46043  24000420.7034                   24000430.0474
 114953309.344 8                  21874886.344
 110722537.72248  86277402.07446  21069791.8284                   21069797.8714
 11  7 23  3 33  0.0000000  0  7G10G12G05G29G04G25G02
 116007846.83847  90395828.50145  22075553.3594                   22075561.8984
 109806225.985 7                  20895433.656
 106867591.019 8                  20336218.359
 123785330.833 7                  23555567.836
 126205199.14746  98341786.95243  24016038.8984                   24016048.0514
 114913412.338 8                  21867294.461
 110754718.19147  86302477.76146  21075915.2734                   21075921.1374
 11  7 23  3 33 30.0000000  0  7G10G12G05G29G04G25G02
 116088823.59947  90458927.27845  22090963.0554                   22090971.4344
 109835719.637 7                  20901046.398
 106848797.431 8                  20332641.891
 123702168.924 6                  23539741.813
 126287234.27046  98405710.37043  24031649.3134                   24031659.0744
 114874061.472 8                  21859805.938
 110787038.51048  86327662.42646  21082065.7664                   21082072.0824
 11  7 23  3 34  0.0000000  0  7G10G12G05G29G04G25G02
 116170196.90847  90522335.03145  22106447.8594                   22106456.3164
 109865771.817 8                  20906765.180
 106830580.512 8                  20329175.711
 123618997.274 7                  23523915.391
 126369228.79546  98469602.12943  24047252.4774                   24047262.4494
 114835257.589 8                  21852422.031
 110819497.35348  86352955.01446  21088242.8754                   21088248.5044
 11  7 23  3 34 30.0000000  0  7G10G12G05G29G04G25G02
 116251964.84047  90586050.27445  22122007.6094                   22122016.0744
 109896381.804 7                  20912590.055
 106812941.288 8                  20325818.867
 123535817.868 6                  23508087.422
 126451182.61746  98533462.21143  24062848.2344                   24062858.1684
 114797002.853 8                  21845142.422
 110852094.82548  86378355.63846  21094445.7274                   21094451.7074
 11  7 23  3 35  0.0000000  0  7G10G12G05G29G04G25G02
 116334124.20947  90650070.55545  22137642.0394                   22137650.4414
 109927548.158 8                  20918520.914
 106795879.782 8                  20322572.063
 123452631.277 6                  23492256.625
 126533095.32246  98597290.18943  24078436.2274                   24078445.0164
 114759298.365 8                  21837967.555
 110884830.06848  86403863.61046  21100675.3204                   21100681.2194
 11  7 23  3 35 30.0000000  0  7G10G12G05G29G04G25G02
 116416671.81047  90714393.34945  22153350.3674                   22153358.8014
 109959269.574 8                  20924557.117
 106779395.396 8                  20319435.000
 123369438.515 7                  23476425.695
 126614965.91346  98661085.39943  24094014.4304                   24094024.2584
 114722144.886 8                  21830897.352
 110917701.75048  86429477.89846  21106930.7034                   21106936.6804
 11  7 23  3 36  0.0000000  0  7G10G12G05G29G04G25G02
 116499605.18047  90779016.72145  22169132.5864                   22169140.6844
 109991544.779 8                  20930698.961
 106763488.548 8                  20316408.102
 123286241.437 7                  23460593.563
 126696794.42646  98724847.77943  24109586.9224                   24109597.0314
 114685544.214 8                  21823932.336
 110950709.89948  86455198.53446  21113211.4304                   21113217.3484
 11  7 23  3 36 30.0000000  0  7G10G12G05G29G04G25G02
 116582921.17447  90843938.26045  22184986.8054                   22184994.9804
 110024372.223 8                  20936945.773
 106748159.610 8                  20313491.031
 123203041.129 6                  23444761.031
 126778580.24646  98788576.91943  24125150.2194                   24125159.2304
 114649497.296 8                  21817072.922
 110983853.39048  86481024.62346  21119518.5784                   21119524.8134
 11  7 23  3 37  0.0000000  0  7G10G12G05G29G04G25G02
 116666617.11847  90909155.84945  22200913.3054                   22200922.0474
 110057750.835 8                  20943297.711
 106733408.340 8                  20310684.234
 123119838.532 7                  23428928.227
 126860322.59146  98852272.13743  24140705.4774                   24140713.3554
 114614005.260 8                  21810319.070
 111017131.41348  86506955.53346  21125851.4694                   21125857.2584
 11  7 23  3 37 30.0000000  0  7G10G12G05G29G04G25G02
 116750690.14347  90974667.28344  22216912.2114                   22216920.2154
 110091679.139 8                  20949753.781
 106719234.524 8                  20307987.297
 123036635.028 7                  23413095.281
 126942021.08446  98915933.24943  24156252.2034                   24156261.5044
 114579069.290 8                  21803670.570
 111050543.24548  86532990.72846  21132209.4694                   21132215.1214
 11  7 23  3 38  0.0000000  0  7G10G12G05G29G04G25G02
 116835137.74547  91040470.60145  22232982.4224                   22232989.6994
 110126156.111 8                  20956314.680
 106705639.097 8                  20305399.703
 122953431.576 7                  23397261.813
 127023675.61646  98979560.13643  24171790.3284                   24171800.5824
 114544690.831 8                  21797128.984
 111084088.57748  86559129.93546  21138592.9454                   21138598.5124
 11  7 23  3 38 30.0000000  0  7G10G12G05G29G04G25G02
 116919956.49847  91106563.12244  22249122.6564                   22249130.0864
 110161180.204 8                  20962979.500
 106692621.192 8                  20302922.922
 122870229.615 7                  23381429.344
 127105285.28747  99043152.02343  24187319.9694                   24187329.8164
 114510870.656 8                  21790693.188
 111117766.38448  86585372.39446  21145001.1564                   21145007.2034
 11  7 23  3 39  0.0000000  0  7G10G12G05G29G04G25G02
 117005144.07647  91172943.03844  22265333.2814                   22265341.2304
 110196750.165 7                  20969748.234
 106680181.443 8                  20300555.484
 122787030.685 7                  23365597.195
 127186850.08046  99106708.92443  24202841.7424                   24202851.3794
 114477610.341 8                  21784363.953
 111151576.44647  86611717.89346  21151434.9774                   21151441.1724
 11  7 23  3 39 30.0000000  0  7G10G12G05G29G04G25G02
 117090697.39247  91239607.94444  22281613.3524                   22281621.1644
 110232864.254 8                  20976620.359
 106668319.315 8                  20298298.234
 122703836.083 7                  23349764.992
 127268369.56346  99170230.51343  24218353.9774                   24218364.8484
 114444910.782 8                  21778141.289
 111185517.90148  86638165.77646  21157894.2734                   21157899.8794
 11  7 23  3 40  0.0000000  0  7G10G12G05G29G04G25G02
 117176613.83347  91306555.79944  22297962.6724                   22297970.5594
 110269521.503 8                  20983595.781
 106657034.880 8                  20296151.063
 122620646.948 7                  23333934.719
 127349843.05546  99233716.27343  24233857.8524                   24233868.0274
 114412773.164 8                  21772025.359
 111219590.20548  86664715.61446  21164378.3594                   21164384.0004
 11  7 23  3 40 30.0000000  0  7G10G12G05G29G04G25G02
 117262889.92447  91373783.89044  22314380.4064                   22314388.7894
 110306720.327 7                  20990674.531
 106646327.821 8                  20294113.305
 122537464.131 7                  23318105.859
 127431270.01746  99297165.73942  24249353.2814                   24249361.8014
 114381198.113 8                  21766017.469
 111253792.36747  86691366.63046  21170886.0784                   21170892.2234
 11  7 23  3 41  0.0000000  0  7G10G12G05G29G04G25G02
 117349523.09447  91441290.25145  22330866.3914                   22330874.6054
 110344458.703 8                  20997856.375
 106636197.969 8                  20292185.617
 122454289.090 6                  23302277.570
 127512650.16546  99360578.76443  24264839.4064                   24264848.8714
 114350186.772 8                  21760115.820
 111288123.63648  86718118.26146  21177419.4384                   21177425.0204
 11  7 23  3 41 30.0000000  0  7G10G12G05G29G04G25G02
 117436510.73147  91509072.80544  22347419.5704                   22347427.4064
 110382735.259 8                  21005139.828
 106626645.056 8                  20290367.875
 122371123.178 6                  23286452.008
 127593983.06746  99423954.98642  24280317.3524                   24280325.6334
 114319740.134 8                  21754321.984
 111322583.37948  86744970.00246  21183976.9144                   21183982.9494
 11  7 23  3 42  0.0000000  0  7G10G12G05G29G04G25G02
 117523849.93247  91577129.29644  22364039.5784                   22364047.2424
 110421548.984 8                  21012526.500
 106617669.708 8                  20288659.602
 122287968.095 6                  23270627.289
 127675268.53746  99487294.23642  24295784.5314                   24295793.9694
 114289859.486 8                  21748636.258
 111357171.45548  86771921.73546  21190558.4454                   21190564.9104
 11  7 23  3 42 30.0000000  0  7G10G12G05G29G04G25G02
 117611537.37947  91645457.16545  22380726.0634                   22380734.0634
 110460897.694 8                  21020013.758
 106609270.617 8                  20287061.641
 122204824.541 6                  23254806.406
 127756505.92046  99550595.99943  24311243.9304                   24311252.8914
 114260545.220 8                  21743057.625
 111391886.65348  86798972.52446  21197164.7814                   21197170.8164
 11  7 23  3 43  0.0000000  0  7G10G12G05G29G04G25G02
 117699570.35447  91714054.27644  22397478.2504                   22397486.0864
 110500780.184 8                  21027603.242
 106601447.877 8                  20285572.938
 122121694.167 7                  23238987.039
 127837694.61146  99613859.85243  24326693.5944                   24326703.0474
 114231798.500 8                  21737587.242
 111426728.26048  86826121.80846  21203795.1804                   21203800.9574
 11  7 23  3 43 30.0000000  0  7G10G12G05G29G04G25G02
 117787946.19247  91782918.53044  22414295.7664                   22414303.9064
 110541194.815 8                  21035294.273
 106594201.567 8                  20284193.961
 122038578.476 7                  23223170.742
 127918834.94346  99677085.97643  24342133.7424                   24342143.8554
 114203620.521 8                  21732225.250
 111461696.30448  86853369.62946  21210449.4064                   21210455.6844
 11  7 23  3 44  0.0000000  0  7G10G12G05G29G04G25G02
 117876662.21347  91852047.88345  22431177.5784                   22431185.8484
 110582139.980 8                  21043085.563
 106587531.601 8                  20282924.508
 121955478.982 7                  23207357.727
 127999926.63546  99740274.20043  24357565.8364                   24357575.4844
 114176012.242 8                  21726971.344
 111496790.27848  86880715.56446  21217127.3204                   21217133.4774
 11  7 23  3 44 30.0000000  0  8G10G12G05G29G04G25G26G02
 117965715.64647  91921440.13444  22448124.0634                   22448132.2894
 110623614.683 8                  21050978.102
 106581437.608 8                  20281765.063
 121872397.206 7                  23191548.023
 128080968.95346  99803423.98643  24372988.3054                   24372997.3014
 114148974.548 8                  21721826.656
 130220370.21556 101470491.11153  24780121.6954                   24780131.6414
 111532009.50048  86908159.09746  21223829.3054                   21223835.5984
 11  7 23  3 45  0.0000000  0  8G10G12G05G29G04G25G26G02
 118055103.53747  91991093.01644  22465133.7734                   22465142.4304
 110665616.549 8                  21058970.711
 106575919.199 8                  20280715.039
 121789334.677 7                  23175740.891
 128161961.86547  99866535.28843  24388400.3914                   24388409.6414
 114122508.339 8                  21716790.039
 130124899.54346 101396098.41743  24761954.1094                   24761963.4104
 111567353.48748  86935699.85246  21230555.3444                   21230561.3244
 11  7 23  3 45 30.0000000  0  8G10G12G05G29G04G25G26G02
 118144822.71547  92061004.04644  22482206.5394                   22482215.0704
 110708143.753 8                  21067063.320
 106570975.892 8                  20279774.070
 121706292.133 7                  23159938.734
 128242904.74247  99929607.58843  24403803.1724                   24403812.8014
 114096614.052 8                  21711862.688
 130029315.05446 101321617.04943  24743764.6174                   24743774.1524
 111602821.17448  86963336.99846  21237304.3444                   21237310.6254
 11  7 23  3 46  0.0000000  0  8G10G12G05G29G04G25G26G02
 118234870.45247  92131171.09444  22499342.5084                   22499351.1174
 110751194.918 8                  21075255.594
 106566607.126 8                  20278942.953
 121623271.149 7                  23144140.563
 128323797.28747  99992640.64743  24419196.1564                   24419205.9844
 114071292.550 8                  21707044.219
 129933619.73846 101247049.35043  24725553.3754                   24725564.2814
 111638412.20548  86991070.25046  21244077.2974                   21244083.6994
 11  7 23  3 46 30.0000000  0  8G10G12G05G29G04G25G26G02
 118325243.67547  92201591.76044  22516539.9304                   22516548.3754
 110794768.219 8                  21083547.344
 106562812.407 8                  20278220.789
 121540272.977 7                  23128345.852
 128404639.08647 100055634.19543  24434579.6094                   24434589.6054
 114046544.486 8                  21702334.594
 129837816.44646 101172397.47742  24707322.8054                   24707333.3834
 111674125.83648  87018899.05146  21250873.1724                   21250879.3874
 11  7 23  3 47  0.0000000  0  8G10G12G05G29G04G25G26G02
 118415939.48247  92272263.80144  22533799.1094                   22533807.3674
 110838861.896 8                  21091938.211
 106559591.693 8                  20277608.164
 121457299.324 7                  23112556.938
 128485429.97847 100118588.07443  24449954.4144                   24449963.9804
 114022370.716 8                  21697734.414
 129741908.18246 101097663.77542  24689072.3754                   24689082.9694
 111709961.56548  87046822.98246  21257692.6564                   21257698.6804
 11  7 23  3 47 30.0000000  0  8G10G12G05G29G04G25G26G02
 118506954.85347  92343184.85644  22551118.5944                   22551126.6174
 110883474.010 8                  21100427.781
 106556944.096 8                  20277104.070
 121374351.416 7                  23096772.320
 128566169.37147 100181501.82943  24465318.6724                   24465327.6844
 113998771.788 8                  21693243.734
 129645898.05445 101022850.79242  24670801.2974                   24670812.4064
 111745918.87748  87074841.65846  21264535.2344                   21264541.1214
 11  7 23  3 48  0.0000000  0  8G10G12G05G29G04G25G26G02
 118598287.33447  92414353.00344  22568498.2424                   22568506.5984
 110928602.963 8                  21109015.508
 106554869.760 8                  20276709.219
 121291431.071 7                  23080992.328
 128646857.24147 100244375.44943  24480672.2424                   24480682.6024
 113975748.685 8                  21688862.758
 129549789.07246 100947960.72142  24652513.5554                   24652522.8594
 111781997.41548  87102954.78546  21271400.7664                   21271406.6804
 11  7 23  3 48 30.0000000  0  8G10G12G05G29G04G25G26G02
 118689933.52447  92485765.59344  22585938.5944                   22585946.2074
 110974246.606 8                  21117701.063
 106553366.965 8                  20276423.398
 121208538.948 7                  23065219.086
 128727493.18146 100307208.63642  24496017.6804                   24496027.1844
 113953301.609 8                  21684591.531
 129453583.69046 100872995.55742  24634205.1724                   24634216.0354
 111818196.01148  87131161.46946  21278289.1564                   21278294.5474
 11  7 23  3 49  0.0000000  0  8G10G12G05G29G04G25G26G02
 118781891.02047  92557420.76344  22603436.8834                   22603444.8554
 111020403.670 8                  21126484.266
 106552436.449 8                  20276246.047
 121125677.288 7                  23049450.531
 128808076.91746 100370001.18842  24511351.7344                   24511361.6994
 113931431.613 8                  21680429.516
 129357285.45046 100797957.99743  24615880.5864                   24615891.2894
 111854514.74448  87159461.76646  21285200.0704                   21285206.1454
 11  7 23  3 49 30.0000000  0  8G10G12G05G29G04G25G26G02
 118874156.68047  92629316.08944  22620994.9454                   22621002.9024
 111067071.943 8                  21135365.313
 106552077.212 8                  20276178.000
 121042847.425 7                  23033688.984
 128888608.26046 100432752.81942  24526676.4304                   24526685.7234
 113910139.186 8                  21676377.578
 129260897.26447 100722850.34043  24597539.1564                   24597549.1764
 111890952.94348  87187855.16446  21292134.3834                   21292140.3714
 11  7 23  3 50  0.0000000  0  8G10G12G05G29G04G25G26G02
 118966727.46247  92701449.15244  22638610.5164                   22638618.7344
 111114249.476 8                  21144342.594
 106552288.737 8                  20276217.875
 120960050.849 7                  23017933.625
 128969086.84845 100495463.31042  24541989.8204                   24542000.8634
 113889424.858 8                  21672435.898
 129164422.10346 100647674.91043  24579179.8054                   24579190.0274
 111927509.79748  87216341.02446  21299090.4454                   21299096.4694
 11  7 23  3 50 30.0000000  0  8G10G12G05G29G04G25G26G02
 119059600.89947  92773818.04944  22656284.0314                   22656292.1414
 111161934.944 8                  21153417.117
 106553070.344 8                  20276366.945
 120877288.914 7                  23002184.492
 129049512.75816                  24557295.711
 113869289.342 8                  21668604.211
 129067862.89647 100572433.96743  24560805.5554                   24560815.7624
 111964185.18948  87244919.26046  21306069.7424                   21306076.2624
 11  7 23  3 51  0.0000000  0  8G10G12G05G29G04G25G26G02
 119152773.31247  92846419.90844  22674013.9224                   22674022.0824
 111210125.328 8                  21162587.281
 106554420.472 8                  20276623.680
 120794562.748 7                  22986442.242
 129129884.95746 100620680.45552  24572590.2734                   24572598.4844
 113849732.606 8                  21664882.836
 128971222.39546 100497129.71043  24542415.2034                   24542425.9264
 112000977.91748  87273588.91246  21313071.1334                   21313076.9924
 11  7 23  3 51 30.0000000  0  8G10G12G05G29G04G25G26G02
 119246242.86347  92919253.31444  22691800.4924                   22691808.6994
 111258819.455 8                  21171853.328
 106556340.051 8                  20276988.945
 120711874.408 7                  22970706.930
 129210203.92446 100683266.59142  24587874.0784                   24587883.7894
 113830755.858 8                  21661271.133
 128874504.25047 100421764.91844  24524010.4694                   24524020.8364
 112037888.69048  87302350.54846  21320095.1644                   21320101.0314
 11  7 23  3 52  0.0000000  0  8G10G12G05G29G04G25G26G02
 119340006.30047  92992315.70944  22709642.8364                   22709651.5084
 111308015.355 8                  21181215.172
 106558827.951 8                  20277462.406
 120629225.094 7                  22954979.125
 129290469.32746 100745811.04643  24603147.9384                   24603157.3954
 113812359.411 8                  21657770.922
 128777711.38346 100346341.92443  24505591.2584                   24505601.2154
 112074916.10848  87331203.08246  21327140.9614                   21327147.3164
 11  7 23  3 52 30.0000000  0  8G10G12G05G29G04G25G26G02
 119434060.22446  93065604.46244  22727540.7974                   22727549.3404
 111357710.988 8                  21190672.289
 106561883.078 8                  20278043.695
 120546616.632 7                  22939259.898
 129370680.58646 100808313.34743  24618412.1334                   24618421.8404
 113794543.477 8                  21654380.430
 128680846.56846 100270862.83843  24487158.9924                   24487168.7854
 112112059.64348  87360146.09946  21334209.1954                   21334215.4924
 11  7 23  3 53  0.0000000  0  8G10G12G05G29G04G25G26G02
 119528401.71847  93139117.30144  22745493.4064                   22745501.5554
 111407904.125 8                  21200223.453
 106565504.300 8                  20278732.883
 120464050.321 7                  22923547.656
 129450837.40256 100870773.18453  24633665.4774                   24633675.6294
 113777308.343 8                  21651100.750
 128583912.89746 100195330.14043  24468712.0704                   24468723.5864
 112149318.72148  87389179.14846  21341298.9614                   21341305.3284
 11  7 23  3 53 30.0000000  0  8G10G12G05G29G04G25G26G02
 119623028.36847  93212852.33744  22763500.5234                   22763508.1644
 111458592.702 8                  21209869.273
 106569691.402 8                  20279529.664
 120381527.753 7                  22907844.313
 129530939.69546 100933190.58643  24648907.9384                   24648918.2504
 113760654.714 8                  21647931.430
 128486913.80546 100119746.45743  24450254.6954                   24450265.1024
 112186693.35147  87418302.23646  21348411.3594                   21348417.7934
 11  7 23  3 54  0.0000000  0  8G10G12G05G29G04G25G26G02
 119717937.20947  93286807.26344  22781561.0554                   22781568.9414
 111509775.142 8                  21219609.227
 106574443.862 8                  20280433.836
 120299050.668 7                  22892149.125
 129610987.59146 100995565.56643  24664140.6724                   24664150.7344
 113744582.960 8                  21644873.109
 128389852.24545 100044114.09843  24431783.3524                   24431794.8714
 112224182.91548  87447514.90146  21355545.6724                   21355551.3284
 11  7 23  3 54 30.0000000  0  8G10G12G05G29G04G25G26G02
 119813125.21847  93360979.71944  22799674.7424                   22799683.2774
 111561449.054 8                  21229441.969
 106579760.764 8                  20281445.813
 120216620.614 7                  22876462.906
 129690980.62446 101057897.81443  24679363.4144                   24679372.6374
 113729093.518 8                  21641925.695
 128292731.56146  99968435.68642  24413302.8674                   24413313.3324
 112261787.19847  87476816.94846  21362701.1644                   21362707.3244
 11  7 23  3 55  0.0000000  0  8G10G12G05G29G04G25G26G02
 119908590.29647  93435368.06944  22817841.0634                   22817849.4344
 111613612.891 8                  21239368.680
 106585641.673 8                  20282564.977
 120134239.349 7                  22860786.273
 129770919.05246 101120187.56643  24694574.9224                   24694584.3324
 113714187.037 8                  21639089.133
 128195554.90446  99892713.57743  24394811.1334                   24394820.8484
 112299505.72547  87506208.01746  21369878.9384                   21369884.8954
 11  7 23  3 55 30.0000000  0  7G10G12G05G29G25G26G02
 120004328.87147  93509969.54944  22836059.4384                   22836067.3754
 111666264.222 8                  21249387.773
 106592085.148 8                  20283791.172
 120051908.361 7                  22845119.867
 113699863.424 8                  21636363.203
 128098325.29446  99816950.32942  24376308.5784                   24376318.5044
 112337337.84147  87535687.59246  21377078.0704                   21377084.5274
 11  7 23  3 56  0.0000000  0  7G10G12G05G29G25G26G02
 120100337.99547  93584781.84444  22854329.1564                   22854337.7154
 111719400.936 8                  21259499.508
 106599090.407 8                  20285123.977
 119969628.968 7                  22829462.188
 113686122.915 8                  21633748.727
 128001045.81947  99741148.14143  24357797.2274                   24357806.9774
 112375283.12448  87565255.36546  21384298.7424                   21384305.5944
 11  7 23  3 56 30.0000000  0  7G10G12G05G29G25G26G02
 120196614.89847  93659802.79244  22872650.0234                   22872658.4344
 111773020.913 8                  21269702.906
 106606657.069 8                  20286564.234
 119887403.213 7                  22813815.313
 113672965.860 8                  21631244.945
 127903719.59247  99665309.50543  24339276.8444                   24339285.5664
 112413341.43448  87594911.20146  21391541.3444                   21391547.4654
 11  7 23  3 57  0.0000000  0  7G10G12G05G29G25G26G02
 120293156.66147  93735030.13044  22891021.3914                   22891029.5434
 111827122.031 8                  21279998.039
 106614783.453 8                  20288110.359
 119805232.323 7                  22798178.555
 113660392.145 8                  21628852.188
 127806349.54546  99589436.68443  24320747.1644                   24320756.6804
 112451511.85548  87624654.40546  21398804.7504                   21398810.9654
 11  7 23  3 57 30.0000000  0  7G10G12G05G29G25G26G02
 120389960.15247  93810461.41544  22909442.8674                   22909450.5984
 111881701.610 8                  21290384.156
 106623468.676 8                  20289763.273
 119723117.825 7                  22782552.617
 113648401.959 8                  21626570.766
 127708939.02746  99513532.33643  24302210.8914                   24302220.4414
 112489793.70548  87654484.42246  21406089.6954                   21406095.9454
 11  7 23  3 58  0.0000000  0  7G10G12G05G29G25G26G02
 120487022.71446  93886094.57244  22927913.5704                   22927921.3954
 111936757.659 8                  21300861.383
 106632711.818 8                  20291522.000
 119641061.491 7                  22766937.891
 113636995.497 8                  21624399.758
 127611491.12846  99437598.91143  24283667.6414                   24283676.7664
 112528186.75548  87684401.08746  21413396.1254                   21413401.8674
 11  7 23  3 58 30.0000000  0  7G10G12G05G29G25G26G02
 120584341.37647  93961927.29144  22946432.6254                   22946440.4224
 111992288.184 8                  21311428.211
 106642512.131 8                  20293387.250
 119559065.041 7                  22751334.109
 113626173.123 8                  21622340.727
 127514009.11546  99361638.94343  24265117.2344                   24265127.0704
 112566690.58048  87714404.07646  21420722.6024                   21420729.2114
 11  7 23  3 59  0.0000000  0  7G10G12G05G29G25G26G02
 120681913.47246  94037957.51944  22965000.1954                   22965007.8634
 112048291.163 8                  21322085.102
 106652868.635 8                  20295357.688
 119477129.933 7                  22735742.766
 113615935.177 8                  21620392.313
 127416496.40446  99285655.01143  24246561.0234                   24246571.0824
 112605305.38648  87744493.54546  21428071.1564                   21428076.9534
 11  7 23  3 59 30.0000000  0  7G10G12G05G29G25G26G02
 120779736.30847  94114183.06744  22983614.6804                   22983623.4344
 112104764.802 8                  21332831.945
 106663780.845 8                  20297434.117
 119395258.187 7                  22720162.641
 113606281.669 8                  21618555.258
 127318956.42246  99209649.86743  24227999.3054                   24228010.7544
 112644030.63448  87774669.08046  21435439.9384                   21435446.1414
 11  7 23  4  0  0.0000000  0  7G10G12G05G29G25G26G02
 120877806.76946  94190601.60044  23002277.1334                   23002285.4304
 112161705.679 8                  21343667.438
 106675246.784 8                  20299616.227
 119313451.212 7                  22704595.258
 113597212.353 8                  21616829.422
 127221391.77846  99133625.48243  24209433.8364                   24209443.9884
 112682865.53848  87804930.04546  21442830.0704                   21442836.1524
 11  7 23  4  0 30.0000000  0  7G10G12G05G29G25G26G02
 120976122.33646  94267211.09544  23020985.2974                   23020994.6174
 112219112.041 8                  21354591.719
 106687265.789 8                  20301903.133
 119231710.637 7                  22689040.180
 113588727.375 8                  21615214.578
 127123805.98546  99057584.61543  24190863.4614                   24190874.5554
 112721810.05148  87835276.41046  21450241.2114                   21450246.6914
 11  7 23  4  1  0.0000000  0  7G10G12G05G29G25G26G02
 121074679.71946  94344009.04144  23039739.9924                   23039748.8594
 112276981.457 8                  21365603.539
 106699836.820 8                  20304295.500
 119150038.424 7                  22673498.867
 113580826.639 8                  21613711.375
 127026202.21446  98981529.78643  24172290.5004                   24172300.8554
 112760863.49948  87865707.67846  21457672.6094                   21457678.8794
 11  7 23  4  1 30.0000000  0  7G10G12G05G29G25G26G02
 121173476.44047  94420993.49944  23058541.2894                   23058550.1214
 112335312.154 8                  21376703.852
 106712959.135 8                  20306792.453
 119068436.445 7                  22657970.695
 113573510.524 8                  21612319.219
 126928584.02246  98905463.63943  24153714.1024                   24153724.4694
 112800025.88948  87896223.82646  21465124.7974                   21465131.2664
 11  7 23  4  2  0.0000000  0  7G10G12G05G29G25G26G02
 121272509.12747  94498161.80644  23077386.3984                   23077394.8984
 112394101.295 8                  21387890.922
 106726630.802 8                  20309394.188
 118986905.986 7                  22642455.766
 113566778.557 8                  21611038.117
 126830954.35846  98829388.59043  24135135.3444                   24135145.9924
 112839296.50248  87926824.30046  21472598.3594                   21472603.9654
 11  7 23  4  2 30.0000000  0  7G10G12G05G29G25G26G02
 121371775.04247  94575511.84944  23096275.7194                   23096284.4494
 112453346.589 8                  21399164.898
 106740850.502 8                  20312100.352
 118905448.559 7                  22626954.930
 113560630.600 8                  21609868.477
 126733316.45946  98753307.13143  24116555.7034                   24116565.9384
 112878674.77748  87957508.66146  21480090.8984                   21480096.8134
 11  7 23  4  3  0.0000000  0  7G10G12G05G29G25G26G02
 121471271.65147  94653041.66944  23115209.4774                   23115217.9454
 112513046.236 8                  21410525.563
 106755618.327 8                  20314910.180
 118824066.707 7                  22611468.414
 113555067.297 8                  21608809.539
 126635674.04746  98677222.16643  24097975.1094                   24097985.2304
 112918161.27548  87988277.35546  21487605.6564                   21487611.6214
 11  7 23  4  3 30.0000000  0  7G10G12G05G29G25G26G02
 121570996.05747  94730748.97844  23134185.9844                   23134194.9574
 112573197.555 8                  21421971.766
 106770932.513 8                  20317824.531
 118742761.767 7                  22595996.727
 113550088.017 8                  21607862.148
 126538030.21646  98601136.04543  24079394.1484                   24079403.3444
 112957755.13048  88019129.71146  21495139.6804                   21495146.1884
 11  7 23  4  4  0.0000000  0  7G10G12G05G29G25G26G02
 121670945.57547  94808631.74244  23153206.4384                   23153214.5274
 112633798.262 8                  21433504.273
 106786791.760 8                  20320842.219
 118661535.348 7                  22580539.375
 113545692.645 8                  21607025.883
 126440388.28546  98525051.46343  24060813.7344                   24060823.6454
 112997456.05748  88050065.50046  21502694.5004                   21502700.5554
 11  7 23  4  4 30.0000000  0  7G10G12G05G29G25G26G02
 121771117.26847  94886687.59743  23172268.1254                   23172276.0704
 112694845.536 8                  21445120.813
 106803194.842 8                  20323963.805
 118580389.325 7                  22565098.125
 113541881.001 8                  21606300.477
 126342751.47847  98448970.83443  24042233.5394                   24042243.7304
 113037263.77448  88081084.49646  21510270.0394                   21510275.9344
 11  7 23  4  5  0.0000000  0  7G10G12G05G29G25G26G02
 121871508.15147  94964914.25644  23191372.2734                   23191379.7894
 112756337.329 8                  21456822.273
 106820140.389 8                  20327188.805
 118499325.476 7                  22549671.906
 113538652.889 8                  21605685.820
 126245123.11647  98372896.77943  24023655.8444                   24023665.7624
 113077177.81548  88112186.34046  21517864.9224                   21517870.9774
 11  7 23  4  5 30.0000000  0  7G10G12G05G29G25G26G02
 121972115.38246  95043309.49643  23210516.5164                   23210525.1374
 112818270.922 8                  21468607.734
 106837627.319 8                  20330515.898
 118418345.604 7                  22534261.758
 113536008.150 8                  21605183.000
 126147506.61147  98296831.98443  24005080.4384                   24005089.9184
 113117198.09548  88143370.96446  21525480.5394                   21525486.7624
 11  7 23  4  6  0.0000000  0  7G10G12G05G29G25G26G02
 122072936.21246  95121871.14743  23229702.1644                   23229710.1914
 112880644.349 8                  21480477.078
 106855654.125 8                  20333946.633
 118337451.568 7                  22518868.281
 113533946.398 8                  21604790.773
 126049905.22947  98220778.93243  23986507.3594                   23986516.5084
 113157324.06448  88174637.96246  21533116.6954                   21533122.6524
 11  7 23  4  6 30.0000000  0  7G10G12G05G29G25G26G02
 122173968.13446  95200597.30343  23248928.2194                   23248936.3754
 112943454.772 8                  21492429.383
 106874219.438 8                  20337479.273
 118256644.878 7                  22503491.078
 113532467.304 8                  21604509.008
 125952322.11146  98144740.18843  23967938.2734                   23967947.1134
 113197555.37848  88205987.05046  21540772.4304                   21540778.1134
 11  7 23  4  7  0.0000000  0  7G10G12G05G29G25G26G02
 122275208.19646  95279485.63543  23268193.6334                   23268201.9144
 113006699.556 8                  21504464.719
 106893322.245 8                  20341114.367
 118175927.530 7                  22488131.359
 113531570.721 8                  21604338.422
 125854760.98246  98068718.55343  23949372.1414                   23949381.9344
 113237892.02248  88237418.18446  21548448.5234                   21548454.0314
 11  7 23  4  7 30.0000000  0  7G10G12G05G29G25G26G02
 122376653.45246  95358533.85944  23287497.8284                   23287506.2584
 113070376.693 8                  21516582.094
 106912961.226 8                  20344851.461
 118095301.390 7                  22472788.742
 113531256.367 8                  21604278.828
 125757225.26146  97992716.70643  23930811.6724                   23930821.6254
 113278333.52648  88268931.04745  21556143.8834                   21556149.9734
 11  7 23  4  8  0.0000000  0  7G10G12G05G29G25G26G02
 122478300.81646  95437739.54744  23306841.3834                   23306849.2194
 113134483.453 8                  21528781.039
 106933134.580 8                  20348690.516
 118014768.182 7                  22457463.719
 113531523.651 8                  21604329.523
 125659718.08446  97916737.17043  23912256.3674                   23912267.0944
 113318879.50148  88300525.31546  21563859.4614                   21563865.6054
